Date StartTime U_cm/s V_cm/s W_cm/s Ustd_cm/s Vstd_cm/s Wstd_cm/s Uvar_(cm/s)^2 Vvar_(cm/s)^2 Wvar_(cm/s)^2 KE_(m/s)^2 TurbulentKE_(m/s)^2 HorizWindSpeed_cm/s FrictionSpeec_cm/s DragCoef SpeedOfSound_m/s SonicTemperature_C Pressure_mb 
09/30/2014  00:00:00      -96.930      -77.625       -4.666       43.212       40.678       18.086     1867.310     1654.738      327.098        0.965        0.192      124.182        5.844        0.002      341.448       16.166      860.808
09/30/2014  00:01:00     -101.266      -78.609       -0.209       54.241       45.709       27.122     2942.065     2089.295      735.598        1.110        0.288      128.196       23.160        0.033      341.332       15.971      860.812
09/30/2014  00:02:00      -84.437      -73.991       -0.377       46.518       46.287       22.934     2163.964     2142.505      525.960        0.872        0.242      112.269       20.869        0.035      341.352       16.006      860.812
09/30/2014  00:03:00      -60.185      -96.943        1.479       35.301       42.866       21.530     1246.182     1837.501      463.551        0.828        0.177      114.106        9.397        0.007      341.385       16.062      860.802
09/30/2014  00:04:00      -50.253      -94.697       -3.261       41.465       48.102       21.356     1719.382     2313.780      456.089        0.800        0.224      107.205       21.852        0.042      341.384       16.059      860.791
09/30/2014  00:05:00     -122.937      -75.864       -6.909       58.096       36.833       29.218     3375.117     1356.667      853.696        1.325        0.279      144.461       27.834        0.037      341.335       15.975      860.798
09/30/2014  00:06:00     -118.477      -68.188        1.952       68.576       45.620       40.664     4702.643     2081.144     1653.536        1.356        0.422      136.699       36.265        0.070      341.214       15.771      860.794
09/30/2014  00:07:00     -132.641      -87.604        3.290       56.332       42.354       31.560     3173.250     1793.884      996.048        1.562        0.298      158.960       28.516        0.032      341.320       15.950      860.779
09/30/2014  00:08:00     -133.666      -57.431        1.367       76.453       49.977       31.441     5845.017     2497.701      988.531        1.525        0.467      145.482       37.873        0.068      341.376       16.045      860.768
09/30/2014  00:09:00     -175.884      -80.664       -5.920       77.570       59.566       33.567     6017.046     3548.150     1126.733        2.408        0.535      193.499       37.127        0.037      341.412       16.104      860.749
09/30/2014  00:10:00     -181.511     -111.271      -16.758      107.553       68.747       39.374    11567.627     4726.101     1550.346        3.172        0.892      212.902       44.911        0.044      341.649       16.506      860.735
09/30/2014  00:11:00     -181.834     -128.461       -1.778       73.318       67.200       44.352     5375.459     4515.856     1967.083        3.071        0.593      222.634       35.947        0.026      341.624       16.463      860.719
09/30/2014  00:12:00     -168.228      -97.317       -2.387       75.880       65.904       36.679     5757.761     4343.363     1345.369        2.461        0.572      194.349       39.149        0.041      341.618       16.454      860.727
09/30/2014  00:13:00      -95.457      -63.136        3.897       64.098       49.199       30.607     4108.574     2420.527      936.800        1.029        0.373      114.448       29.303        0.066      341.620       16.459      860.734
09/30/2014  00:14:00     -198.656      -96.406       -6.069       74.469       60.139       35.679     5545.675     3616.672     1272.959        2.961        0.522      220.813       36.112        0.027      341.758       16.690      860.729
09/30/2014  00:15:00     -145.345      -71.830       -3.856       60.742       61.636       27.556     3689.569     3799.008      759.345        1.727        0.412      162.126       28.167        0.030      341.642       16.497      860.718
09/30/2014  00:16:00     -128.191      -79.345        1.585       70.814       52.667       27.042     5014.674     2773.853      731.258        1.562        0.426      150.760       26.585        0.031      341.669       16.541      860.712
09/30/2014  00:17:00      -80.993     -119.198        3.729       54.015       63.814       34.994     2917.576     4072.242     1224.562        1.450        0.411      144.111       36.632        0.065      341.643       16.497      860.697
09/30/2014  00:18:00      -66.324     -147.292        0.834       53.911       43.305       27.671     2906.354     1875.287      765.687        1.582        0.277      161.535       27.337        0.029      341.655       16.518      860.674
09/30/2014  00:19:00      -27.082     -142.563        2.753       87.447       65.173       30.668     7647.033     4247.580      940.510        1.695        0.642      145.113       37.948        0.068      341.838       16.828      860.647
09/30/2014  00:20:00     -103.478      -56.660      -10.394       48.305       43.236       27.392     2333.398     1869.339      750.295        0.949        0.248      117.975       22.124        0.035      341.707       16.607      860.629
09/30/2014  00:21:00     -107.758      -97.790      -10.799       53.374       50.758       26.993     2848.770     2576.401      728.648        1.372        0.308      145.515       27.369        0.035      341.592       16.411      860.619
09/30/2014  00:22:00      -52.298     -118.896       -1.395       36.111       40.527       28.296     1304.001     1642.436      800.667        1.031        0.187      129.890       11.568        0.008      341.631       16.479      860.593
09/30/2014  00:23:00      -86.702     -109.795       -4.096       57.922       36.628       28.471     3354.960     1341.599      810.582        1.255        0.275      139.900       29.899        0.046      341.592       16.412      860.589
09/30/2014  00:24:00      -87.925      -75.902       -1.804       38.073       37.125       24.206     1449.534     1378.275      585.928        0.845        0.171      116.154       14.727        0.016      341.509       16.271      860.590
09/30/2014  00:25:00      -98.315      -80.134        7.403       58.306       55.739       25.980     3399.635     3106.853      674.962        1.166        0.359      126.836       25.683        0.041      341.488       16.235      860.605
09/30/2014  00:26:00      -74.735      -99.069       -0.440       55.617       47.797       29.546     3093.220     2284.527      872.937        1.082        0.313      124.097       26.397        0.045      341.502       16.258      860.609
09/30/2014  00:27:00      -75.811     -118.465       -3.307       47.682       49.027       25.085     2273.620     2403.656      629.274        1.255        0.265      140.646       18.884        0.018      341.536       16.316      860.601
09/30/2014  00:28:00      -80.971     -103.297       -0.796       60.166       50.318       24.569     3619.931     2531.869      603.637        1.199        0.338      131.250       23.419        0.032      341.487       16.234      860.586
09/30/2014  00:29:00      -77.599     -133.620       -0.123       43.872       58.082       27.631     1924.763     3373.566      763.485        1.497        0.303      154.518       14.591        0.009      341.512       16.274      860.574
09/30/2014  00:30:00     -110.956     -106.571       -0.230       59.761       55.831       34.461     3571.369     3117.085     1187.558        1.577        0.394      153.846       23.768        0.024      341.491       16.240      860.567
09/30/2014  00:31:00     -147.331      -91.263       -4.957       75.091       31.939       29.328     5638.619     1020.072      860.112        1.879        0.376      173.307       32.283        0.035      341.431       16.137      860.563
09/30/2014  00:32:00     -113.825      -88.751        0.368       63.669       50.695       35.449     4053.718     2570.012     1256.657        1.436        0.394      144.336       30.836        0.046      341.438       16.150      860.557
09/30/2014  00:33:00     -123.783      -83.603       -5.145       33.027       50.290       24.381     1090.796     2529.047      594.455        1.328        0.211      149.372       19.251        0.017      341.437       16.148      860.553
09/30/2014  00:34:00      -96.050      -97.944       -3.555       50.206       42.866       27.657     2520.666     1837.463      764.923        1.198        0.256      137.181       23.719        0.030      341.371       16.036      860.556
09/30/2014  00:35:00      -66.854      -72.455        7.914       52.431       42.391       29.834     2748.978     1796.964      890.042        0.761        0.272       98.586       21.309        0.047      341.324       15.960      860.549
09/30/2014  00:36:00      -94.765      -76.796        0.376       49.234       47.767       24.736     2423.988     2281.653      611.862        1.010        0.266      121.976       17.495        0.021      341.306       15.927      860.547
09/30/2014  00:37:00      -78.772      -90.242        9.011       54.673       55.192       31.843     2989.182     3046.184     1013.968        1.074        0.352      119.786       30.174        0.063      341.313       15.939      860.558
09/30/2014  00:38:00     -125.272      -91.506       -8.764       38.713       61.097       24.159     1498.661     3732.784      583.656        1.498        0.291      155.134       21.154        0.019      341.232       15.802      860.565
09/30/2014  00:39:00      -88.723      -42.928        4.148       52.405       39.228       20.879     2746.252     1538.839      435.951        0.723        0.236       98.562       24.184        0.060      341.169       15.696      860.574
09/30/2014  00:40:00      -57.550      -48.953        8.766       36.822       30.065       20.177     1355.895      903.917      407.117        0.423        0.133       75.553       20.159        0.071      341.156       15.673      860.585
09/30/2014  00:41:00      -77.761      -67.331       -6.666       66.113       30.914       21.378     4370.945      955.663      457.032        0.820        0.289      102.861       19.447        0.036      341.240       15.814      860.596
09/30/2014  00:42:00      -61.629      -64.613        2.218       55.713       45.003       30.427     3103.942     2025.258      925.800        0.702        0.303       89.292       27.495        0.095      341.170       15.698      860.610
09/30/2014  00:43:00      -89.534      -78.159       -3.042       55.160       38.027       21.069     3042.573     1446.083      443.918        0.953        0.247      118.849       24.325        0.042      341.123       15.617      860.623
09/30/2014  00:44:00     -107.614      -83.238       -7.313       51.228       38.428       22.442     2624.258     1476.682      503.647        1.158        0.230      136.049       10.600        0.006      341.090       15.562      860.614
09/30/2014  00:45:00      -58.574      -34.636        2.062       48.245       22.595       22.156     2327.609      510.519      490.898        0.398        0.166       68.048       23.236        0.117      341.018       15.441      860.600
09/30/2014  00:46:00      -91.489      -17.983      -11.252       31.786       19.730       14.347     1010.358      389.256      205.839        0.521        0.080       93.239       14.606        0.025      340.994       15.399      860.598
09/30/2014  00:47:00     -122.034       -9.315       -8.984       39.539       30.726       23.453     1563.370      944.111      550.049        0.906        0.153      122.389       19.334        0.025      340.990       15.392      860.588
09/30/2014  00:48:00      -92.798      -14.203        2.523       58.314       42.669       32.714     3400.535     1820.608     1070.195        0.755        0.315       93.878       30.515        0.106      340.974       15.364      860.580
09/30/2014  00:49:00     -118.734      -45.313       -3.002       59.567       46.354       23.827     3548.183     2148.653      567.748        1.121        0.313      127.087       27.792        0.048      341.016       15.437      860.573
09/30/2014  00:50:00     -148.276      -34.012       -9.854       29.645       29.942       16.879      878.820      896.497      284.899        1.265        0.103      152.127       13.835        0.008      341.007       15.421      860.575
09/30/2014  00:51:00     -131.485        3.124      -15.964       21.550       29.891       14.605      464.423      893.497      213.311        0.956        0.079      131.522        9.821        0.006      340.962       15.344      860.585
09/30/2014  00:52:00     -105.918       38.974       -5.187       23.261       15.103       10.985      541.070      228.097      120.665        0.683        0.044      112.861        4.348        0.001      340.994       15.400      860.600
09/30/2014  00:53:00      -83.813       31.402       -7.831       26.108       17.092       15.468      681.649      292.122      239.251        0.464        0.061       89.503       12.863        0.021      340.973       15.364      860.611
09/30/2014  00:54:00      -50.038       21.148       -0.517       20.069       13.566       13.830      402.778      184.044      191.258        0.186        0.039       54.324       12.929        0.057      341.062       15.514      860.615
09/30/2014  00:55:00      -62.220       42.892       -6.453       17.635       24.897       13.863      310.999      619.885      192.186        0.344        0.056       75.572       12.392        0.027      341.279       15.880      860.629
09/30/2014  00:56:00      -54.581       39.730       -0.834       22.037       21.247       13.208      485.621      451.424      174.445        0.283        0.056       67.509        5.169        0.006      341.324       15.957      860.631
09/30/2014  00:57:00      -35.584       29.497        3.286       35.192       16.104       12.509     1238.512      259.354      156.467        0.190        0.083       46.220        9.592        0.043      341.351       16.003      860.614
09/30/2014  00:58:00       15.450       36.645       -3.306       19.401       22.476       11.230      376.386      505.172      126.119        0.130        0.050       39.769       12.849        0.104      341.049       15.491      860.603
09/30/2014  00:59:00       16.379       83.006      -17.612       15.914       38.240       12.007      253.259     1462.316      144.166        0.466        0.093       84.607       17.908        0.045      340.854       15.162      860.586
09/30/2014  01:00:00        4.829       88.416      -18.789       11.367       18.312        7.932      129.206      335.316       62.911        0.436        0.026       88.548        7.976        0.008      341.033       15.465      860.579
09/30/2014  01:01:00       -3.730       29.769       -2.235       15.160       21.535        7.045      229.834      463.745       49.630        0.082        0.037       30.002        6.075        0.041      340.988       15.389      860.552
09/30/2014  01:02:00       13.783      -22.932        0.479        9.495       28.371        9.768       90.149      804.914       95.408        0.085        0.050       26.755        6.366        0.057      340.920       15.274      860.525
09/30/2014  01:03:00       26.985      -58.429      -10.968       24.495       20.485       18.091      600.001      419.644      327.267        0.280        0.067       64.359       12.789        0.039      340.829       15.120      860.484
09/30/2014  01:04:00       57.880      -77.691      -14.494       25.071       23.466       14.496      628.557      550.633      210.134        0.549        0.069       96.882        8.564        0.008      341.008       15.421      860.447
09/30/2014  01:05:00       35.572      -16.848        6.941       29.886       23.935       18.107      893.143      572.888      327.876        0.170        0.090       39.360       18.537        0.222      340.869       15.188      860.422
09/30/2014  01:06:00       49.996      -23.302        3.359       30.934       32.546       18.376      956.905     1059.230      337.668        0.270        0.118       55.159       21.798        0.156      340.883       15.213      860.410
09/30/2014  01:07:00        3.465      -38.908       -5.868       41.418       18.287       10.749     1715.491      334.399      115.548        0.186        0.108       39.062       15.807        0.164      340.979       15.375      860.403
09/30/2014  01:08:00      -43.277      -20.273       -4.844       18.458       14.172       11.455      340.707      200.838      131.213        0.149        0.034       47.790       11.652        0.059      341.087       15.556      860.403
09/30/2014  01:09:00     -112.907      -13.592      -14.925       27.172       24.885       15.007      738.323      619.247      225.195        0.737        0.079      113.723       14.346        0.016      340.854       15.161      860.420
09/30/2014  01:10:00      -49.169       -6.008       -2.383       16.426       18.225       14.379      269.812      332.157      206.759        0.163        0.040       49.535        8.800        0.032      340.842       15.143      860.425
09/30/2014  01:11:00       56.273       73.144       18.553       69.288       54.345       38.804     4800.866     2953.368     1505.768        0.906        0.463       92.287       49.437        0.287      341.967       17.047      860.382
09/30/2014  01:12:00       -2.204       82.750       -2.775       40.021       46.338       26.645     1601.659     2147.195      709.964        0.566        0.223       82.780       22.085        0.071      341.861       16.869      860.351
09/30/2014  01:13:00      -19.344      200.569      -37.900       36.547       64.044       20.269     1335.656     4101.653      410.839        2.394        0.292      201.499       15.751        0.006      342.008       17.115      860.350
09/30/2014  01:14:00      -10.164       89.219       -5.790       56.606       53.410       32.587     3204.186     2852.612     1061.925        0.761        0.356       89.796       25.346        0.080      342.016       17.131      860.343
09/30/2014  01:15:00      -48.887      -24.816       11.985       53.692       49.024       25.931     2882.862     2403.365      672.395        0.455        0.298       54.825       30.066        0.301      341.598       16.422      860.383
09/30/2014  01:16:00      -46.391      -56.301        2.159       63.930       42.991       30.282     4087.016     1848.192      916.993        0.609        0.343       72.951       24.154        0.110      341.493       16.243      860.384
09/30/2014  01:17:00     -131.711      -70.904      -12.769       52.554       37.518       19.856     2761.938     1407.571      394.268        1.355        0.228      149.584       13.819        0.009      341.349       15.999      860.398
09/30/2014  01:18:00     -134.474      -11.211       -7.928       40.411       34.018       22.501     1633.089     1157.238      506.311        1.078        0.165      134.941       20.427        0.023      341.241       15.818      860.411
09/30/2014  01:19:00     -125.601        6.994       -5.989       47.692       33.206       25.402     2274.533     1102.665      645.275        0.994        0.201      125.796       27.245        0.047      341.845       16.842      860.413
09/30/2014  01:20:00     -107.374      -70.444       -4.676       69.068       53.326       26.539     4770.328     2843.676      704.293        1.241        0.416      128.419       23.991        0.035      341.794       16.752      860.424
09/30/2014  01:21:00      -49.854      -77.877       16.436       74.202       49.223       36.736     5505.975     2422.864     1349.529        0.905        0.464       92.467       42.937        0.216      341.527       16.301      860.416
09/30/2014  01:22:00      -80.201      -76.514        1.904       48.956       64.140       24.391     2396.711     4113.882      594.916        0.970        0.355      110.845       19.231        0.030      341.317       15.945      860.407
09/30/2014  01:23:00     -109.503      -42.037       -4.862       28.782       29.530       15.822      828.408      872.004      250.333        0.787        0.098      117.294        5.915        0.003      341.302       15.921      860.404
09/30/2014  01:24:00      -66.736       28.786      -14.690       15.791       14.031       16.318      249.343      196.866      266.268        0.311        0.036       72.680        6.688        0.008      341.445       16.163      860.385
09/30/2014  01:25:00      -12.083        7.828       -5.894       17.257       16.744        5.078      297.821      280.346       25.788        0.042        0.030       14.397        3.352        0.054      341.596       16.417      860.332
09/30/2014  01:26:00      -51.720      -24.158      -13.517       23.753       11.946        6.025      564.215      142.704       36.304        0.209        0.037       57.084        6.644        0.014      341.648       16.507      860.295
09/30/2014  01:27:00     -104.126      -52.926      -11.597       26.968       35.438       12.712      727.273     1255.845      161.607        0.796        0.107      116.805        8.075        0.005      341.315       15.942      860.283
09/30/2014  01:28:00      -83.494      -62.547        2.744       47.050       27.791       25.557     2213.698      772.357      653.180        0.726        0.182      104.323       19.103        0.034      341.116       15.605      860.271
09/30/2014  01:29:00     -154.369      -47.706       -2.320       29.878       35.495       21.607      892.698     1259.889      466.884        1.436        0.131      161.572       16.604        0.011      341.625       16.468      860.266
09/30/2014  01:30:00      -92.671      -40.100        4.513       50.948       42.425       28.698     2595.673     1799.897      823.580        0.772        0.261      100.974       30.982        0.094      341.435       16.145      860.274
09/30/2014  01:31:00     -106.803       13.711      -13.939       35.656       28.993       24.018     1271.358      840.585      576.888        0.724        0.134      107.680       18.550        0.030      341.572       16.378      860.292
09/30/2014  01:32:00      -79.866      -69.531      -28.718       84.608       68.706       30.823     7158.485     4720.502      950.032        1.243        0.641      105.892       34.151        0.104      342.399       17.781      860.257
09/30/2014  01:33:00       42.774       92.623        7.224       84.294      138.406       48.896     7105.521    19156.284     2390.785        1.955        1.433      102.023       64.319        0.397      342.279       17.576      860.174
09/30/2014  01:34:00      -41.256      231.621      -34.917       91.543       59.561       39.372     8380.031     3547.506     1550.176        3.502        0.674      235.266       26.788        0.013      342.320       17.644      860.174
09/30/2014  01:35:00     -231.817      102.624      -39.621       67.290      102.259       32.068     4527.999    10456.976     1028.372        4.092        0.801      253.517       38.788        0.023      342.415       17.804      860.184
09/30/2014  01:36:00     -140.325       16.572      -27.907       69.742       84.331       47.128     4864.009     7111.676     2221.008        1.747        0.710      141.300       30.457        0.046      342.207       17.453      860.185
09/30/2014  01:37:00     -128.066       67.986      -18.694       57.007       78.093       39.936     3249.786     6098.468     1594.847        1.616        0.547      144.993       16.972        0.014      342.364       17.720      860.229
09/30/2014  01:38:00      -80.499      -64.562        8.137       66.433       62.251       34.114     4413.319     3875.221     1163.792        1.008        0.473      103.190       29.861        0.084      341.895       16.924      860.260
09/30/2014  01:39:00      -82.225      -38.977        3.368       59.476       53.215       35.518     3537.338     2831.876     1261.516        0.796        0.382       90.995       34.097        0.140      341.492       16.243      860.296
09/30/2014  01:40:00     -120.019      -32.676        2.181       67.626       45.763       35.603     4573.295     2094.271     1267.572        1.170        0.397      124.388       36.240        0.085      341.400       16.085      860.310
09/30/2014  01:41:00      -67.026        3.167        2.028       39.247       33.901       20.871     1540.343     1149.275      435.618        0.382        0.156       67.101       24.454        0.133      341.419       16.118      860.301
09/30/2014  01:42:00      -19.673       86.907       -1.900       50.428       59.446       29.733     2542.978     3533.807      884.080        0.745        0.348       89.106       32.946        0.137      341.781       16.732      860.295
09/30/2014  01:43:00      -25.710       74.526       38.127       44.796       49.967       38.172     2006.705     2496.700     1457.107        0.681        0.298       78.836       25.305        0.103      341.930       16.985      860.296
09/30/2014  01:44:00       -1.430       10.431       33.225       64.204       52.948       45.381     4122.210     2803.478     2059.431        0.510        0.449       10.528       42.065       15.963      342.061       17.206      860.291
09/30/2014  01:45:00      -27.530      -16.974       32.292       22.373       18.729       13.782      500.537      350.786      189.930        0.156        0.052       32.342        9.214        0.081      341.665       16.536      860.291
09/30/2014  01:46:00      -32.064       31.541      -12.106       15.604       31.307       15.783      243.476      980.113      249.093        0.182        0.074       44.977       13.794        0.094      341.988       17.084      860.290
09/30/2014  01:47:00      -58.914       37.511      -11.433       32.663       25.695       15.864     1066.865      660.255      251.664        0.349        0.099       69.842       18.663        0.071      341.940       17.002      860.297
09/30/2014  01:48:00      -82.654       94.580      -27.116       29.222       77.932       22.222      853.942     6073.384      493.828        1.197        0.371      125.607       27.690        0.049      342.104       17.279      860.315
09/30/2014  01:49:00      -89.862       52.451      -10.596       40.526       73.570       24.570     1642.322     5412.593      603.705        0.930        0.383      104.049       22.563        0.047      341.862       16.869      860.337
09/30/2014  01:50:00      -86.891        6.609      -17.354       22.074       28.779       13.775      487.261      828.228      189.746        0.470        0.075       87.142       12.884        0.022      341.428       16.133      860.366
09/30/2014  01:51:00     -117.939       25.821      -11.384       35.646       35.028       17.720     1270.609     1226.977      313.995        0.876        0.141      120.733       12.431        0.011      341.532       16.309      860.373
09/30/2014  01:52:00     -107.328       19.558      -13.748       28.191       37.712       14.534      794.758     1422.175      211.234        0.726        0.121      109.095        9.812        0.008      341.688       16.573      860.387
09/30/2014  01:53:00      -97.283        0.158       -4.562       46.808       26.711       24.526     2191.013      713.470      601.523        0.649        0.175       97.283       21.450        0.049      341.682       16.566      860.386
09/30/2014  01:54:00     -127.055       12.908       -9.212       36.750       58.079       22.066     1350.552     3373.123      486.918        1.080        0.261      127.709       16.396        0.016      341.811       16.783      860.367
09/30/2014  01:55:00     -119.086       84.468      -22.168       63.019       46.417       29.974     3971.352     2154.548      898.469        1.441        0.351      146.001       27.044        0.034      341.711       16.612      860.361
09/30/2014  01:56:00      -85.299      112.982      -20.853       56.686       47.523       25.141     3213.328     2258.393      632.066        1.329        0.305      141.566       29.123        0.042      342.005       17.112      860.341
09/30/2014  01:57:00     -103.731       68.433      -16.946       38.881       37.935       20.918     1511.769     1439.076      437.581        0.956        0.169      124.270       19.094        0.024      341.805       16.774      860.321
09/30/2014  01:58:00     -117.823       43.869      -10.800       40.157       31.476       22.769     1612.624      990.750      518.446        0.952        0.156      125.725       19.565        0.024      341.749       16.678      860.323
09/30/2014  01:59:00      -71.059      -19.783       -8.764       54.088       39.438       24.125     2925.476     1555.320      582.020        0.529        0.253       73.762       11.955        0.026      341.544       16.331      860.315
09/30/2014  02:00:00     -108.626      -39.546      -15.222       29.041       33.756       27.234      843.369     1139.441      741.664        0.816        0.136      115.601        9.890        0.007      341.550       16.341      860.315
09/30/2014  02:01:00      -87.487      -12.272       -9.603       32.193       28.919       15.453     1036.380      836.328      238.783        0.500        0.106       88.344       14.606        0.027      341.507       16.267      860.302
09/30/2014  02:02:00     -118.254      -25.237      -13.550       25.234       36.351       15.543      636.749     1321.428      241.599        0.850        0.110      120.917       12.979        0.012      341.485       16.230      860.304
09/30/2014  02:03:00     -103.623      -51.023        0.607       36.331       43.464       25.007     1319.920     1889.121      625.338        0.859        0.192      115.504       27.096        0.055      341.274       15.873      860.300
09/30/2014  02:04:00     -103.311      -10.720       -0.119       43.050       35.865       20.372     1853.337     1286.315      415.011        0.717        0.178      103.866       18.906        0.033      341.435       16.146      860.308
09/30/2014  02:05:00     -171.848      -18.252      -10.639       69.107       37.304       34.931     4775.825     1391.609     1220.201        1.868        0.369      172.814       34.905        0.041      341.597       16.418      860.315
09/30/2014  02:06:00     -172.149        3.954      -12.968       50.535       45.457       23.617     2553.802     2066.298      557.783        1.750        0.259      172.195       26.651        0.024      341.543       16.328      860.328
09/30/2014  02:07:00     -126.834      -29.034      -14.443       23.162       24.434       16.911      536.490      597.019      285.979        0.928        0.071      130.115       10.683        0.007      341.473       16.209      860.338
09/30/2014  02:08:00      -94.080      -37.899        1.531       35.622       33.798       16.472     1268.893     1142.303      271.329        0.649        0.134      101.427       15.055        0.022      341.316       15.943      860.353
09/30/2014  02:09:00      -92.109      -20.481       -2.960       40.056       32.278       21.223     1604.458     1041.867      450.437        0.600        0.155       94.359       17.480        0.034      341.426       16.129      860.371
09/30/2014  02:10:00     -128.501      -21.604      -16.994       20.481       24.023       19.176      419.460      577.127      367.710        0.932        0.068      130.305       10.806        0.007      341.410       16.103      860.376
09/30/2014  02:11:00     -103.390      -29.145       -5.869       49.339       47.850       23.031     2434.364     2289.587      530.429        0.841        0.263      107.419       14.557        0.018      341.400       16.086      860.374
09/30/2014  02:12:00     -146.478      -26.721       -8.476       29.500       36.713       24.330      870.238     1347.876      591.954        1.253        0.141      148.895       13.638        0.008      341.410       16.104      860.374
09/30/2014  02:13:00     -103.311       19.788      -12.937       38.401       28.952       17.005     1474.620      838.211      289.181        0.692        0.130      105.189       15.491        0.022      341.362       16.021      860.366
09/30/2014  02:14:00      -77.123      -12.149       -7.532       50.227       36.945       23.889     2522.723     1364.920      570.686        0.530        0.223       78.075       28.790        0.136      341.296       15.912      860.362
09/30/2014  02:15:00      -75.123       19.825       -8.330       54.096       43.522       24.075     2926.411     1894.160      579.619        0.575        0.270       77.695       20.566        0.070      341.313       15.939      860.373
09/30/2014  02:16:00      -26.751       19.830       -3.810       21.394       28.239       19.075      457.690      797.436      363.839        0.137        0.081       33.299       10.046        0.091      341.306       15.927      860.374
09/30/2014  02:17:00       11.955       35.270       -1.937       37.164       28.721       16.237     1381.167      824.921      263.649        0.193        0.123       37.241       11.635        0.098      341.255       15.841      860.383
09/30/2014  02:18:00       -5.874       33.612       -6.215       36.115       43.772       26.890     1304.298     1916.023      723.055        0.257        0.197       34.122       17.587        0.266      341.296       15.910      860.378
09/30/2014  02:19:00      -34.188       45.060       -7.610       28.108       20.970       18.589      790.040      439.720      345.542        0.242        0.079       56.561       14.616        0.067      341.190       15.733      860.381
09/30/2014  02:20:00       31.240       31.939        3.168       43.334       23.774       24.551     1877.816      565.186      602.755        0.253        0.152       44.677       13.991        0.098      341.059       15.510      860.372
09/30/2014  02:21:00       20.016       25.635        7.413       26.702       30.400       22.790      712.993      924.138      519.403        0.163        0.108       32.524       16.236        0.249      340.598       14.727      860.371
09/30/2014  02:22:00       24.011       22.122       51.477       47.334       41.529       33.664     2240.525     1724.666     1133.276        0.441        0.255       32.648       25.944        0.631      340.341       14.296      860.379
09/30/2014  02:23:00       25.785       57.951       69.993       45.530       50.225       35.479     2072.989     2522.522     1258.756        0.739        0.293       63.429       28.382        0.200      340.221       14.091      860.383
09/30/2014  02:24:00       64.443       69.261       68.360       61.881       37.226       22.132     3829.290     1385.787      489.830        0.966        0.285       94.604       21.461        0.051      340.121       13.924      860.384
09/30/2014  02:25:00       36.891       37.761       63.664       60.056       50.909       26.591     3606.758     2591.770      707.084        0.687        0.345       52.791       27.806        0.277      340.036       13.781      860.395
09/30/2014  02:26:00       -8.368      -31.178       32.568       31.204       38.977       21.778      973.715     1519.192      474.296        0.253        0.148       32.281       14.055        0.190      340.091       13.871      860.408
09/30/2014  02:27:00       94.705      -68.481       -4.648       30.272       24.913       12.499      916.368      620.669      156.223        0.769        0.085      116.870        8.691        0.006      340.033       13.777      860.425
09/30/2014  02:28:00       37.798       29.521       62.414       49.596       56.973       35.632     2459.764     3245.915     1269.627        0.658        0.349       47.960       42.824        0.797      340.019       13.752      860.409
09/30/2014  02:29:00       17.028       71.696       69.504       39.314       29.404       28.164     1545.564      864.592      793.197        0.673        0.160       73.691       27.228        0.137      339.911       13.568      860.394
09/30/2014  02:30:00       47.345       19.457       19.238       36.538       38.313       18.712     1335.025     1467.855      350.136        0.307        0.158       51.187       18.489        0.130      339.927       13.596      860.393
09/30/2014  02:31:00       70.186      -20.317       31.247       40.348       39.950       31.446     1627.962     1595.986      988.882        0.526        0.211       73.068       36.610        0.251      340.103       13.893      860.359
09/30/2014  02:32:00       21.401       49.669       54.355       35.892       34.443       22.116     1288.261     1186.313      489.108        0.442        0.148       54.083       15.525        0.082      340.053       13.809      860.331
09/30/2014  02:33:00       14.476       47.121       -1.001       24.208       34.315       19.078      586.023     1177.519      363.962        0.228        0.106       49.294       19.201        0.152      339.982       13.688      860.324
09/30/2014  02:34:00       61.847       73.803       -9.885       54.204       47.686       20.868     2938.023     2273.931      435.478        0.751        0.282       96.291       27.593        0.082      340.079       13.852      860.318
09/30/2014  02:35:00       57.205       11.248       28.482       22.819       24.787       28.595      520.699      614.397      817.666        0.308        0.098       58.301       15.586        0.071      340.008       13.735      860.298
09/30/2014  02:36:00       82.781       79.835       32.880       24.867       15.237       23.870      618.353      232.179      569.779        0.786        0.071      115.006        3.812        0.001      339.892       13.535      860.287
09/30/2014  02:37:00       86.647       35.771       41.855       31.295       51.535       40.945      979.361     2655.829     1676.516        0.792        0.266       93.740       23.662        0.064      339.924       13.591      860.266
09/30/2014  02:38:00       59.803       65.290       98.058       59.058       45.447       44.679     3487.836     2065.467     1996.212        1.250        0.377       88.539       34.947        0.156      340.067       13.833      860.237
09/30/2014  02:39:00       71.120      -55.008        8.832       40.675       54.679       33.198     1654.480     2989.787     1102.112        0.695        0.287       89.911       37.302        0.172      339.994       13.709      860.261
09/30/2014  02:40:00       43.293     -100.744      -17.409       68.904       58.709       43.681     4747.815     3446.798     1908.018        1.121        0.505      109.652       30.096        0.075      340.039       13.784      860.243
09/30/2014  02:41:00       20.440      -74.595        0.684       40.627       52.365       40.167     1650.521     2742.095     1613.406        0.599        0.300       77.345       35.382        0.209      340.097       13.883      860.230
09/30/2014  02:42:00        8.836       42.420       50.411       34.726       48.555       34.339     1205.919     2357.544     1179.197        0.458        0.237       43.330       22.773        0.276      339.997       13.713      860.184
09/30/2014  02:43:00       11.465       -1.630       20.825       43.373       46.550       28.152     1881.213     2166.897      792.511        0.270        0.242       11.580       19.755        2.910      339.922       13.585      860.163
09/30/2014  02:44:00       19.146      -55.352       30.848       34.154       69.324       29.001     1166.474     4805.775      841.056        0.560        0.341       58.569       20.853        0.127      340.120       13.921      860.173
09/30/2014  02:45:00       64.823      -31.944       11.255       49.126       42.171       25.830     2413.346     1778.389      667.207        0.510        0.243       72.267       27.723        0.147      340.142       13.959      860.184
09/30/2014  02:46:00       79.021      -81.702        5.547       47.971       58.148       37.364     2301.257     3381.151     1396.031        1.001        0.354      113.664       42.763        0.142      340.094       13.877      860.168
09/30/2014  02:47:00       22.303      -50.331      -10.737       48.458       49.812       20.110     2348.144     2481.232      404.401        0.419        0.262       55.051       24.370        0.196      340.078       13.851      860.167
09/30/2014  02:48:00       38.356       23.446       -1.403       24.481        9.976       12.872      599.333       99.517      165.676        0.144        0.043       44.955        9.183        0.042      340.076       13.849      860.189
09/30/2014  02:49:00       41.937       14.585       27.458       30.196       45.242       31.790      911.778     2046.800     1010.579        0.335        0.198       44.401       25.806        0.338      339.993       13.707      860.164
09/30/2014  02:50:00       90.777      -53.967        8.059       75.656       69.688       49.691     5723.898     4856.405     2469.158        1.213        0.652      105.608       56.569        0.287      340.082       13.858      860.143
09/30/2014  02:51:00       34.424       28.725       63.625       32.055       42.620       30.977     1027.515     1816.423      959.560        0.493        0.190       44.834       30.619        0.466      340.046       13.797      860.160
09/30/2014  02:52:00       41.378       28.768       69.321       43.103       37.563       31.821     1857.830     1410.998     1012.600        0.581        0.214       50.396       24.591        0.238      340.008       13.734      860.133
09/30/2014  02:53:00       46.038        8.142       49.329       61.924       48.248       38.873     3834.598     2327.837     1511.079        0.615        0.384       46.753       34.971        0.560      340.014       13.741      860.106
09/30/2014  02:54:00       60.634      -96.995       -0.608       35.522       29.552       24.795     1261.843      873.340      614.808        0.792        0.137      114.387       13.224        0.013      340.146       13.966      860.116
09/30/2014  02:55:00       45.374      -80.680        5.865       36.841       43.043       33.424     1357.259     1852.665     1117.131        0.646        0.216       92.564       28.763        0.097      340.231       14.109      860.112
09/30/2014  02:56:00       36.864      -52.150        7.101       42.231       57.929       46.790     1783.486     3355.781     2189.329        0.573        0.366       63.864       37.181        0.339      340.319       14.257      860.098
09/30/2014  02:57:00        3.606        9.843       73.513       37.254       71.906       41.423     1387.881     5170.408     1715.869        0.689        0.414       10.483       50.077       22.820      340.148       13.969      860.076
09/30/2014  02:58:00       -3.024       11.238       43.910       25.824       31.203       33.603      666.885      973.608     1129.166        0.242        0.138       11.637       28.310        5.918      340.101       13.890      860.083
09/30/2014  02:59:00       14.162      -32.756        5.140       18.220       23.264       23.158      331.968      541.196      536.278        0.135        0.070       35.686       17.011        0.227      339.936       13.611      860.110
09/30/2014  03:00:00       -6.746      -68.340       -5.857       23.726       34.999       20.680      562.942     1224.960      427.671        0.348        0.111       68.672       23.231        0.114      340.002       13.723      860.120
09/30/2014  03:01:00       16.924       58.695       82.605       34.400       40.877       33.646     1183.356     1670.930     1132.021        0.727        0.199       61.086       32.266        0.279      339.994       13.708      860.088
09/30/2014  03:02:00      -10.881       69.479      114.996       19.855       70.537       34.259      394.212     4975.455     1173.684        1.236        0.327       70.325       45.503        0.419      340.036       13.779      860.064
09/30/2014  03:03:00       -8.915      -56.610       19.002       38.925       28.190       36.692     1515.187      794.650     1346.291        0.365        0.183       57.307       23.837        0.173      340.132       13.941      860.090
09/30/2014  03:04:00      -28.933      -31.611        0.505       56.254       21.157       17.438     3164.495      447.617      304.082        0.288        0.196       42.853       19.312        0.203      340.080       13.854      860.111
09/30/2014  03:05:00       -9.124       -5.541       18.926       31.060       24.863       19.344      964.693      618.172      374.180        0.121        0.098       10.675       17.121        2.572      339.998       13.716      860.129
09/30/2014  03:06:00       35.254       42.558       16.100       15.529       18.929       17.927      241.152      358.321      321.366        0.212        0.046       55.263        6.967        0.016      340.010       13.735      860.100
09/30/2014  03:07:00       15.586       31.710       -0.898       21.486       17.636       13.353      461.658      311.023      178.295        0.110        0.048       35.333        9.418        0.071      339.930       13.600      860.100
09/30/2014  03:08:00      -50.998       29.517       -3.906       16.588       20.327        8.745      275.158      413.178       76.473        0.213        0.038       58.924        6.853        0.014      339.923       13.589      860.127
09/30/2014  03:09:00      -65.157       52.305      -13.909       21.396       33.972       15.557      457.788     1154.063      242.020        0.451        0.093       83.553       16.393        0.038      339.802       13.387      860.148
09/30/2014  03:10:00      -65.098       49.693      -11.173       16.332       23.400       14.106      266.736      547.573      198.974        0.392        0.051       81.897        9.818        0.014      339.717       13.242      860.151
09/30/2014  03:11:00      -79.843       17.361      -12.168       31.866       21.145       12.119     1015.460      447.123      146.872        0.422        0.080       81.709        8.295        0.010      339.718       13.245      860.162
09/30/2014  03:12:00      -87.854       -5.147      -10.060       45.285       19.032       13.576     2050.764      362.211      184.297        0.522        0.130       88.005       13.560        0.024      339.605       13.053      860.176
09/30/2014  03:13:00       11.261       -0.650        5.926       24.625       14.992       11.867      606.399      224.762      140.837        0.057        0.049       11.280       10.042        0.793      339.684       13.186      860.152
09/30/2014  03:14:00       51.146       28.979        3.366       12.627       12.297       10.197      159.445      151.223      103.972        0.194        0.021       58.785        8.089        0.019      339.850       13.464      860.118
09/30/2014  03:15:00      -13.579        7.967       -5.261       16.957       16.804        7.053      287.530      282.376       49.749        0.045        0.031       15.744        6.786        0.186      339.925       13.591      860.120
09/30/2014  03:16:00      -94.311      -11.091       -8.998       30.240       20.995       15.730      914.452      440.777      247.433        0.535        0.080       94.961       13.766        0.021      339.519       12.907      860.126
09/30/2014  03:17:00      -82.497      -34.717      -12.899       24.596       17.052       13.477      604.944      290.774      181.620        0.463        0.054       89.504        5.624        0.004      339.542       12.946      860.112
09/30/2014  03:18:00       13.411      -20.446       -4.568       28.464       18.298       14.104      810.201      334.801      198.928        0.098        0.067       24.452       11.337        0.215      339.648       13.126      860.107
09/30/2014  03:19:00       18.907       36.718       28.855       24.686       27.069       18.774      609.417      732.722      352.447        0.212        0.085       41.299       10.589        0.066      339.664       13.153      860.079
09/30/2014  03:20:00       11.155       39.918       11.175       20.186       17.264       17.286      407.483      298.033      298.802        0.142        0.050       41.447       15.119        0.133      339.772       13.334      860.076
09/30/2014  03:21:00      -88.819       59.451      -13.340       44.456       25.731       20.849     1976.376      662.076      434.670        0.734        0.154      106.879       13.297        0.015      339.617       13.073      860.083
09/30/2014  03:22:00     -146.248      129.981      -33.322       43.949       51.533       26.966     1931.508     2655.668      727.155        2.235        0.266      195.661       23.865        0.015      339.729       13.262      860.099
09/30/2014  03:23:00      -73.460       74.950      -22.159       40.509       35.684       21.661     1640.944     1273.315      469.195        0.744        0.169      104.947       23.804        0.051      339.785       13.356      860.117
09/30/2014  03:24:00      -87.913      -26.452       -9.089       49.908       64.759       15.817     2490.795     4193.721      250.169        0.772        0.347       91.806        9.944        0.012      339.795       13.373      860.126
09/30/2014  03:25:00     -144.275      -39.151      -12.632       30.136       33.905       21.002      908.169     1149.576      441.070        1.250        0.125      149.493       16.531        0.012      339.476       12.833      860.134
09/30/2014  03:26:00      -72.391       12.101       -3.630       31.157       16.746       11.027      970.748      280.418      121.587        0.339        0.069       73.395       13.974        0.036      339.900       13.551      860.131
09/30/2014  03:27:00      -23.947       -7.718       -4.851       16.230        7.143        6.570      263.407       51.016       43.160        0.051        0.018       25.160        3.734        0.022      339.802       13.384      860.134
09/30/2014  03:28:00       -3.785      -34.307       -1.707        8.691       13.067        5.305       75.528      170.754       28.139        0.073        0.014       34.516        2.667        0.006      339.852       13.469      860.131
09/30/2014  03:29:00      -44.983      -28.553       -6.027       22.488       13.453       13.978      505.715      180.972      195.394        0.188        0.044       53.280        8.592        0.026      339.796       13.373      860.136
09/30/2014  03:30:00      -68.383      -12.047      -10.156        7.045        9.389        5.959       49.632       88.155       35.514        0.255        0.009       69.437        4.033        0.003      339.744       13.289      860.139
09/30/2014  03:31:00      -89.397       11.648      -10.245       25.104       13.421       11.807      630.235      180.110      139.411        0.459        0.047       90.153        8.091        0.008      339.500       12.876      860.130
09/30/2014  03:32:00      -35.884       26.931       -8.022       22.931       18.942       10.613      525.819      358.793      112.629        0.154        0.050       44.865       10.419        0.054      339.645       13.120      860.133
09/30/2014  03:33:00      -18.575       57.016       -9.637       20.174       14.277       10.884      406.984      203.847      118.457        0.221        0.036       59.965        7.415        0.015      339.685       13.188      860.128
09/30/2014  03:34:00      -60.153       23.868       -9.318       26.426       20.605       11.585      698.334      424.550      134.214        0.277        0.063       64.715       10.010        0.024      339.574       12.999      860.125
09/30/2014  03:35:00       -8.845       46.394        0.191       10.990       14.097       15.403      120.788      198.724      237.255        0.139        0.028       47.230       12.658        0.072      339.655       13.137      860.095
09/30/2014  03:36:00        1.287       35.741       -5.133       14.545       29.712       12.190      211.547      882.782      148.584        0.127        0.062       35.764       12.507        0.122      339.669       13.160      860.095
09/30/2014  03:37:00      -32.431       38.033       -6.498       23.013       37.835       10.657      529.585     1431.459      113.570        0.231        0.104       49.983       14.122        0.080      339.601       13.046      860.106
09/30/2014  03:38:00      -11.507      -29.755       -4.789       25.261       28.907        9.738      638.134      835.625       94.833        0.130        0.078       31.902        6.065        0.036      339.293       12.527      860.105
09/30/2014  03:39:00        5.836      -56.483       -8.455       24.471       16.885       14.658      598.835      285.115      214.853        0.220        0.055       56.784       11.944        0.044      339.451       12.793      860.075
09/30/2014  03:40:00       17.907       -8.107       10.583       31.700       33.286       23.300     1004.916     1107.936      542.871        0.158        0.133       19.657       25.150        1.637      339.371       12.657      860.043
09/30/2014  03:41:00        2.749       30.107       38.771       20.832       19.198       12.730      433.966      368.562      162.059        0.169        0.048       30.232       10.670        0.125      339.292       12.525      860.047
09/30/2014  03:42:00        3.283       -3.665       14.953       11.436       13.725       11.485      130.786      188.383      131.905        0.035        0.023        4.921        9.874        4.026      339.328       12.585      860.062
09/30/2014  03:43:00       -0.176       -7.850       -1.110        5.984        6.226        4.761       35.810       38.762       22.668        0.008        0.005        7.852        3.154        0.161      339.485       12.852      860.050
09/30/2014  03:44:00        0.826      -14.117       -2.639        6.519        6.569        5.313       42.499       43.151       28.231        0.016        0.006       14.141        3.699        0.068      339.665       13.156      860.050
09/30/2014  03:45:00      -29.553      -26.868       -8.015       13.358       11.442        8.535      178.425      130.926       72.846        0.102        0.019       39.941        5.018        0.016      339.463       12.815      860.055
09/30/2014  03:46:00      -12.745      -19.961       -0.337       15.849       10.567        8.785      251.191      111.670       77.180        0.050        0.022       23.683        7.280        0.094      339.205       12.378      860.045
09/30/2014  03:47:00        0.170      -46.106       -5.683       28.434       30.661       13.417      808.475      940.086      180.013        0.204        0.096       46.106       12.065        0.068      339.413       12.729      860.044
09/30/2014  03:48:00       38.520      -66.445       -8.320       29.896       38.090       18.855      893.747     1450.837      355.509        0.433        0.135       76.803       13.629        0.031      339.566       12.987      860.036
09/30/2014  03:49:00      -42.088      -29.603      -11.072       22.599       27.756       14.486      510.694      770.386      209.832        0.213        0.075       51.456       16.435        0.102      339.342       12.608      860.050
09/30/2014  03:50:00      -54.150       -5.488       -3.526       28.039       18.294       15.717      786.166      334.674      247.026        0.217        0.068       54.427       15.136        0.077      339.072       12.154      860.058
09/30/2014  03:51:00       -9.423        4.460        1.209       15.804        6.964        6.921      249.765       48.498       47.898        0.023        0.017       10.425        4.645        0.199      339.042       12.104      860.031
09/30/2014  03:52:00      -10.056        5.923        6.942       12.641       12.626       18.867      159.783      159.419      355.955        0.043        0.034       11.671       10.193        0.763      339.252       12.458      860.007
09/30/2014  03:53:00       -1.718        6.942       36.630       17.043       27.705       15.886      290.468      767.588      252.350        0.135        0.066        7.151       15.571        4.741      339.340       12.606      859.993
09/30/2014  03:54:00       16.701       37.099       47.347       19.769       22.852       15.668      390.812      522.228      245.497        0.253        0.058       40.685       16.645        0.167      339.648       13.126      859.997
09/30/2014  03:55:00       63.288       18.108        5.110       27.675       16.793       15.509      765.905      281.999      240.534        0.282        0.064       65.828       13.795        0.044      339.759       13.314      860.005
09/30/2014  03:56:00       56.617       20.316       14.904       20.396       19.961       13.071      415.979      398.445      170.846        0.241        0.049       60.152        8.139        0.018      339.670       13.163      860.003
09/30/2014  03:57:00       55.454       34.080       32.044       33.680       26.826       25.492     1134.312      719.643      649.861        0.388        0.125       65.089       17.793        0.075      339.527       12.922      859.998
09/30/2014  03:58:00       50.006       35.001       13.703       20.686       15.659       18.703      427.927      245.215      349.815        0.247        0.051       61.038       10.541        0.030      339.253       12.460      860.028
09/30/2014  03:59:00       14.795      115.850      -15.512       20.480       32.785       11.302      419.414     1074.833      127.739        0.775        0.081      116.791       10.658        0.008      339.160       12.303      860.041
09/30/2014  04:00:00       14.390      148.136      -26.893       14.571       15.257       11.163      212.308      232.778      124.614        1.172        0.028      148.834        7.721        0.003      339.189       12.351      860.042
09/30/2014  04:01:00       18.117       98.920      -15.793       19.965       40.868       16.416      398.617     1670.205      269.475        0.635        0.117      100.565       19.211        0.036      339.203       12.375      860.057
09/30/2014  04:02:00       34.090       37.866       -1.464       32.806       26.424       17.845     1076.207      698.222      318.427        0.235        0.105       50.951       15.944        0.098      339.149       12.283      860.079
09/30/2014  04:03:00       69.310       34.063       15.908       13.424       13.116       10.913      180.201      172.039      119.085        0.334        0.024       77.228        4.319        0.003      339.267       12.484      860.094
09/30/2014  04:04:00       44.537        4.055        3.533       16.915       13.071       11.368      286.113      170.845      129.223        0.130        0.029       44.721        6.128        0.019      339.170       12.318      860.096
09/30/2014  04:05:00       62.852        1.733        3.521       24.876       19.117       14.910      618.811      365.469      222.310        0.259        0.060       62.876       10.639        0.029      339.262       12.476      860.094
09/30/2014  04:06:00       54.708       34.546       25.891       34.852       24.569       24.435     1214.690      603.613      597.063        0.364        0.121       64.702       18.368        0.081      339.292       12.524      860.097
09/30/2014  04:07:00       53.134       27.024       35.797       31.110       25.652       21.083      967.816      658.046      444.501        0.345        0.104       59.612        3.770        0.004      339.410       12.724      860.102
09/30/2014  04:08:00       60.383       51.313       38.903       34.022       22.828       23.813     1157.493      521.118      567.078        0.502        0.112       79.241       22.580        0.081      339.431       12.759      860.121
09/30/2014  04:09:00       46.310      127.419      -13.614       37.327       53.807       29.497     1393.335     2895.209      870.044        1.186        0.258      135.574       35.218        0.067      339.260       12.471      860.140
09/30/2014  04:10:00       -0.470      159.081      -18.642       23.639       19.096       11.772      558.812      364.642      138.570        1.336        0.053      159.082        9.595        0.004      339.156       12.298      860.134
09/30/2014  04:11:00       46.924       59.858        6.334       38.056       34.182       32.690     1448.274     1168.406     1068.611        0.475        0.184       76.058       20.022        0.069      339.042       12.103      860.121
09/30/2014  04:12:00       78.930       31.111       13.718       43.170       31.415       22.342     1863.634      986.878      499.173        0.537        0.167       84.840       19.148        0.051      339.188       12.350      860.123
09/30/2014  04:13:00       22.042      -13.796       12.123       24.465       22.445       14.818      598.560      503.790      219.559        0.107        0.066       26.004        9.919        0.145      339.236       12.432      860.113
09/30/2014  04:14:00       56.162       -6.911       16.182       30.306       19.602       16.699      918.460      384.228      278.863        0.252        0.079       56.586       12.592        0.050      339.287       12.516      860.087
09/30/2014  04:15:00       12.865      -26.347       19.800       20.815       37.188       17.698      433.261     1382.964      313.203        0.169        0.106       29.320       18.767        0.410      339.335       12.597      860.075
09/30/2014  04:16:00      -66.634      -28.131      -11.966       37.256       26.944       13.925     1388.038      726.001      193.896        0.384        0.115       72.329       16.340        0.051      339.292       12.525      860.101
09/30/2014  04:17:00     -121.742       22.985      -16.017       31.598       24.174       13.441      998.423      584.369      180.659        0.868        0.088      123.892       14.418        0.014      338.895       11.858      860.115
09/30/2014  04:18:00      -67.275       64.588       -7.943       37.245       39.693       30.324     1387.225     1575.526      919.565        0.632        0.194       93.261       22.852        0.060      339.046       12.111      860.119
09/30/2014  04:19:00      -93.393      154.146      -24.138       30.809       32.193       21.119      949.179     1036.386      446.020        1.775        0.122      180.231       17.289        0.009      339.155       12.295      860.105
09/30/2014  04:20:00       12.728       85.357       -8.100       19.930       34.997       17.439      397.202     1224.797      304.121        0.472        0.096       86.301       20.437        0.056      339.445       12.784      860.070
09/30/2014  04:21:00       17.246       13.527        1.866       12.609       29.520       14.445      158.996      871.430      208.651        0.086        0.062       21.918        8.512        0.151      339.467       12.821      860.045
09/30/2014  04:22:00       -8.895      -37.837       -4.150       24.020       12.317       13.314      576.976      151.708      177.271        0.122        0.045       38.869        8.667        0.050      339.468       12.823      860.045
09/30/2014  04:23:00      -29.887      -27.233       -3.548       10.282       11.677        7.309      105.710      136.357       53.419        0.097        0.015       40.434        6.640        0.027      339.534       12.934      860.045
09/30/2014  04:24:00      -19.203       -7.616        7.133       15.118        9.763        5.686      228.555       95.325       32.332        0.042        0.018       20.658        4.697        0.052      339.582       13.015      860.052
09/30/2014  04:25:00       -8.218      -21.991       -0.038        9.910       10.684        6.066       98.206      114.146       36.791        0.040        0.012       23.476        5.243        0.050      339.552       12.964      860.075
09/30/2014  04:26:00      -10.508      -17.774        1.685       12.065       16.624        6.976      145.567      276.370       48.669        0.045        0.024       20.647        8.908        0.186      339.398       12.705      860.072
09/30/2014  04:27:00       29.079        1.735       26.269       38.316       26.448       25.559     1468.119      699.513      653.260        0.218        0.141       29.130       21.410        0.540      339.328       12.585      860.044
09/30/2014  04:28:00       14.155       54.416       64.569       31.130       29.738       20.178      969.086      884.360      407.169        0.480        0.113       56.227       18.461        0.108      339.231       12.423      860.018
09/30/2014  04:29:00       -0.348       52.942       71.138       15.212       33.182       18.569      231.413     1101.023      344.791        0.477        0.084       52.943       20.148        0.145      339.265       12.479      859.999
09/30/2014  04:30:00       39.037      -45.134       25.606       33.679       65.800       39.604     1134.265     4329.684     1568.499        0.562        0.352       59.674       38.331        0.413      339.440       12.773      860.006
09/30/2014  04:31:00       63.156      -98.454      -22.187       37.790       39.221       25.861     1428.073     1538.313      668.781        0.890        0.182      116.970       20.368        0.030      339.601       13.046      860.011
09/30/2014  04:32:00       -4.457      -38.362        4.604       34.637       34.321       13.535     1199.749     1177.951      183.195        0.204        0.128       38.620       16.599        0.185      339.299       12.537      860.035
09/30/2014  04:33:00      -64.963       -0.377       -5.008       20.703       14.837       11.278      428.605      220.147      127.185        0.251        0.039       64.964       11.999        0.034      339.064       12.141      860.051
09/30/2014  04:34:00      -48.162       -1.081       -2.635       34.102       18.732       19.095     1162.960      350.900      364.615        0.210        0.094       48.174       17.658        0.134      338.823       11.737      860.066
09/30/2014  04:35:00      -95.316       23.975       -9.845       77.766       34.168       24.734     6047.474     1167.441      611.777        0.879        0.391       98.285       27.794        0.080      338.701       11.530      860.085
09/30/2014  04:36:00     -140.716       49.402      -11.547       51.871       26.103       22.506     2690.574      681.371      506.501        1.313        0.194      149.136       21.315        0.020      338.722       11.567      860.098
09/30/2014  04:37:00      -72.156       47.653      -13.233       29.309       21.984       19.335      859.007      483.302      373.853        0.468        0.086       86.472       14.839        0.029      338.769       11.645      860.086
09/30/2014  04:38:00      -14.466       27.108      -10.582       15.057       12.832       13.654      226.703      164.654      186.435        0.082        0.029       30.726        7.117        0.054      338.986       12.009      860.076
09/30/2014  04:39:00       21.052       13.477        2.109       11.601       19.942       11.539      134.593      397.691      133.151        0.065        0.033       24.996        9.157        0.134      338.916       11.893      860.081
09/30/2014  04:40:00       21.665       23.250       -4.801       11.090        8.321        6.733      122.981       69.234       45.337        0.064        0.012       31.779        5.834        0.034      339.034       12.092      860.087
09/30/2014  04:41:00        5.561        5.683       -0.170       11.213        7.149        2.621      125.729       51.114        6.867        0.012        0.009        7.951        2.932        0.136      339.082       12.172      860.091
09/30/2014  04:42:00       11.466        0.134       -0.890       12.741        6.698        3.927      162.345       44.865       15.420        0.018        0.011       11.467        2.150        0.035      339.098       12.199      860.095
09/30/2014  04:43:00       16.548      -27.186       -0.212       10.885       11.610        8.748      118.482      134.787       76.524        0.067        0.016       31.827        6.957        0.048      339.218       12.401      860.104
09/30/2014  04:44:00       -1.226      -28.355        3.223       13.368       12.757       12.040      178.702      162.751      144.971        0.065        0.024       28.382        7.774        0.075      339.157       12.299      860.114
09/30/2014  04:45:00       37.654      -42.498       -0.979       35.323       19.584       12.825     1247.723      383.529      164.481        0.251        0.090       56.779        9.916        0.030      339.309       12.553      860.128
09/30/2014  04:46:00       17.692        9.499       23.318       20.588       14.850       14.300      423.854      220.517      204.496        0.090        0.042       20.081       15.768        0.617      339.154       12.294      860.139
09/30/2014  04:47:00        9.787      -21.320       22.787       23.609       44.748       23.956      557.372     2002.380      573.876        0.210        0.157       23.460        7.143        0.093      339.147       12.281      860.135
09/30/2014  04:48:00       42.535      -64.906       -2.489       23.108       27.548       17.430      533.999      758.879      303.810        0.381        0.080       77.601       11.396        0.022      339.319       12.572      860.126
09/30/2014  04:49:00       47.249      -47.263        3.338       28.092       25.064       16.213      789.135      628.181      262.851        0.308        0.084       66.830       15.403        0.053      339.315       12.564      860.107
09/30/2014  04:50:00      -33.586      -19.092        0.770        9.449       11.636        8.388       89.284      135.407       70.359        0.089        0.015       38.633        5.597        0.021      339.063       12.139      860.101
09/30/2014  04:51:00       -5.396        9.046       23.491       27.023       23.093       14.457      730.217      533.297      209.007        0.107        0.074       10.533       11.342        1.159      339.054       12.126      860.111
09/30/2014  04:52:00      -17.585       18.677        0.911        9.903        9.581        8.763       98.063       91.795       76.790        0.046        0.013       25.653        6.566        0.066      339.169       12.318      860.119
09/30/2014  04:53:00      -49.305      -24.638       -4.538       11.421       16.445        8.942      130.434      270.440       79.967        0.177        0.024       55.118        4.557        0.007      338.914       11.888      860.116
09/30/2014  04:54:00      -89.928      -43.442       -7.755       32.392       16.172       11.307     1049.270      261.541      127.858        0.574        0.072       99.871        3.282        0.001      338.689       11.511      860.114
09/30/2014  04:55:00     -106.886      -59.646       -9.029       27.330       24.928       15.740      746.931      621.427      247.737        0.834        0.081      122.402       12.478        0.010      338.605       11.371      860.114
09/30/2014  04:56:00      -98.601       -0.769       -7.646       18.727       28.519       13.016      350.710      813.355      169.408        0.556        0.067       98.604        9.814        0.010      338.584       11.335      860.130
09/30/2014  04:57:00      -93.665       31.537      -12.247       28.748       23.340       15.314      826.457      544.750      234.512        0.576        0.080       98.832       11.570        0.014      338.525       11.236      860.145
09/30/2014  04:58:00     -157.926       46.616      -14.660       67.191       40.770       26.020     4514.620     1662.227      677.052        1.709        0.343      164.662       23.266        0.020      338.629       11.409      860.164
09/30/2014  04:59:00     -189.356       25.195      -13.843       42.061       51.253       28.718     1769.168     2626.850      824.709        2.095        0.261      191.024       16.630        0.008      338.552       11.280      860.176
09/30/2014  05:00:00     -130.448      -22.984       -9.207       48.753       53.698       33.419     2376.890     2883.477     1116.839        1.200        0.319      132.458       22.265        0.028      338.487       11.171      860.174
09/30/2014  05:01:00     -151.506      -16.424      -15.241       48.221       51.745       29.597     2325.307     2677.589      875.968        1.467        0.294      152.393       25.152        0.027      338.451       11.111      860.169
09/30/2014  05:02:00     -137.636      -29.736       -8.783       43.689       31.571       23.197     1908.746      996.733      538.122        1.167        0.172      140.812       24.735        0.031      338.395       11.016      860.167
09/30/2014  05:03:00     -107.608      -27.654       -4.261       30.219       30.054       17.722      913.213      903.247      314.054        0.725        0.107      111.105       12.728        0.013      338.533       11.250      860.172
09/30/2014  05:04:00      -44.065      -19.627        0.884       21.848       24.878       11.724      477.323      618.915      137.456        0.178        0.062       48.238       10.617        0.048      338.557       11.290      860.168
09/30/2014  05:05:00      -68.428       14.696       -8.045       18.640       10.206        9.695      347.442      104.171       93.988        0.275        0.027       69.988       10.987        0.025      338.639       11.427      860.162
09/30/2014  05:06:00      -75.540      -10.576       -8.800       13.729       12.412        8.078      188.477      154.056       65.259        0.315        0.020       76.276        5.327        0.005      338.749       11.612      860.160
09/30/2014  05:07:00      -98.959      -12.475       -9.844       36.784       17.205       15.183     1353.084      296.003      230.517        0.596        0.094       99.742       18.251        0.033      338.707       11.541      860.172
09/30/2014  05:08:00     -168.204       -3.664      -15.292       43.745       58.749       27.708     1913.614     3451.496      767.714        1.734        0.307      168.244       21.840        0.017      338.591       11.347      860.206
09/30/2014  05:09:00     -119.104      -37.944      -14.600       57.554       53.739       25.548     3312.460     2887.875      652.710        1.134        0.343      125.002       21.968        0.031      338.391       11.010      860.220
09/30/2014  05:10:00     -125.835      -40.168       -8.787       43.334       33.042       25.488     1877.794     1091.783      649.640        1.057        0.181      132.090       23.844        0.033      338.335       10.916      860.211
09/30/2014  05:11:00      -54.258      -26.768       11.481       36.891       29.116       24.554     1360.956      847.731      602.885        0.330        0.141       60.501       23.672        0.153      338.411       11.045      860.184
09/30/2014  05:12:00      -90.984        2.587       -1.367       46.446       28.764       21.970     2157.214      827.353      482.694        0.588        0.173       91.021       25.328        0.077      338.496       11.186      860.174
09/30/2014  05:13:00     -120.198       38.520       -8.960       38.090       22.758       16.222     1450.873      517.908      263.148        0.912        0.112      126.220       10.583        0.007      338.496       11.187      860.181
09/30/2014  05:14:00      -87.315       52.013      -14.504       36.571       58.478       22.993     1337.402     3419.630      528.687        0.791        0.264      101.633       18.277        0.032      338.518       11.225      860.192
09/30/2014  05:15:00      -80.872       31.661       -8.305       32.968       32.694       25.164     1086.898     1068.912      633.228        0.520        0.139       86.849       15.952        0.034      338.687       11.508      860.197
09/30/2014  05:16:00      -98.007        9.681       -6.822       28.274       21.508       19.068      799.435      462.598      363.603        0.569        0.081       98.484       14.270        0.021      338.775       11.655      860.200
09/30/2014  05:17:00      -66.516      -12.471       -2.598       29.570       29.507       14.010      874.396      870.637      196.267        0.326        0.097       67.675       12.882        0.036      338.735       11.589      860.215
09/30/2014  05:18:00      -49.803       34.441       -5.569       36.256       30.754       20.801     1314.517      945.806      432.694        0.319        0.135       60.552       23.034        0.145      338.814       11.720      860.257
09/30/2014  05:19:00     -109.799      128.749      -30.685       30.795       38.736       22.219      948.302     1500.443      493.688        1.626        0.147      169.211       20.965        0.015      339.020       12.068      860.285
09/30/2014  05:20:00      -84.073       72.680      -19.853       30.893       40.802       17.920      954.386     1664.801      321.119        0.784        0.147      111.133       21.219        0.036      339.179       12.334      860.292
09/30/2014  05:21:00      -27.173      -22.215       -2.500       33.741       26.367       19.274     1138.424      695.237      371.499        0.172        0.110       35.098       18.767        0.286      338.833       11.753      860.298
09/30/2014  05:22:00      -13.889      -33.522       -4.594       48.857       23.839       19.514     2387.007      568.274      380.779        0.234        0.167       36.286       23.740        0.428      338.745       11.605      860.307
09/30/2014  05:23:00       42.527       12.104       -3.893       11.424       22.698       13.180      130.507      515.180      173.706        0.139        0.041       44.216        4.722        0.011      338.785       11.671      860.315
09/30/2014  05:24:00       -5.147        7.774       -3.484       25.437       13.120        8.611      647.050      172.141       74.157        0.050        0.045        9.324        6.432        0.476      338.905       11.873      860.322
09/30/2014  05:25:00      -62.930       -7.252      -10.333       15.669       12.257        9.255      245.507      150.227       85.650        0.230        0.024       63.346        7.954        0.016      338.844       11.771      860.343
09/30/2014  05:26:00      -54.359      -21.123      -10.878       15.923       13.724        7.215      253.553      188.340       52.054        0.201        0.025       58.319        7.068        0.015      338.841       11.767      860.362
09/30/2014  05:27:00      -85.018      -41.830      -13.162       15.973       14.708        8.713      255.140      216.325       75.920        0.485        0.027       94.752        4.612        0.002      338.665       11.470      860.354
09/30/2014  05:28:00       -4.371      -36.240        1.016       39.595       25.716       23.816     1567.774      661.292      567.184        0.206        0.140       36.502       17.744        0.236      338.606       11.370      860.327
09/30/2014  05:29:00       22.452       -7.099        6.225       19.549       29.926       16.700      382.178      895.546      278.874        0.107        0.078       23.547       16.080        0.466      338.735       11.588      860.306
09/30/2014  05:30:00      -35.600        7.064        8.508       35.330       15.251       15.485     1248.183      232.606      239.778        0.155        0.086       36.294       18.788        0.268      338.873       11.821      860.308
09/30/2014  05:31:00     -149.223        2.178      -13.634       40.172       36.491       15.945     1613.795     1331.582      254.241        1.283        0.160      149.239       16.980        0.013      338.609       11.377      860.319
09/30/2014  05:32:00      -44.203      -34.155       10.823       42.962       28.543       15.983     1845.728      814.712      255.442        0.308        0.146       55.861       17.815        0.102      338.655       11.453      860.289
09/30/2014  05:33:00      -11.271       21.340        7.358       13.290       14.894       15.489      176.621      221.829      239.899        0.064        0.032       24.134       12.087        0.251      338.700       11.529      860.263
09/30/2014  05:34:00      -30.267      -25.836       -3.633       31.134       16.699        9.649      969.330      278.860       93.112        0.147        0.067       39.794        8.727        0.048      338.886       11.842      860.229
09/30/2014  05:35:00       54.495       35.789       17.037       33.932       47.809       36.331     1151.396     2285.654     1319.925        0.465        0.238       65.196       26.842        0.170      338.971       11.985      860.175
09/30/2014  05:36:00      135.829       71.134       11.265       15.084       18.574       20.162      227.514      345.008      406.503        1.231        0.049      153.329        9.240        0.004      339.066       12.144      860.158
09/30/2014  05:37:00       54.922       32.819      -11.405      108.299       55.493       28.234    11728.739     3079.519      797.164        0.991        0.780       63.981       29.668        0.215      340.047       13.799      860.148
09/30/2014  05:38:00      -96.249       40.805      -23.166       33.080       42.448       19.064     1094.257     1801.851      363.447        0.736        0.163      104.542       21.144        0.041      339.032       12.088      860.163
09/30/2014  05:39:00      -53.026      -37.324       -6.044       29.159       15.566       15.633      850.220      242.307      244.386        0.279        0.067       64.845       13.568        0.044      338.837       11.759      860.171
09/30/2014  05:40:00     -134.912      -76.343        0.697       65.551       58.669       43.672     4296.950     3442.087     1907.274        1.684        0.482      155.014       25.457        0.027      338.659       11.459      860.182
09/30/2014  05:41:00     -136.120      -73.469      -11.178       64.325       40.594       21.705     4137.670     1647.844      471.086        1.515        0.313      154.682       19.125        0.015      338.714       11.552      860.203
09/30/2014  05:42:00      -17.911      -61.081        2.123       18.064       26.437       14.908      326.293      698.928      222.237        0.265        0.062       63.653       13.099        0.042      339.127       12.248      860.176
09/30/2014  05:43:00      -19.101      -69.750        2.849       32.897       19.203       11.974     1082.239      368.756      143.374        0.342        0.080       72.318       13.587        0.035      339.436       12.768      860.154
09/30/2014  05:44:00     -127.349       42.817      -11.202       81.782       45.612       38.581     6688.338     2080.476     1488.517        1.422        0.513      134.354       44.159        0.108      338.802       11.700      860.189
09/30/2014  05:45:00     -123.658      -85.962      -20.040       83.236       57.331       21.668     6928.260     3286.865      469.508        1.688        0.534      150.601       22.993        0.023      338.720       11.562      860.184
09/30/2014  05:46:00      -25.730      -85.511       -0.874       46.092       63.354       26.014     2124.481     4013.787      676.704        0.739        0.341       89.299       30.358        0.116      338.898       11.862      860.142
09/30/2014  05:47:00      -80.206      -61.058        5.966       63.690       45.870       35.857     4056.420     2104.021     1285.740        0.882        0.372      100.802       35.262        0.122      338.676       11.489      860.149
09/30/2014  05:48:00      -54.507     -100.803       -1.985       51.446       34.739       32.850     2646.651     1206.778     1079.112        0.903        0.247      114.596       26.465        0.053      338.484       11.167      860.165
09/30/2014  05:49:00      -95.701      -96.934        3.954       54.008       69.812       33.460     2916.862     4873.714     1119.548        1.374        0.446      136.216       35.151        0.067      338.332       10.911      860.179
09/30/2014  05:50:00     -114.594     -125.109      -14.647       45.661       53.821       27.710     2084.939     2896.698      767.844        1.737        0.287      169.659       18.126        0.011      338.169       10.637      860.160
09/30/2014  05:51:00     -138.367      -48.213       -7.602       57.720       50.876       28.689     3331.617     2588.329      823.056        1.413        0.337      146.526       29.240        0.040      338.253       10.778      860.164
09/30/2014  05:52:00     -113.838      -43.468        0.927       59.140       39.454       24.219     3497.499     1556.632      586.542        1.024        0.282      121.854       27.001        0.049      338.259       10.789      860.174
09/30/2014  05:53:00      -89.750      -14.275      -10.214       45.133       33.131       23.111     2037.027     1097.654      534.130        0.602        0.183       90.878       27.830        0.094      338.320       10.890      860.179
09/30/2014  05:54:00      -75.968      -13.197       -5.984       26.298       24.301       20.709      691.590      590.550      428.845        0.385        0.086       77.106       15.981        0.043      338.163       10.628      860.183
09/30/2014  05:55:00     -108.465      -51.179       -5.794       26.705       27.158       16.481      713.166      737.543      271.610        0.807        0.086      119.933       10.300        0.007      338.184       10.663      860.164
09/30/2014  05:56:00      -95.711      -97.817       -4.886       52.563       42.766       30.274     2762.902     1828.935      916.513        1.213        0.275      136.853       26.753        0.038      338.209       10.706      860.164
09/30/2014  05:57:00     -157.758      -67.828       -5.472       39.214       46.651       29.301     1537.756     2176.281      858.571        1.704        0.229      171.721       24.181        0.020      338.294       10.848      860.190
09/30/2014  05:58:00     -149.981        2.053      -12.399       75.270       39.236       37.592     5665.590     1539.489     1413.188        1.563        0.431      149.995       39.033        0.068      338.056       10.447      860.224
09/30/2014  05:59:00      -42.839      -54.544        6.379       65.476       43.147       26.311     4287.169     1861.679      692.268        0.584        0.342       69.356       23.383        0.114      338.130       10.573      860.200
09/30/2014  06:00:00     -117.095      -40.853        0.598       69.800       50.378       28.779     4872.001     2537.920      828.250        1.181        0.412      124.017       30.172        0.059      338.222       10.727      860.181
09/30/2014  06:01:00     -107.364        6.639       -8.357       41.799       23.547       17.874     1747.119      554.441      319.493        0.713        0.131      107.569       16.135        0.022      338.090       10.505      860.201
09/30/2014  06:02:00     -120.590      -19.490      -12.411       47.342       36.758       23.995     2241.223     1351.143      575.765        0.962        0.208      122.155       23.297        0.036      338.054       10.446      860.188
09/30/2014  06:03:00      -18.927      -51.284       18.500       66.704       37.829       33.191     4449.487     1430.999     1101.616        0.516        0.349       54.665       39.008        0.509      338.244       10.764      860.159
09/30/2014  06:04:00        2.727        7.820       13.811       39.277       30.066       36.887     1542.675      903.939     1360.649        0.203        0.190        8.281       24.038        8.425      338.406       11.036      860.160
09/30/2014  06:05:00       22.320       30.196       -3.785       17.226       35.757       13.775      296.724     1278.572      189.741        0.159        0.088       37.549        8.493        0.051      338.296       10.850      860.178
09/30/2014  06:06:00       37.466      -92.334      -11.679       31.557       39.564       18.458      995.831     1565.295      340.693        0.648        0.145       99.646        9.675        0.009      338.418       11.055      860.173
09/30/2014  06:07:00       -6.060      -61.519      -25.408       25.734       29.750       14.112      662.242      885.044      199.138        0.311        0.087       61.816        8.493        0.019      338.919       11.896      860.195
09/30/2014  06:08:00       11.112      -60.479       -8.009       30.561       24.820       24.644      933.962      616.057      607.318        0.300        0.108       61.492       14.060        0.052      338.764       11.637      860.230
09/30/2014  06:09:00      -18.124       15.114        3.679       17.098       22.313       10.335      292.343      497.863      106.803        0.073        0.045       23.599        5.166        0.048      338.643       11.431      860.267
09/30/2014  06:10:00       39.036       32.876       17.039       20.914       20.967       16.734      437.398      439.634      280.020        0.203        0.058       51.036       12.522        0.060      338.348       10.938      860.288
09/30/2014  06:11:00       57.729       28.722        6.371       16.782       20.409       13.054      281.620      416.528      170.397        0.253        0.043       64.479       10.296        0.025      338.125       10.564      860.283
09/30/2014  06:12:00       46.136       21.561       19.716       28.303       35.604       26.958      801.034     1267.670      726.712        0.289        0.140       50.926       16.080        0.100      338.187       10.668      860.272
09/30/2014  06:13:00        8.704      -29.269        6.003       22.865       30.043       23.607      522.829      902.573      557.312        0.148        0.099       30.536       19.231        0.397      338.261       10.792      860.285
09/30/2014  06:14:00      -33.785      -18.350      -11.972       17.433       13.816       13.936      303.901      190.872      194.200        0.116        0.034       38.447        8.137        0.045      338.428       11.071      860.300
09/30/2014  06:15:00      -32.546      -10.148       -0.863       10.561       11.479        7.420      111.539      131.761       55.053        0.073        0.015       34.091        3.318        0.009      338.497       11.187      860.321
09/30/2014  06:16:00      -23.102        8.096       -1.320       20.599       11.433       10.452      424.334      130.709      109.235        0.063        0.033       24.480       13.022        0.283      338.278       10.821      860.328
09/30/2014  06:17:00      -21.235       20.678        6.553       21.551        6.718        9.133      464.438       45.127       83.413        0.076        0.030       29.640       11.661        0.155      338.283       10.830      860.333
09/30/2014  06:18:00       26.947       29.148        0.975        9.716       10.847        9.014       94.396      117.647       81.255        0.093        0.015       39.696        5.688        0.021      338.437       11.088      860.335
09/30/2014  06:19:00       36.860       46.853       -4.860       12.271       14.391       12.694      150.587      207.105      161.146        0.205        0.026       59.614       11.029        0.034      338.291       10.842      860.346
09/30/2014  06:20:00       18.108       70.253       -7.133       16.233       22.821       11.593      263.526      520.799      134.394        0.312        0.046       72.550       11.569        0.025      338.285       10.834      860.359
09/30/2014  06:21:00      -37.695       37.119      -10.104       29.239       30.024        6.787      854.898      901.421       46.059        0.235        0.090       52.903        8.922        0.028      338.386       11.002      860.371
09/30/2014  06:22:00      -55.936        6.793       -7.511       12.678       13.554        8.673      160.725      183.699       75.213        0.183        0.021       56.347        4.032        0.005      338.126       10.567      860.385
09/30/2014  06:23:00      -45.654       12.400      -11.190       14.219       13.482        9.234      202.168      181.778       85.264        0.142        0.023       47.308        9.529        0.041      338.239       10.756      860.384
09/30/2014  06:24:00      -27.329       33.865       -6.558       11.640       12.921        9.194      135.496      166.941       84.524        0.116        0.019       43.517        7.964        0.033      338.582       11.331      860.378
09/30/2014  06:25:00       -0.870       21.212       -0.289       10.147       14.068        8.533      102.965      197.910       72.805        0.041        0.019       21.230        5.010        0.056      338.685       11.504      860.369
09/30/2014  06:26:00      -13.755      -19.577       -1.470        9.041       14.860        9.157       81.739      220.830       83.850        0.048        0.019       23.926        6.545        0.075      338.676       11.489      860.370
09/30/2014  06:27:00      -17.693      -35.176      -13.674       17.694       13.897        8.254      313.076      193.126       68.127        0.116        0.029       39.375        5.153        0.017      338.588       11.341      860.369
09/30/2014  06:28:00      -62.564      -36.239       -4.112       22.318       18.183       15.860      498.106      330.626      251.535        0.316        0.054       72.302        8.616        0.014      338.257       10.785      860.378
09/30/2014  06:29:00      -50.362      -60.811        1.730       30.159       28.543       19.071      909.583      814.708      363.701        0.416        0.104       78.958       19.198        0.059      338.403       11.032      860.385
09/30/2014  06:30:00      -44.667      -58.551       -2.066       18.506       23.468       17.080      342.458      550.728      291.729        0.331        0.059       73.643       10.287        0.020      338.799       11.697      860.393
09/30/2014  06:31:00      -17.809      -14.447        0.924       35.792       17.383       24.408     1281.069      302.154      595.764        0.135        0.109       22.932       20.429        0.794      338.793       11.684      860.400
09/30/2014  06:32:00      -39.669      -22.734        4.574       27.939       24.907       14.706      780.590      620.352      216.263        0.186        0.081       45.722       11.282        0.061      338.396       11.020      860.415
09/30/2014  06:33:00      -24.882        3.674        3.262       17.668       17.886       14.309      312.173      319.898      204.734        0.074        0.042       25.152       14.992        0.355      338.160       10.623      860.433
09/30/2014  06:34:00      -24.573        1.908       -3.332       14.874       19.597       14.697      221.248      384.047      216.007        0.072        0.041       24.647        9.528        0.149      338.061       10.456      860.436
09/30/2014  06:35:00      -19.837        1.520       -4.159       13.857       22.495        8.013      192.024      506.041       64.207        0.059        0.038       19.895        6.829        0.118      338.229       10.740      860.453
09/30/2014  06:36:00      -34.739      -25.875       -6.971       17.032       11.398        9.773      290.090      129.921       95.515        0.122        0.026       43.317        6.758        0.024      338.270       10.807      860.483
09/30/2014  06:37:00       -8.472      -44.721       -2.213       13.447       18.377       12.048      180.818      337.717      145.146        0.137        0.033       45.516        6.850        0.023      338.310       10.874      860.512
09/30/2014  06:38:00       -0.449      -37.844        2.349       23.038       18.209       15.203      530.736      331.563      231.130        0.127        0.055       37.847        9.134        0.058      338.402       11.029      860.503
09/30/2014  06:39:00        7.424       -6.538       12.995       10.165       13.229       11.283      103.330      175.015      127.301        0.034        0.020        9.893        6.560        0.440      338.339       10.923      860.498
09/30/2014  06:40:00      -11.369       10.244       -8.352       20.985       12.301       13.391      440.353      151.306      179.331        0.054        0.039       15.304       13.033        0.725      338.477       11.153      860.499
09/30/2014  06:41:00       -8.681       13.171        2.828       19.340       12.309       15.151      374.041      151.510      229.543        0.051        0.038       15.774       12.414        0.619      338.452       11.113      860.496
09/30/2014  06:42:00        7.319       15.527       14.296       11.577       15.836        8.594      134.023      250.767       73.861        0.048        0.023       17.166        8.186        0.227      338.364       10.965      860.500
09/30/2014  06:43:00       37.851       19.024       -3.570       19.809       14.566       14.700      392.388      212.169      216.097        0.131        0.041       42.363        8.444        0.040      338.371       10.976      860.516
09/30/2014  06:44:00       46.305       46.768       15.859       33.464       21.277       22.717     1119.853      452.706      516.065        0.334        0.104       65.813       11.111        0.029      338.329       10.906      860.545
09/30/2014  06:45:00       98.890       66.360       -0.164       25.772       27.288       25.981      664.186      744.650      675.023        0.813        0.104      119.092       10.412        0.008      337.848       10.098      860.585
09/30/2014  06:46:00       90.712       64.106        5.235       30.086       31.439       19.604      905.151      988.438      384.300        0.732        0.114      111.077       13.243        0.014      337.809       10.035      860.621
09/30/2014  06:47:00       94.288       38.108        8.964       40.418       31.608       24.057     1633.625      999.090      578.748        0.682        0.161      101.698       18.944        0.035      337.852       10.106      860.649
09/30/2014  06:48:00      114.855       43.382        7.624       29.090       24.910       25.099      846.230      620.527      629.951        0.861        0.105      122.775       12.733        0.011      337.821       10.054      860.669
09/30/2014  06:49:00       66.202       27.926        0.981       37.044       23.477       25.055     1372.222      551.165      627.743        0.386        0.128       71.850       20.795        0.084      337.850       10.103      860.685
09/30/2014  06:50:00       28.802       51.115      -10.467       17.789       22.741       10.024      316.461      517.159      100.482        0.224        0.047       58.671       11.761        0.040      337.934       10.244      860.712
09/30/2014  06:51:00        7.010       90.237      -17.705       13.319       12.549        8.285      177.396      157.469       68.649        0.445        0.020       90.509        3.997        0.002      338.139       10.586      860.736
09/30/2014  06:52:00        6.777      110.985      -15.753        7.461       12.098        5.434       55.672      146.361       29.527        0.642        0.012      111.192        2.685        0.001      338.233       10.744      860.748
09/30/2014  06:53:00       -3.825      132.162      -20.879        8.846       15.869        6.613       78.260      251.837       43.727        0.915        0.019      132.218        5.903        0.002      338.220       10.723      860.756
09/30/2014  06:54:00      -14.112      100.141      -15.765       15.231       52.716       12.058      231.978     2778.969      145.407        0.682        0.158      101.130       18.333        0.033      338.340       10.925      860.743
09/30/2014  06:55:00      -23.085        4.161       -3.235       19.129       12.184        9.368      365.936      148.448       87.756        0.058        0.030       23.457        8.303        0.125      338.164       10.628      860.738
09/30/2014  06:56:00       -2.275        1.122       -3.403       22.389        9.083        7.834      501.247       82.501       61.378        0.033        0.032        2.537        5.672        4.998      338.353       10.948      860.727
09/30/2014  06:57:00       37.828      -29.552       -8.654       15.860       19.659       10.533      251.540      386.471      110.953        0.156        0.037       48.003        9.030        0.035      338.554       11.283      860.728
09/30/2014  06:58:00      -35.985      -36.069       -4.807       43.743       14.930       10.192     1913.448      222.893      103.883        0.243        0.112       50.950        9.003        0.031      338.521       11.229      860.750
09/30/2014  06:59:00      -71.326       -4.578       -9.542       14.504       10.696       11.112      210.368      114.399      123.467        0.282        0.022       71.473       10.374        0.021      338.230       10.740      860.780
09/30/2014  07:00:00      -59.110      -36.045       -5.196       20.699       12.624       12.024      428.430      159.358      144.570        0.278        0.037       69.234        6.278        0.008      338.308       10.872      860.789
09/30/2014  07:01:00      -54.419       -1.488        3.164       28.999       37.320       15.638      840.934     1392.776      244.541        0.273        0.124       54.440       16.207        0.089      338.199       10.688      860.809
09/30/2014  07:02:00      -43.838       -1.985       -8.024       18.704        6.633        7.737      349.842       43.993       59.861        0.122        0.023       43.882        5.771        0.017      338.254       10.781      860.834
09/30/2014  07:03:00      -38.498      -20.325      -11.453       14.113       13.225        5.778      199.163      174.901       33.384        0.122        0.020       43.534        7.498        0.030      338.387       11.001      860.842
09/30/2014  07:04:00     -108.892      -21.242       -8.764       26.042       23.452       13.326      678.189      550.011      177.576        0.690        0.070      110.945       13.466        0.015      338.229       10.737      860.838
09/30/2014  07:05:00      -82.901       20.112      -10.597       33.625       26.061       16.042     1130.647      679.167      257.344        0.473        0.103       85.305       13.413        0.025      337.904       10.191      860.837
09/30/2014  07:06:00      -52.574       56.869      -12.440       29.071       19.444       13.942      845.144      378.088      194.366        0.379        0.071       77.448       14.550        0.035      338.140       10.589      860.832
09/30/2014  07:07:00      -80.025       70.341      -20.178       27.007       25.189       16.258      729.393      634.488      264.323        0.669        0.081      106.545       13.803        0.017      338.273       10.812      860.833
09/30/2014  07:08:00      -42.838       21.935       -3.523       29.885       26.015       15.173      893.123      676.777      230.214        0.206        0.090       48.127       17.925        0.139      338.322       10.896      860.810
09/30/2014  07:09:00       11.649       17.310       -0.025       27.040       16.663       13.304      731.156      277.651      176.991        0.081        0.059       20.865       10.528        0.255      338.406       11.036      860.801
09/30/2014  07:10:00        2.807        5.680        3.771       15.856       26.884       17.096      251.424      722.772      292.268        0.066        0.063        6.336        8.710        1.890      338.391       11.012      860.819
09/30/2014  07:11:00      -53.668       -5.639       -4.710       18.839       13.699        9.616      354.908      187.654       92.459        0.178        0.032       53.963       10.581        0.038      338.227       10.736      860.874
09/30/2014  07:12:00      -62.716        2.758       -5.481       12.869       12.664        8.633      165.616      160.383       74.527        0.219        0.020       62.777        6.355        0.010      338.122       10.559      860.896
09/30/2014  07:13:00       -5.504      -28.789       -9.709       16.587       17.299        5.588      275.144      299.258       31.225        0.078        0.030       29.310        2.299        0.006      338.388       11.005      860.899
09/30/2014  07:14:00       14.347      -26.709        1.240       13.965       14.574       12.209      195.035      212.408      149.057        0.074        0.028       30.318        8.276        0.075      338.608       11.374      860.914
09/30/2014  07:15:00       37.314      -70.723       -6.444       23.080       20.932       14.061      532.683      438.161      197.719        0.380        0.058       79.963        9.879        0.015      338.657       11.458      860.934
09/30/2014  07:16:00        3.147      -11.613       18.754       13.444       21.578       15.469      180.733      465.597      239.305        0.069        0.044       12.031       10.497        0.761      338.600       11.361      860.954
09/30/2014  07:17:00        5.092      -54.780        7.216       34.850       39.838       34.983     1214.491     1587.084     1223.795        0.355        0.201       55.017       22.100        0.161      338.431       11.078      860.971
09/30/2014  07:18:00       27.601      -27.486       18.325       39.145       34.711       35.558     1532.325     1204.828     1264.354        0.293        0.200       38.953       20.168        0.268      338.291       10.844      860.981
09/30/2014  07:19:00       47.765      -36.277        5.134       41.665       41.443       38.756     1735.942     1717.495     1502.031        0.429        0.248       59.979       30.739        0.263      338.241       10.758      860.993
09/30/2014  07:20:00       73.767      -87.740       -6.371       28.251       36.705       25.635      798.098     1347.245      657.137        0.799        0.140      114.630       19.493        0.029      338.316       10.883      861.019
09/30/2014  07:21:00       37.010      -53.108       -0.274       34.697       41.138       38.418     1203.884     1692.372     1475.952        0.428        0.219       64.731       22.967        0.126      338.471       11.145      861.042
09/30/2014  07:22:00        7.980      -12.767       18.816       26.878       37.207       23.953      722.442     1384.326      573.724        0.163        0.134       15.055       13.093        0.756      338.585       11.336      861.055
09/30/2014  07:23:00        7.835       -6.041       12.153       21.980       41.665       23.417      483.116     1735.957      548.370        0.151        0.138        9.893        9.539        0.930      338.616       11.389      861.056
09/30/2014  07:24:00       17.496       29.115       -0.105       21.988       14.836       12.603      483.457      220.107      158.841        0.101        0.043       33.967       11.227        0.109      338.508       11.208      861.069
09/30/2014  07:25:00       29.228       18.286        8.432       28.975       22.386       17.646      839.550      501.144      311.392        0.146        0.083       34.477       14.149        0.168      338.621       11.398      861.070
09/30/2014  07:26:00       45.390       29.918       23.317       31.625       22.396       16.242     1000.152      501.565      263.792        0.263        0.088       54.363        7.041        0.017      338.671       11.480      861.059
09/30/2014  07:27:00       69.240       32.494       10.527       31.293       23.235       17.716      979.230      539.865      313.842        0.390        0.092       76.485       14.859        0.038      338.659       11.461      861.076
09/30/2014  07:28:00       47.992       35.562       -3.519       23.819       36.281       21.570      567.341     1316.329      465.254        0.296        0.117       59.732       13.379        0.050      338.802       11.701      861.089
09/30/2014  07:29:00       14.406      101.393      -14.388       19.990       24.493       10.306      399.586      599.930      106.222        0.590        0.055      102.412       10.170        0.010      338.743       11.602      861.105
09/30/2014  07:30:00       36.266       78.556       -5.964       24.126       35.825       21.934      582.062     1283.414      481.121        0.493        0.117       86.523       18.986        0.048      338.761       11.631      861.116
09/30/2014  07:31:00       56.408       64.059       -6.619       26.932       27.840       22.409      725.329      775.063      502.157        0.467        0.100       85.355       20.799        0.059      338.730       11.580      861.104
09/30/2014  07:32:00       25.949       68.617       -5.328       24.814       49.012       23.425      615.733     2402.209      548.739        0.449        0.178       73.359       29.395        0.161      338.751       11.615      861.101
09/30/2014  07:33:00        4.034      125.619      -15.854       28.250       24.014       17.571      798.054      576.667      308.729        0.887        0.084      125.684       10.371        0.007      338.677       11.490      861.117
09/30/2014  07:34:00      -13.887      121.594      -15.954       24.293       27.676       15.407      590.131      765.943      237.375        0.841        0.080      122.385        6.956        0.003      338.754       11.620      861.127
09/30/2014  07:35:00      -26.558       65.702       -1.586       22.581       28.087       22.098      509.894      788.898      488.312        0.341        0.089       70.867       17.406        0.060      338.853       11.787      861.106
09/30/2014  07:36:00      -58.829       56.031      -13.445       20.080       25.021       16.912      403.222      626.072      286.011        0.405        0.066       81.242       15.052        0.034      338.830       11.747      861.124
09/30/2014  07:37:00      -59.686       80.556      -14.616       24.777       26.852       16.319      613.884      721.051      266.322        0.593        0.080      100.258       11.353        0.013      338.892       11.852      861.126
09/30/2014  07:38:00      -51.339       -5.968      -15.733       19.271       21.544       12.883      371.390      464.140      165.962        0.196        0.050       51.685       11.938        0.053      338.815       11.724      861.133
09/30/2014  07:39:00      -25.111        7.001        6.263       21.688       15.243       17.242      470.390      232.352      297.277        0.086        0.050       26.069       16.257        0.389      338.946       11.943      861.127
09/30/2014  07:40:00      -29.081       23.460        3.286       15.315       13.316       12.309      234.535      177.311      151.511        0.099        0.028       37.364        9.054        0.059      338.947       11.945      861.133
09/30/2014  07:41:00      -25.427       37.717       -1.927       28.140       37.490       16.659      791.856     1405.534      277.518        0.227        0.124       45.487       17.531        0.149      339.057       12.130      861.149
09/30/2014  07:42:00      -28.952       82.782       -2.896       34.657       61.214       25.292     1201.075     3747.125      639.686        0.664        0.279       87.698        4.046        0.002      339.073       12.156      861.160
09/30/2014  07:43:00      -44.575       -0.959       -4.541       19.537       15.483        8.527      381.687      239.726       72.713        0.135        0.035       44.585        4.618        0.011      338.915       11.890      861.161
09/30/2014  07:44:00      -52.131        5.766       -8.628       17.643       21.157       15.067      311.271      447.608      227.018        0.191        0.049       52.449       13.452        0.066      339.023       12.073      861.172
09/30/2014  07:45:00      -62.588       36.685       -8.737       27.388       46.146       17.188      750.129     2129.489      295.422        0.426        0.159       72.547       18.548        0.065      339.106       12.211      861.173
09/30/2014  07:46:00      -56.199       72.246       -7.883       30.975       23.727       20.573      959.461      562.975      423.242        0.519        0.097       91.530       20.290        0.049      339.175       12.328      861.179
09/30/2014  07:47:00      -56.090       -6.258       -5.116       19.236       23.949       12.910      370.027      573.533      166.677        0.216        0.056       56.438        7.820        0.019      339.056       12.128      861.189
09/30/2014  07:48:00      -42.592      -43.075        2.788       32.715       25.689       17.302     1070.280      659.904      299.364        0.285        0.101       60.576       14.268        0.055      339.024       12.074      861.189
09/30/2014  07:49:00      -60.577      -54.955        4.243       58.067       55.109       32.274     3371.767     3037.017     1041.604        0.708        0.373       81.790       32.457        0.157      338.982       12.003      861.205
09/30/2014  07:50:00     -135.866      -85.166        3.402       68.313       60.802       32.376     4666.667     3696.937     1048.182        1.757        0.471      160.352       38.428        0.057      338.905       11.873      861.225
09/30/2014  07:51:00     -126.630      -98.568       -0.601       48.595       48.440       30.762     2361.493     2346.468      946.323        1.570        0.283      160.470       25.861        0.026      338.868       11.811      861.251
09/30/2014  07:52:00      -87.478      -66.812        6.224       49.526       43.050       30.354     2452.852     1853.328      921.360        0.869        0.261      110.074       23.725        0.046      338.943       11.938      861.276
09/30/2014  07:53:00     -105.141      -77.217       -1.190       36.800       49.676       20.424     1354.274     2467.746      417.124        1.063        0.212      130.449       19.093        0.021      338.952       11.953      861.287
09/30/2014  07:54:00     -108.194      -90.023       -9.762       38.971       34.530       26.025     1518.719     1192.329      677.284        1.165        0.169      140.748       20.100        0.020      338.977       11.996      861.298
09/30/2014  07:55:00      -87.888      -55.974        1.215       40.397       28.367       18.641     1631.895      804.669      347.499        0.682        0.139      104.198        9.807        0.009      339.017       12.063      861.312
09/30/2014  07:56:00      -70.511      -78.974        4.789       41.497       45.908       23.614     1721.974     2107.501      557.634        0.781        0.219      105.872       20.195        0.036      339.033       12.089      861.321
09/30/2014  07:57:00      -41.080      -94.908        8.275       36.760       53.098       25.157     1351.315     2819.438      632.865        0.778        0.240      103.417       15.186        0.022      339.043       12.107      861.326
09/30/2014  07:58:00      -88.134     -103.793        2.354       40.814       69.731       31.167     1665.808     4862.365      971.354        1.302        0.375      136.164       31.997        0.055      338.950       11.950      861.336
09/30/2014  07:59:00      -97.477      -78.828       -0.490       46.796       49.271       26.872     2189.833     2427.660      722.091        1.053        0.267      125.362       26.473        0.045      338.928       11.914      861.339
09/30/2014  08:00:00      -84.285      -28.943       -5.643       52.239       30.110       23.020     2728.905      906.627      529.921        0.607        0.208       89.116       17.987        0.041      339.010       12.051      861.334
09/30/2014  08:01:00      -13.341        1.243       12.137       15.351       16.560       17.367      235.666      274.249      301.607        0.057        0.041       13.399       14.473        1.167      339.343       12.612      861.327
09/30/2014  08:02:00      -47.659      -18.520        2.240       25.695       15.563       17.614      660.209      242.205      310.245        0.192        0.061       51.131       13.223        0.067      339.177       12.332      861.306
09/30/2014  08:03:00      -41.893      -34.195       -1.093       21.769       30.117       12.783      473.869      907.044      163.395        0.223        0.077       54.077       10.592        0.038      339.065       12.143      861.295
09/30/2014  08:04:00      -24.195      -63.461        1.449       21.085       29.229       14.853      444.597      854.322      220.623        0.307        0.076       67.917       10.678        0.025      339.107       12.212      861.304
09/30/2014  08:05:00      -61.329      -21.774       -2.996       23.440       25.187       19.704      549.421      634.384      388.258        0.291        0.079       65.080        9.774        0.023      339.057       12.130      861.308
09/30/2014  08:06:00      -89.878      -58.128      -10.409       26.331       25.804       13.188      693.311      665.870      173.932        0.655        0.077      107.037        9.226        0.007      339.025       12.077      861.331
09/30/2014  08:07:00     -100.650      -69.748       -1.217       35.103       23.379       19.368     1232.232      546.580      375.129        0.857        0.108      122.455       11.743        0.009      339.033       12.089      861.357
09/30/2014  08:08:00      -68.497      -58.979        8.172       29.915       39.084       21.429      894.913     1527.533      459.194        0.556        0.144       90.390       22.686        0.063      339.072       12.156      861.377
09/30/2014  08:09:00      -49.926      -61.200       -0.426       31.261       28.705       17.970      977.241      823.983      322.917        0.418        0.106       78.981       14.855        0.035      339.118       12.231      861.382
09/30/2014  08:10:00      -78.178       43.473        9.461       42.053       27.935       22.826     1768.456      780.341      521.027        0.558        0.153       89.452       16.684        0.035      339.213       12.392      861.368
09/30/2014  08:11:00      -45.198      -10.266        5.744       49.533       35.693       14.012     2453.476     1273.965      196.340        0.305        0.196       46.350       13.207        0.081      339.252       12.459      861.351
09/30/2014  08:12:00      -17.491      -45.386       -5.209       12.617       15.370       10.591      159.191      236.244      112.172        0.145        0.025       48.639        8.553        0.031      339.193       12.360      861.344
09/30/2014  08:13:00        2.219       -6.241        1.937       14.606       32.345       15.655      213.325     1046.167      245.073        0.078        0.075        6.624       16.828        6.455      339.544       12.951      861.344
09/30/2014  08:14:00      -25.537       35.608       -4.084       25.594       19.260       14.595      655.062      370.935      213.025        0.159        0.062       43.818        5.265        0.014      339.491       12.860      861.359
09/30/2014  08:15:00      -14.894       46.983       -4.203       21.535       24.179       11.742      463.754      584.616      137.870        0.182        0.059       49.287        5.878        0.014      339.494       12.865      861.365
09/30/2014  08:16:00      -45.051      -23.432       -4.416       17.099       18.188       13.141      292.364      330.803      172.691        0.170        0.040       50.780        8.687        0.029      339.330       12.589      861.369
09/30/2014  08:17:00      -60.386      -22.494       -6.625       16.174       22.896        8.695      261.610      524.245       75.600        0.253        0.043       64.440        6.756        0.011      339.357       12.634      861.366
09/30/2014  08:18:00     -122.220      -44.674       -8.765       46.461       18.136       21.436     2158.632      328.914      459.512        0.998        0.147      130.128       26.167        0.040      339.397       12.702      861.371
09/30/2014  08:19:00     -123.140      -16.979      -11.168       29.049       18.809       17.322      843.854      353.769      300.053        0.854        0.075      124.305       12.862        0.011      339.361       12.642      861.374
09/30/2014  08:20:00      -77.504      -53.537       -7.027       43.996       18.822       18.698     1935.629      354.260      349.597        0.578        0.132       94.198       13.410        0.020      339.448       12.789      861.377
09/30/2014  08:21:00      -25.930      -12.460       -1.935       22.023       28.262       19.209      485.015      798.725      368.984        0.124        0.083       28.769       13.566        0.222      339.588       13.025      861.378
09/30/2014  08:22:00      -74.250        6.698      -14.405       31.620       21.061       18.334      999.845      443.561      336.121        0.377        0.089       74.551       16.677        0.050      339.480       12.842      861.385
09/30/2014  08:23:00      -55.803       14.508       -9.539       20.330       11.950       16.826      413.297      142.807      283.106        0.213        0.042       57.658       13.452        0.054      339.447       12.786      861.386
09/30/2014  08:24:00      -53.541        2.250       -6.385       24.881       18.175       20.259      619.060      330.321      410.445        0.214        0.068       53.588       11.708        0.048      339.555       12.970      861.387
09/30/2014  08:25:00      -76.862      -31.818       -5.704       40.922       33.231       14.177     1674.643     1104.315      200.999        0.497        0.149       83.187       12.680        0.023      339.495       12.867      861.388
09/30/2014  08:26:00      -34.120       -9.413       15.921       31.285       24.057       18.922      978.753      578.745      358.050        0.171        0.096       35.394       19.851        0.315      339.638       13.109      861.380
09/30/2014  08:27:00      -14.846       -6.408        3.340       11.484       16.916       10.831      131.888      286.154      117.300        0.040        0.027       16.170        7.666        0.225      339.683       13.183      861.372
09/30/2014  08:28:00      -23.581        5.529       12.606       15.551       16.673       15.685      241.827      277.975      246.034        0.076        0.038       24.220        9.636        0.158      339.900       13.551      861.361
09/30/2014  08:29:00      -34.417      -51.942       -0.026       17.806       18.473       18.277      317.047      341.241      334.046        0.244        0.050       62.310        8.883        0.020      339.720       13.247      861.363
09/30/2014  08:30:00      -19.827       -3.947        0.740       11.450       19.599       15.889      131.101      384.109      252.465        0.059        0.038       20.216       11.184        0.306      339.899       13.549      861.372
09/30/2014  08:31:00      -11.054      -22.569       -0.124       19.193       21.132       13.291      368.385      446.575      176.645        0.081        0.050       25.130        0.968        0.001      339.827       13.427      861.386
09/30/2014  08:32:00      -10.258       -5.227       10.084       15.909       15.820       17.039      253.094      250.286      290.336        0.051        0.040       11.513       14.204        1.522      340.142       13.959      861.390
09/30/2014  08:33:00      -26.058       10.162        4.435       16.214       19.900       17.920      262.894      396.007      321.117        0.089        0.049       27.969       14.045        0.252      340.005       13.727      861.387
09/30/2014  08:34:00      -34.131      -12.313       19.201       23.255       19.206       14.824      540.808      368.887      219.748        0.141        0.056       36.284       10.693        0.087      339.953       13.639      861.373
09/30/2014  08:35:00        6.642      -15.112       26.551       26.718       34.475       28.642      713.835     1188.531      820.384        0.185        0.136       16.508       24.969        2.288      340.412       14.415      861.363
09/30/2014  08:36:00        6.597      -75.982       -9.637       36.472       22.886       26.362     1330.178      523.773      694.966        0.423        0.127       76.268        8.045        0.011      339.974       13.675      861.356
09/30/2014  08:37:00      -44.482      -21.204      -10.519       12.237       20.356       14.316      149.740      414.385      204.960        0.165        0.038       49.277       10.900        0.049      339.846       13.460      861.349
09/30/2014  08:38:00      -24.548      -26.825       -3.898       20.515       26.447       13.676      420.878      699.436      187.045        0.132        0.065       36.362       12.303        0.114      339.883       13.523      861.354
09/30/2014  08:39:00      -58.648      -50.334        2.811       21.741       21.411       16.384      472.678      458.452      268.448        0.359        0.060       77.286       16.981        0.048      339.770       13.330      861.352
09/30/2014  08:40:00      -53.084      -54.622        0.179       28.502       24.830       14.551      812.349      616.522      211.719        0.372        0.082       76.168       16.954        0.050      339.759       13.312      861.348
09/30/2014  08:41:00      -75.519      -65.572      -11.258       23.390       19.964       16.961      547.103      398.566      287.691        0.568        0.062      100.014       15.045        0.023      339.737       13.275      861.347
09/30/2014  08:42:00      -52.756      -43.167       -1.635       24.944       25.357       16.967      622.194      642.999      287.869        0.310        0.078       68.166       12.328        0.033      339.768       13.327      861.338
09/30/2014  08:43:00      -41.173      -32.112       -1.803       26.861       30.067       17.553      721.516      904.025      308.112        0.233        0.097       52.215       18.899        0.131      339.954       13.641      861.333
09/30/2014  08:44:00      -47.522      -61.723       -7.150       18.302       22.821       13.063      334.955      520.794      170.632        0.357        0.051       77.898       12.204        0.025      339.807       13.394      861.336
09/30/2014  08:45:00      -49.740      -30.537       -0.332       13.276       20.817       11.182      176.262      433.362      125.048        0.207        0.037       58.366        7.293        0.016      339.850       13.465      861.341
09/30/2014  08:46:00      -37.629      -26.723       -1.502       34.735       18.933       17.918     1206.505      358.471      321.065        0.201        0.094       46.153       13.079        0.080      340.005       13.728      861.335
09/30/2014  08:47:00      -32.769      -48.633       -2.305       28.751       24.594       17.307      826.601      604.842      299.537        0.259        0.087       58.643       17.168        0.086      339.982       13.689      861.330
09/30/2014  08:48:00      -38.971      -53.990       -4.330       25.417       31.571       16.524      646.018      996.737      273.029        0.318        0.096       66.585       14.330        0.046      340.014       13.742      861.315
09/30/2014  08:49:00      -55.429      -29.790        2.953       34.233       27.942       19.668     1171.872      780.766      386.842        0.315        0.117       62.927       22.702        0.130      340.050       13.804      861.308
09/30/2014  08:50:00      -34.788      -10.779      -13.421       19.681       11.122        7.378      387.351      123.696       54.435        0.104        0.028       36.420        8.809        0.059      340.114       13.912      861.287
09/30/2014  08:51:00       12.225        3.376       -9.727       12.553       10.278       10.203      157.588      105.645      104.103        0.031        0.018       12.683        6.424        0.257      340.256       14.151      861.268
09/30/2014  08:52:00      -14.858        5.822       -2.813       15.140       21.722       11.647      229.217      471.849      135.655        0.055        0.042       15.958        9.666        0.367      340.329       14.275      861.259
09/30/2014  08:53:00      -37.729        9.851       -9.462        8.781       10.171        7.053       77.106      103.448       49.750        0.092        0.012       38.994        3.733        0.009      340.062       13.823      861.265
09/30/2014  08:54:00      -60.361       -5.124       -4.536       12.988        8.488        9.989      168.688       72.043       99.783        0.202        0.017       60.578        3.017        0.002      340.020       13.753      861.275
09/30/2014  08:55:00      -37.448       16.939      -13.074       10.009       16.855       10.963      100.170      284.075      120.189        0.118        0.025       41.101        4.988        0.015      340.064       13.828      861.283
09/30/2014  08:56:00       -0.851       44.816       16.578       15.161       25.266       22.768      229.864      638.347      518.362        0.184        0.069       44.824       18.545        0.171      340.854       15.163      861.286
09/30/2014  08:57:00      -29.224       12.698        7.574       26.478       15.293       18.330      701.063      233.883      335.972        0.117        0.064       31.863       15.222        0.228      340.377       14.356      861.291
09/30/2014  08:58:00      -26.437      -22.501       -1.769       20.550       29.571       18.598      422.290      874.449      345.904        0.143        0.082       34.717       16.575        0.228      340.328       14.273      861.299
09/30/2014  08:59:00      -44.091      -44.493       12.309       47.539       32.002       26.530     2259.969     1024.143      703.831        0.403        0.199       62.639       28.052        0.201      340.391       14.378      861.314
09/30/2014  09:00:00     -135.181      -54.802       -6.688       26.378       22.530       17.080      695.785      507.601      291.740        1.141        0.075      145.867       12.458        0.007      340.110       13.904      861.315
09/30/2014  09:01:00     -105.019      -39.730       -7.782       36.266       31.299       20.387     1315.233      979.613      415.624        0.769        0.136      112.283       17.547        0.024      340.178       14.018      861.318
09/30/2014  09:02:00      -71.287      -34.894      -10.089       31.565       20.107       18.685      996.363      404.293      349.147        0.408        0.087       79.369       15.846        0.040      340.239       14.121      861.315
09/30/2014  09:03:00      -53.664      -36.278       -3.014       18.664       26.168       13.312      348.360      684.764      177.217        0.271        0.061       64.776       10.968        0.029      340.316       14.253      861.307
09/30/2014  09:04:00      -45.396      -35.680        0.781       25.396       17.672       12.466      644.950      312.305      155.409        0.222        0.056       57.739       16.499        0.082      340.386       14.372      861.295
09/30/2014  09:05:00      -44.128      -33.674        2.867       14.636       26.495       17.007      214.221      701.998      289.247        0.215        0.060       55.509       18.040        0.106      340.384       14.368      861.296
09/30/2014  09:06:00      -25.105      -47.863       -3.327       17.022       15.631       11.479      289.757      244.343      131.758        0.180        0.033       54.048        9.432        0.030      340.306       14.235      861.313
09/30/2014  09:07:00      -32.520      -72.209       -8.621       25.331       29.104       17.172      641.640      847.059      294.869        0.406        0.089       79.194       17.732        0.050      340.354       14.316      861.317
09/30/2014  09:08:00      -44.984      -66.613        4.293       37.851       35.389       26.870     1432.715     1252.405      721.998        0.494        0.170       80.379       25.512        0.101      340.452       14.482      861.316
09/30/2014  09:09:00     -112.399      -40.661       -8.554       75.116       56.484       29.135     5642.487     3190.465      848.824        1.202        0.484      119.528       37.409        0.098      340.500       14.562      861.308
09/30/2014  09:10:00      -91.790       25.461       -0.399       56.458       29.497       20.973     3187.558      870.079      439.846        0.678        0.225       95.255       25.772        0.073      340.674       14.859      861.297
09/30/2014  09:11:00     -103.782        8.710        0.667       48.202       32.075       25.816     2323.420     1028.794      666.447        0.743        0.201      104.147       31.713        0.093      340.512       14.585      861.286
09/30/2014  09:12:00      -92.198      -62.726        5.179       53.731       44.411       23.924     2887.004     1972.301      572.335        0.895        0.272      111.513       20.012        0.032      340.579       14.698      861.277
09/30/2014  09:13:00     -129.175      -76.724        3.749       65.154       36.071       29.016     4245.009     1301.088      841.906        1.449        0.319      150.242       33.867        0.051      340.485       14.538      861.285
09/30/2014  09:14:00     -159.805       -6.527      -15.918       31.323       42.327       19.135      981.142     1791.551      366.134        1.449        0.157      159.939       16.000        0.010      340.429       14.444      861.287
09/30/2014  09:15:00      -83.020      -62.732       -3.186       53.484       71.240       27.143     2860.559     5075.084      736.744        0.975        0.434      104.056       21.242        0.042      340.581       14.701      861.276
09/30/2014  09:16:00      -61.332      -68.023       -7.499       25.750       31.248       14.445      663.039      976.459      208.665        0.515        0.092       91.590       14.635        0.026      340.553       14.653      861.260
09/30/2014  09:17:00      -71.275      -63.657        2.770       45.914       52.280       30.844     2108.103     2733.153      951.337        0.747        0.290       95.563       29.905        0.098      340.654       14.823      861.244
09/30/2014  09:18:00      -70.053      -10.404       10.716       64.046       52.089       33.390     4101.882     2713.225     1114.882        0.653        0.396       70.821       23.717        0.112      340.769       15.017      861.248
09/30/2014  09:19:00      -77.683       23.353      -11.028       34.325       13.153       14.087     1178.178      172.992      198.442        0.413        0.077       81.117       12.685        0.024      340.614       14.759      861.241
09/30/2014  09:20:00      -52.989       14.087        1.027       45.154       13.627       18.667     2038.860      185.701      348.473        0.279        0.129       54.830       20.681        0.142      341.061       15.511      861.232
09/30/2014  09:21:00     -130.857      -27.339       -4.188       66.705       45.584       27.156     4449.621     2077.902      737.423        1.258        0.363      133.682       27.838        0.043      340.691       14.886      861.227
09/30/2014  09:22:00     -113.022      -14.100      -11.128       35.275       30.789       22.494     1244.305      947.979      505.996        0.790        0.135      113.898       10.099        0.008      340.608       14.746      861.220
09/30/2014  09:23:00      -65.340       38.240      -14.044       17.500       31.274       22.145      306.254      978.047      490.397        0.385        0.089       75.707       14.128        0.035      340.802       15.075      861.217
09/30/2014  09:24:00      -34.040       -1.696       -2.501       20.832       16.968       18.728      433.975      287.917      350.733        0.112        0.054       34.082       11.543        0.115      340.948       15.321      861.216
09/30/2014  09:25:00      -42.848       -1.239        6.622       66.025       38.461       34.904     4359.242     1479.238     1218.277        0.447        0.353       42.866       30.047        0.491      341.133       15.635      861.210
09/30/2014  09:26:00      -56.274      -23.895       11.882       62.377       41.546       27.385     3890.897     1726.109      749.948        0.512        0.318       61.137       21.243        0.121      340.959       15.340      861.216
09/30/2014  09:27:00      -30.146      -47.360       11.449       35.645       37.095       17.416     1270.594     1376.017      303.314        0.312        0.147       56.141       25.013        0.199      341.041       15.479      861.218
09/30/2014  09:28:00      -82.334      -66.245       -2.464       28.346       63.047       27.929      803.505     3974.905      780.035        0.837        0.278      105.676       29.572        0.078      340.785       15.045      861.210
09/30/2014  09:29:00      -49.067      -45.587       -8.354       27.772       36.253       19.779      771.303     1314.307      391.214        0.352        0.124       66.975        7.817        0.014      340.959       15.340      861.210
09/30/2014  09:30:00      -19.684      -30.562        2.776       26.931       33.165       21.165      725.280     1099.924      447.950        0.180        0.114       36.353       15.869        0.191      341.018       15.439      861.207
09/30/2014  09:31:00      -55.777      -92.960       -1.000       61.400       58.756       31.069     3770.005     3452.270      965.281        0.997        0.409      108.410       35.246        0.106      340.843       15.143      861.207
09/30/2014  09:32:00      -73.785      -55.990       -1.707       77.458       45.914       32.140     5999.665     2108.119     1032.968        0.886        0.457       92.624       30.810        0.111      340.853       15.160      861.205
09/30/2014  09:33:00       11.421       -7.234       15.811       51.964       43.287       36.965     2700.290     1873.756     1366.432        0.319        0.297       13.519       32.496        5.778      341.461       16.190      861.205
09/30/2014  09:34:00      -64.909       -0.389      -28.632       48.426       33.468       22.473     2345.050     1120.091      505.050        0.450        0.199       64.910       20.009        0.095      340.963       15.347      861.222
09/30/2014  09:35:00      -22.373       -5.297        1.602       21.931       17.739       15.840      480.974      314.689      250.909        0.079        0.052       22.992       12.583        0.300      341.356       16.012      861.222
09/30/2014  09:36:00        1.802      -12.415        6.741       34.184       25.646       25.493     1168.527      657.700      649.904        0.134        0.124       12.545       23.195        3.419      341.378       16.050      861.217
09/30/2014  09:37:00      -61.279        8.955       -1.085       48.782       49.150       26.397     2379.697     2415.696      696.815        0.466        0.275       61.930       24.188        0.153      341.178       15.711      861.220
09/30/2014  09:38:00      -23.191      -12.771      -10.869       28.478       39.462       19.908      811.019     1557.230      396.345        0.179        0.138       26.475       13.309        0.253      341.049       15.492      861.206
09/30/2014  09:39:00        5.447       16.604      -10.987       22.270       21.525       28.258      495.971      463.314      798.506        0.109        0.088       17.474       12.832        0.539      341.489       16.237      861.197
09/30/2014  09:40:00       52.301       52.069        9.558       18.405       21.223       28.051      338.753      450.432      786.887        0.356        0.079       73.801       16.506        0.050      341.437       16.149      861.186
09/30/2014  09:41:00       72.353       38.332        4.688       30.041       24.984       28.325      902.470      624.191      802.298        0.453        0.116       81.879       16.106        0.039      341.368       16.031      861.187
09/30/2014  09:42:00       55.912       54.987       21.435       28.315       23.815       25.381      801.736      567.152      644.194        0.431        0.101       78.420       10.532        0.018      341.322       15.954      861.169
09/30/2014  09:43:00        2.993       -3.179       10.487       30.271       21.950       24.478      916.345      481.810      599.177        0.106        0.100        4.366       13.851       10.062      341.697       16.591      861.168
09/30/2014  09:44:00      -42.769      -15.780        5.809       35.930       23.647       18.351     1290.989      559.160      336.759        0.215        0.109       45.587       17.123        0.141      341.518       16.286      861.167
09/30/2014  09:45:00      -80.520      -34.076       14.761       63.058       57.606       33.457     3976.287     3318.479     1119.371        0.814        0.421       87.434       35.260        0.163      341.460       16.188      861.159
09/30/2014  09:46:00      -43.054      -51.807        5.504       53.833       37.853       24.539     2898.032     1432.847      602.184        0.475        0.247       67.362       29.972        0.198      341.558       16.355      861.176
09/30/2014  09:47:00      -37.459       -1.707        0.197       38.201       19.375       29.646     1459.315      375.379      878.906        0.206        0.136       37.498       26.339        0.493      341.612       16.446      861.183
09/30/2014  09:48:00      -32.641       -5.631       16.043       70.898       37.921       33.062     5026.557     1437.975     1093.127        0.445        0.378       33.123       36.242        1.197      341.417       16.114      861.184
09/30/2014  09:49:00      -22.904      -25.857       11.500       32.196       38.279       25.015     1036.575     1465.267      625.767        0.223        0.156       34.543       18.876        0.299      341.690       16.578      861.184
09/30/2014  09:50:00      -47.968     -124.654       -2.384       31.057       35.097       27.942      964.523     1231.796      780.734        1.041        0.149      133.565        6.666        0.002      341.215       15.773      861.179
09/30/2014  09:51:00      -42.081      -60.292       -3.189       29.365       44.595       21.820      862.283     1988.674      476.115        0.437        0.166       73.525       17.780        0.058      341.328       15.964      861.172
09/30/2014  09:52:00      -67.321     -129.304        4.079       40.994       63.443       26.121     1680.487     4025.069      682.321        1.383        0.319      145.780       21.748        0.022      341.190       15.731      861.148
09/30/2014  09:53:00      -52.378     -192.981      -11.937       26.581       41.549       29.564      706.562     1726.304      874.009        2.172        0.165      199.963       14.838        0.006      341.189       15.728      861.145
09/30/2014  09:54:00      -72.888     -137.554      -12.574       33.394       34.078       29.165     1115.141     1161.288      850.584        1.376        0.156      155.672       12.463        0.006      341.228       15.797      861.120
09/30/2014  09:55:00      -43.712      -51.345        0.164       43.266       42.749       27.149     1871.914     1827.508      737.069        0.449        0.222       67.432       27.759        0.169      341.384       16.060      861.118
09/30/2014  09:56:00      -83.754      -39.505       -1.524       47.265       50.388       29.260     2233.985     2538.946      856.157        0.710        0.281       92.603       28.015        0.092      341.336       15.979      861.115
09/30/2014  09:57:00      -48.759       18.209        6.567       39.560       22.756       30.463     1565.015      517.828      928.020        0.288        0.151       52.048       25.389        0.238      341.636       16.488      861.103
09/30/2014  09:58:00      -20.164      -31.282        6.732       34.100       48.066       19.820     1162.823     2310.354      392.826        0.265        0.193       37.218       24.638        0.438      341.770       16.714      861.087
09/30/2014  09:59:00      -13.955     -122.145      -21.830       44.303       88.191       37.372     1962.726     7777.658     1396.632        1.336        0.557      122.939       18.298        0.022      341.283       15.889      861.068
09/30/2014  10:00:00      -63.061       11.522       -1.178       35.523       23.583       32.235     1261.887      556.144     1039.068        0.348        0.143       64.105       22.170        0.120      341.566       16.368      861.049
09/30/2014  10:01:00      -29.095      -12.405        2.555       37.861       32.987       21.753     1433.470     1088.131      473.192        0.200        0.150       31.629       21.391        0.457      341.712       16.617      861.040
09/30/2014  10:02:00      -23.667       -6.411        5.936       47.866       44.374       44.748     2291.197     1969.087     2002.356        0.345        0.313       24.520       35.146        2.054      341.957       17.031      861.033
09/30/2014  10:03:00      -29.417       18.973        1.208       37.082       31.609       35.694     1375.107      999.114     1274.085        0.244        0.182       35.005       18.310        0.274      341.982       17.073      861.017
09/30/2014  10:04:00      -33.614      -11.806       -4.845       33.839       25.087       21.825     1145.104      629.353      476.332        0.177        0.113       35.627       18.753        0.277      342.109       17.290      861.011
09/30/2014  10:05:00      -32.815      -25.297       -4.491       22.355       22.228       16.222      499.735      494.084      263.166        0.150        0.063       41.434       11.727        0.080      341.844       16.838      861.004
09/30/2014  10:06:00      -20.007      -15.878      -11.457       29.760       24.024       20.171      885.685      577.137      406.873        0.133        0.093       25.542        7.884        0.095      342.058       17.202      861.008
09/30/2014  10:07:00      -16.491      -31.036      -16.619       49.827       54.633       36.194     2482.706     2984.795     1309.997        0.414        0.339       35.145       20.052        0.326      342.068       17.220      861.000
09/30/2014  10:08:00      -90.822      -37.658      -10.051       29.734       40.944       22.708      884.094     1676.404      515.650        0.642        0.154       98.320       22.413        0.052      341.686       16.571      861.002
09/30/2014  10:09:00      -36.924        4.517       13.023       35.207       38.667       20.252     1239.544     1495.138      410.143        0.235        0.157       37.200       20.491        0.303      341.893       16.921      860.997
09/30/2014  10:10:00      -14.794      -11.747        4.702       32.809       30.787       18.320     1076.447      947.838      335.604        0.137        0.118       18.891       10.396        0.303      342.062       17.208      860.995
09/30/2014  10:11:00      -23.751       -8.505        3.834       22.268       29.938       22.978      495.848      896.314      527.985        0.129        0.096       25.228       18.564        0.541      342.175       17.402      860.984
09/30/2014  10:12:00      -22.892      -55.345       -5.543       42.359       50.654       39.029     1794.283     2565.822     1523.261        0.475        0.294       59.893       35.295        0.347      341.972       17.055      860.993
09/30/2014  10:13:00      -17.916       -2.153       25.614       24.104       27.374       26.633      580.985      749.346      709.305        0.151        0.102       18.045       17.736        0.966      342.331       17.667      860.997
09/30/2014  10:14:00        0.537       14.224       17.151       49.029       44.557       23.865     2403.836     1985.285      569.549        0.273        0.248       14.234       11.864        0.695      342.059       17.204      860.995
09/30/2014  10:15:00       47.219      -15.471       27.331       48.504       60.795       57.193     2352.640     3696.018     3271.075        0.627        0.466       49.689       46.131        0.862      342.390       17.766      860.987
09/30/2014  10:16:00        7.075       15.382       80.942       42.190       81.171       48.078     1780.027     6588.745     2311.449        0.876        0.534       16.932       41.178        5.915      342.427       17.830      860.985
09/30/2014  10:17:00      -24.860      -13.990       26.758       39.416       44.466       44.619     1553.591     1977.260     1990.827        0.352        0.276       28.526       30.229        1.123      342.406       17.793      860.977
09/30/2014  10:18:00       31.331      -83.457        1.650       56.526       89.081       43.184     3195.233     7935.452     1864.862        1.047        0.650       89.144       54.476        0.373      342.215       17.468      860.992
09/30/2014  10:19:00        5.921     -124.737       -7.935       65.731       53.991       40.084     4320.571     2915.063     1606.741        1.225        0.442      124.878       37.250        0.089      342.010       17.121      860.990
09/30/2014  10:20:00       22.748      -67.861       16.158       45.770       69.499       56.317     2094.938     4830.154     3171.638        0.774        0.505       71.572       45.660        0.407      342.255       17.538      860.959
09/30/2014  10:21:00       29.231       37.635       74.557       42.621       54.078       38.581     1816.558     2924.384     1488.456        0.703        0.311       47.653       31.354        0.433      342.275       17.572      860.939
09/30/2014  10:22:00       38.815       21.942       70.611       49.117       71.381       52.896     2412.503     5095.306     2797.968        0.864        0.515       44.587       40.766        0.836      342.165       17.385      860.911
09/30/2014  10:23:00       71.138     -104.711       -0.381       78.163       80.866       65.793     6109.406     6539.272     4328.750        1.650        0.849      126.590       62.488        0.244      341.997       17.096      860.880
09/30/2014  10:24:00       14.198      -47.282       18.330       29.482       58.588       35.446      869.160     3432.551     1256.449        0.416        0.278       49.368       20.863        0.179      342.247       17.523      860.871
09/30/2014  10:25:00       -0.286       18.912       31.973       19.387       23.850       22.471      375.853      568.821      504.937        0.141        0.072       18.914       12.496        0.436      342.649       18.208      860.859
09/30/2014  10:26:00       75.357      -47.413       15.188       61.064       63.214       40.351     3728.767     3995.957     1628.236        0.875        0.468       89.032       45.033        0.256      342.062       17.210      860.843
09/30/2014  10:27:00        0.618      -77.507       -4.549       61.679       55.724       40.867     3804.306     3105.154     1670.147        0.730        0.429       77.510       24.275        0.098      342.122       17.311      860.826
09/30/2014  10:28:00       20.530      -48.826       11.508       54.637       83.710       41.350     2985.225     7007.299     1709.827        0.732        0.585       52.966       35.297        0.444      342.392       17.768      860.822
09/30/2014  10:29:00       44.348      -97.831       -6.616       55.332       84.141       57.963     3061.644     7079.710     3359.722        1.254        0.675      107.413       52.521        0.239      342.266       17.555      860.810
09/30/2014  10:30:00       -9.758      -25.780       35.572       33.998       69.240       48.448     1155.897     4794.213     2347.233        0.516        0.415       27.565       46.964        2.903      342.313       17.635      860.809
09/30/2014  10:31:00      -14.308      -17.248       11.186       21.090       21.323       20.330      444.772      454.685      413.302        0.097        0.066       22.410       14.160        0.399      342.345       17.690      860.794
09/30/2014  10:32:00      -55.886       -0.810       -2.477       39.033       27.021       20.716     1523.597      730.116      429.160        0.291        0.134       55.892       20.109        0.129      342.226       17.487      860.782
09/30/2014  10:33:00      -51.975       14.182       -7.676       30.805       25.142       20.975      948.942      632.120      439.969        0.249        0.101       53.875       10.257        0.036      342.429       17.833      860.763
09/30/2014  10:34:00      -48.550       -9.893       -1.485       46.291       40.944       23.642     2142.853     1676.446      558.937        0.342        0.219       49.547       13.685        0.076      342.348       17.695      860.749
09/30/2014  10:35:00      -29.450      -42.721        3.153       30.019       52.122       22.465      901.156     2716.674      504.662        0.341        0.206       51.888       19.846        0.146      342.055       17.198      860.746
09/30/2014  10:36:00      -60.739     -132.376       -8.350       29.405       51.487       28.253      864.633     2650.952      798.258        1.280        0.216      145.645       12.579        0.007      341.780       16.732      860.743
09/30/2014  10:37:00      -70.075      -53.862        2.889       51.671       43.038       24.792     2669.855     1852.307      614.654        0.648        0.257       88.383       25.308        0.082      342.114       17.299      860.730
09/30/2014  10:38:00      -34.287      -78.695       -3.289       47.711       57.644       25.643     2276.372     3322.836      657.568        0.682        0.313       85.840       20.628        0.058      342.152       17.362      860.731
09/30/2014  10:39:00      -87.508      -97.276        1.381       52.136       53.082       30.323     2718.114     2817.681      919.467        1.179        0.323      130.845       18.367        0.020      341.997       17.098      860.719
09/30/2014  10:40:00      -71.545      -44.493        4.051       74.361       38.246       29.519     5529.601     1462.743      871.343        0.749        0.393       84.252       25.774        0.094      342.133       17.330      860.715
09/30/2014  10:41:00      -66.788      -35.319        6.907       41.936       31.030       19.743     1758.595      962.844      389.770        0.443        0.156       75.551        5.931        0.006      342.040       17.172      860.713
09/30/2014  10:42:00      -45.315      -33.385      -13.811       44.612       36.362       28.635     1990.255     1322.227      819.975        0.374        0.207       56.285       26.333        0.219      342.127       17.320      860.708
09/30/2014  10:43:00      -45.262      -13.194       22.383       80.210       49.499       42.389     6433.610     2450.150     1796.819        0.670        0.534       47.146       38.809        0.678      342.296       17.607      860.705
09/30/2014  10:44:00      -63.257      -18.641       -3.489       32.446       30.922       20.173     1052.731      956.184      406.953        0.339        0.121       65.946       14.981        0.052      342.208       17.457      860.718
09/30/2014  10:45:00      -12.068      -39.450       16.014       35.121       48.807       41.468     1233.465     2382.086     1719.629        0.365        0.267       41.254       31.231        0.573      342.555       18.048      860.728
09/30/2014  10:46:00       48.465      -94.763        1.844       40.065       36.003       32.750     1605.214     1296.218     1072.550        0.765        0.199      106.437       27.668        0.068      342.253       17.534      860.742
09/30/2014  10:47:00       14.270        7.000       37.678       28.446       49.195       27.997      809.196     2420.154      783.823        0.284        0.201       15.895       15.562        0.959      342.863       18.570      860.734
09/30/2014  10:48:00       22.006        9.527       32.551       42.344       40.725       45.434     1793.039     1658.526     2064.240        0.357        0.276       23.980       29.399        1.503      342.777       18.426      860.735
09/30/2014  10:49:00      -22.587        0.100       43.216       28.140       67.581       52.681      791.852     4567.229     2775.258        0.525        0.407       22.587       47.622        4.445      342.555       18.046      860.717
09/30/2014  10:50:00       15.933       20.679       40.416       40.870       56.067       48.074     1670.382     3143.555     2311.120        0.472        0.356       26.105       39.578        2.298      342.660       18.226      860.728
09/30/2014  10:51:00       22.626      -17.396       44.658       45.878       77.132       53.811     2104.831     5949.343     2895.646        0.688        0.547       28.540       55.474        3.778      342.901       18.635      860.724
09/30/2014  10:52:00       44.953      -18.183       58.333       73.800      109.322       62.231     5446.442    11951.376     3872.639        1.351        1.064       48.491       54.712        1.273      342.907       18.644      860.716
09/30/2014  10:53:00       52.976        1.566       58.773       71.618       99.219       63.378     5129.080     9844.499     4016.755        1.262        0.950       52.999       48.672        0.843      343.128       19.021      860.710
09/30/2014  10:54:00        8.795      -28.773       42.095       39.873       63.405       47.772     1589.831     4020.205     2282.145        0.528        0.395       30.087       26.743        0.790      343.198       19.141      860.701
09/30/2014  10:55:00       70.848      -98.771       -3.701       56.772       82.448       39.223     3223.084     6797.660     1538.429        1.317        0.578      121.553       25.791        0.045      342.672       18.245      860.688
09/30/2014  10:56:00       54.550       -7.044        5.508       53.760       59.405       41.166     2890.171     3528.915     1694.629        0.558        0.406       55.003       11.037        0.040      343.076       18.933      860.678
09/30/2014  10:57:00      268.677      161.326       13.832      123.211       78.481       72.001    15180.880     6159.255     5184.162        6.246        1.326      313.390       49.031        0.024      342.195       17.431      860.661
09/30/2014  10:58:00      154.410      119.133       68.295       94.645       90.480       86.011     8957.767     8186.562     7397.852        3.362        1.227      195.026       41.299        0.045      342.334       17.669      860.671
09/30/2014  10:59:00       88.421       87.399       72.358       75.154       77.057       69.776     5648.135     5937.755     4868.637        1.857        0.823      124.325       58.917        0.225      341.997       17.097      860.686
09/30/2014  11:00:00       93.248       79.498       50.471       98.928       58.020       75.791     9786.831     3366.299     5744.331        1.823        0.945      122.536       62.108        0.257      342.458       17.881      860.667
09/30/2014  11:01:00       83.451      111.083      -19.755       99.927       91.451       42.862     9985.364     8363.255     1837.117        1.994        1.009      138.937       29.917        0.046      342.384       17.756      860.656
09/30/2014  11:02:00       59.466      265.752      -33.481       65.534       69.152       40.198     4294.713     4782.058     1615.893        4.299        0.535      272.324       35.197        0.017      342.064       17.207      860.626
09/30/2014  11:03:00       14.651      123.130        3.254       39.592       73.620       38.070     1567.551     5419.960     1449.319        1.191        0.422      123.998       37.760        0.093      342.409       17.797      860.614
09/30/2014  11:04:00       -0.167       28.402       -8.693       34.916       57.798       21.012     1219.115     3340.628      441.517        0.294        0.250       28.402       26.207        0.851      342.332       17.669      860.600
09/30/2014  11:05:00       64.821       29.230       30.262       67.519       50.643       41.749     4558.752     2564.674     1743.004        0.742        0.443       71.106       20.811        0.086      342.579       18.086      860.562
09/30/2014  11:06:00       27.335       16.052        9.910       45.315       28.746       36.293     2053.426      826.329     1317.171        0.265        0.210       31.700       21.177        0.446      342.639       18.190      860.563
09/30/2014  11:07:00      -22.940       53.013       -8.818       28.198       41.618       24.475      795.104     1732.089      599.029        0.327        0.156       57.764       27.346        0.224      342.560       18.056      860.549
09/30/2014  11:08:00       15.102      -55.568      -12.251       85.081       86.236       29.268     7238.780     7436.645      856.603        0.950        0.777       57.584       24.879        0.187      342.430       17.834      860.535
09/30/2014  11:09:00       -0.175      -62.044       11.256       67.804       90.231       48.961     4597.440     8141.579     2397.179        0.955        0.757       62.044       32.725        0.278      342.889       18.614      860.517
09/30/2014  11:10:00       27.117        2.147        0.861       67.627       70.651       30.315     4573.423     4991.521      918.988        0.561        0.524       27.202       26.232        0.930      342.732       18.347      860.524
09/30/2014  11:11:00       -3.832       22.377       67.833       39.231       75.157       55.962     1539.100     5648.534     3131.698        0.772        0.516       22.702       58.721        6.690      342.969       18.750      860.495
09/30/2014  11:12:00       77.456      100.021       70.359       55.107       28.230       35.007     3036.787      796.930     1225.512        1.301        0.253      126.505       23.204        0.034      342.176       17.402      860.478
09/30/2014  11:13:00       18.635       59.099       56.784       28.190       33.445       34.856      794.682     1118.565     1214.928        0.510        0.156       61.967       21.487        0.120      342.714       18.319      860.464
09/30/2014  11:14:00       79.846       25.854       27.828       52.493       59.748       32.400     2755.480     3569.815     1049.782        0.760        0.369       83.928       24.831        0.088      342.681       18.259      860.437
09/30/2014  11:15:00        9.695      -41.301       12.028       53.302       99.742       49.314     2841.126     9948.373     2431.857        0.858        0.761       42.424       35.955        0.718      342.853       18.554      860.406
09/30/2014  11:16:00       42.329       40.544       44.568       60.676       58.290       42.661     3681.578     3397.760     1819.983        0.716        0.445       58.614       20.371        0.121      342.951       18.719      860.391
09/30/2014  11:17:00       35.150       44.805       61.333       72.231       60.236       43.230     5217.329     3628.347     1868.814        0.886        0.536       56.947       25.723        0.204      343.089       18.956      860.379
09/30/2014  11:18:00      151.361      117.766       86.731      124.105       69.008       71.708    15402.106     4762.042     5141.987        3.480        1.265      191.779       64.278        0.112      342.827       18.507      860.375
09/30/2014  11:19:00      231.556      137.256       89.834      135.840      113.859       87.277    18452.485    12963.889     7617.219        5.977        1.952      269.179       76.299        0.080      342.354       17.702      860.376
09/30/2014  11:20:00       67.556       69.838      107.315       81.271       92.243       59.922     6604.986     8508.817     3590.677        1.983        0.935       97.166       60.481        0.387      342.527       17.997      860.384
09/30/2014  11:21:00       59.187       11.509       60.962       63.420       78.630       57.723     4022.065     6182.671     3331.945        1.044        0.677       60.296       42.674        0.501      342.788       18.443      860.381
09/30/2014  11:22:00       45.645       36.700       93.188       87.212      112.501       73.504     7605.902    12656.532     5402.873        1.889        1.283       58.570       79.864        1.859      342.883       18.603      860.380
09/30/2014  11:23:00      125.838       35.776       13.527      119.374       76.140       65.124    14250.213     5797.357     4241.138        2.079        1.214      130.825       30.974        0.056      342.439       17.847      860.404
09/30/2014  11:24:00       87.019       -3.839       15.378       41.435       74.241       52.829     1716.839     5511.756     2790.927        0.892        0.501       87.104       37.366        0.184      342.537       18.016      860.407
09/30/2014  11:25:00       42.709      -63.025       15.863       71.792       97.325       51.835     5154.109     9472.252     2686.856        1.168        0.866       76.133       56.023        0.541      342.759       18.393      860.399
09/30/2014  11:26:00       75.832      -73.995       19.926       53.826       70.208       51.718     2897.271     4929.101     2674.750        1.106        0.525      105.952       45.816        0.187      342.609       18.138      860.396
09/30/2014  11:27:00       74.774      -91.836       -4.647       60.346       56.498       44.160     3641.585     3192.023     1950.063        1.141        0.439      118.427       35.783        0.091      342.613       18.146      860.376
09/30/2014  11:28:00       59.247      -25.193       25.083       66.360       66.048       37.555     4403.671     4362.360     1410.370        0.747        0.509       64.381       39.331        0.373      342.616       18.150      860.374
09/30/2014  11:29:00       72.639      -89.960        3.473       63.018       80.647       53.289     3971.280     6503.924     2839.749        1.335        0.666      115.625       48.512        0.176      342.759       18.392      860.339
09/30/2014  11:30:00       30.442      -14.291       44.889       71.166       87.089       37.802     5064.571     7584.488     1428.971        0.861        0.704       33.630       20.700        0.379      343.317       19.343      860.317
09/30/2014  11:31:00       39.443       16.978       58.484       43.202       56.970       41.979     1866.404     3245.593     1762.204        0.607        0.344       42.942       26.834        0.390      343.297       19.310      860.299
09/30/2014  11:32:00       85.011       79.399       24.669       76.267       56.574       44.643     5816.691     3200.595     1992.988        1.257        0.551      116.323       31.656        0.074      342.998       18.801      860.279
09/30/2014  11:33:00      131.919       77.985       41.183       82.406       59.827       49.509     6790.796     3579.302     2451.130        1.900        0.641      153.246       29.744        0.038      342.976       18.762      860.280
09/30/2014  11:34:00       67.704       62.291        5.346       73.452       55.359       44.118     5395.154     3064.664     1946.369        0.945        0.520       92.000       40.687        0.196      343.164       19.084      860.267
09/30/2014  11:35:00       25.188       34.485        5.625       40.977       45.550       32.983     1679.100     2074.848     1087.873        0.335        0.242       42.704       32.512        0.580      343.477       19.618      860.251
09/30/2014  11:36:00       77.534       73.759       26.959       78.777       40.988       42.578     6205.793     1679.977     1812.894        1.094        0.485      107.014       41.481        0.150      343.274       19.269      860.252
09/30/2014  11:37:00      104.805      115.284        6.807       51.657       39.864       43.366     2668.497     1589.137     1880.639        1.523        0.307      155.803       20.146        0.017      342.515       17.979      860.251
09/30/2014  11:38:00        3.368       83.360        0.949       38.238       47.486       35.975     1462.140     2254.890     1294.180        0.599        0.251       83.428       29.599        0.126      342.818       18.495      860.233
09/30/2014  11:39:00       61.911      108.348      -13.654       31.302       46.555       34.315      979.788     2167.329     1177.552        1.004        0.216      124.789       19.559        0.025      342.725       18.336      860.226
09/30/2014  11:40:00       87.579       78.986       -1.175       32.460       47.681       36.870     1053.627     2273.473     1359.400        0.930        0.234      117.936       22.771        0.037      342.581       18.092      860.210
09/30/2014  11:41:00       34.106       -7.368       35.352       65.128       43.744       29.247     4241.710     1913.517      855.370        0.474        0.351       34.893       27.359        0.615      343.086       18.949      860.187
09/30/2014  11:42:00       52.218     -115.916        8.252       78.492       71.338       63.061     6160.961     5089.056     3976.701        1.573        0.761      127.135       52.633        0.171      343.196       19.137      860.165
09/30/2014  11:43:00       34.294     -133.591      -13.122       68.197       98.017       42.746     4650.772     9607.358     1827.189        1.764        0.804      137.923       43.711        0.100      343.434       19.541      860.145
09/30/2014  11:44:00       74.700      -36.297       47.897       73.358      123.383       73.458     5381.339    15223.400     5396.112        1.759        1.300       83.052       79.943        0.927      343.476       19.613      860.156
09/30/2014  11:45:00      102.493       76.735       54.877       67.218       57.274       67.689     4518.210     3280.312     4581.855        1.589        0.619      128.036       36.444        0.081      342.523       17.993      860.176
09/30/2014  11:46:00       33.814      -81.768        0.136       48.382       76.068       34.130     2340.793     5786.267     1164.877        0.856        0.465       88.484       30.084        0.116      342.703       18.298      860.167
09/30/2014  11:47:00       17.585       41.178       81.204       37.712       46.361       31.328     1422.197     2149.387      981.434        0.658        0.228       44.775       31.391        0.492      343.456       19.579      860.172
09/30/2014  11:48:00      145.856       85.585       28.543       82.954       75.344       53.769     6881.415     5676.710     2891.107        2.243        0.772      169.111       45.736        0.073      343.030       18.854      860.180
09/30/2014  11:49:00       51.737       94.530       16.173       60.039       63.057       50.075     3604.683     3976.180     2507.487        1.098        0.504      107.762       36.705        0.116      342.994       18.793      860.166
09/30/2014  11:50:00       95.555       61.285        9.121       48.720       46.454       39.265     2373.606     2158.000     1541.768        0.952        0.304      113.519       18.229        0.026      343.267       19.258      860.163
09/30/2014  11:51:00       48.733      169.527       -3.471       59.337       82.915       54.704     3520.900     6874.821     2992.496        2.226        0.669      176.393       38.399        0.047      342.889       18.613      860.169
09/30/2014  11:52:00       20.950      116.773      -14.409       32.641       56.381       31.099     1065.411     3178.794      967.136        0.975        0.261      118.638       13.568        0.013      342.681       18.262      860.158
09/30/2014  11:53:00        1.455      -39.991      -15.674       22.154       24.073       28.694      490.797      579.493      823.353        0.187        0.095       40.018        6.919        0.030      342.801       18.466      860.131
09/30/2014  11:54:00       -2.964       69.598       12.646       42.754       89.498       37.325     1827.918     8009.960     1393.188        0.812        0.562       69.661       29.935        0.185      343.493       19.643      860.119
09/30/2014  11:55:00      -34.399      138.026       -5.155       62.617       69.402       50.819     3920.933     4816.678     2582.619        1.579        0.566      142.248       44.850        0.099      343.046       18.883      860.100
09/30/2014  11:56:00        0.601      279.537      -39.489       47.752       84.256       31.734     2280.233     7099.144     1007.018        4.504        0.519      279.537       28.393        0.010      342.698       18.284      860.076
09/30/2014  11:57:00       20.068       61.918       34.114       79.326       84.997       50.875     6292.671     7224.501     2588.284        1.075        0.805       65.089       37.666        0.335      343.551       19.742      860.079
09/30/2014  11:58:00       45.237      100.695      -11.682       38.378       93.689       42.792     1472.909     8777.637     1831.150        1.220        0.604      110.390       13.143        0.014      343.291       19.298      860.090
09/30/2014  11:59:00       84.710      104.445       49.639       67.302       57.360       68.451     4529.615     3290.121     4685.495        1.652        0.625      134.479       38.465        0.082      343.309       19.330      860.101
09/30/2014  12:00:00       57.588       31.409       89.254       81.827       81.101       68.559     6695.683     6577.333     4700.283        1.512        0.899       65.597       68.604        1.094      343.409       19.500      860.106
09/30/2014  12:01:00       83.728       67.059       78.181       63.902      103.084       71.590     4083.514    10626.237     5125.081        1.872        0.992      107.272       61.326        0.327      342.903       18.636      860.087
09/30/2014  12:02:00       46.879        3.357       -4.605       44.574       81.938       46.908     1986.860     6713.766     2200.365        0.656        0.545       46.999       28.676        0.372      343.136       19.034      860.083
09/30/2014  12:03:00       27.966      -56.003       25.362       45.794       73.793       41.412     2097.058     5445.423     1714.941        0.691        0.463       62.598       26.713        0.182      343.340       19.382      860.060
09/30/2014  12:04:00      -45.501       47.115       11.588       43.998      105.869       35.429     1935.785    11208.286     1255.235        0.941        0.720       65.499       49.356        0.568      343.138       19.038      860.037
09/30/2014  12:05:00      -48.926      116.470      -17.820       52.581       76.919       36.780     2764.777     5916.531     1352.748        1.315        0.502      126.329       35.234        0.078      343.018       18.835      860.029
09/30/2014  12:06:00       -1.311      212.792      -28.812       36.005       47.531       29.398     1296.339     2259.161      864.245        2.527        0.221      212.796       20.115        0.009      342.834       18.518      860.002
09/30/2014  12:07:00       -0.081      133.373        6.605       37.833       59.096       36.440     1431.329     3492.290     1327.889        1.204        0.313      133.373       32.912        0.061      343.588       19.807      859.998
09/30/2014  12:08:00       -7.551      116.468       -0.524       31.624       96.807       37.903     1000.046     9371.537     1436.642        1.271        0.590      116.712       49.348        0.179      343.609       19.842      860.010
09/30/2014  12:09:00       27.717      118.717       -5.990       44.858       72.158       32.427     2012.275     5206.830     1051.487        1.158        0.414      121.909       29.326        0.058      343.336       19.376      860.010
09/30/2014  12:10:00       -3.476      161.966      -13.741       44.044       74.841       29.100     1939.836     5601.178      846.799        1.741        0.419      162.004       22.195        0.019      343.169       19.090      860.024
09/30/2014  12:11:00       26.405      113.676        4.647       51.168       93.359       47.185     2618.182     8715.955     2226.384        1.360        0.678      116.703       49.583        0.181      343.559       19.756      860.026
09/30/2014  12:12:00        0.037      269.047      -28.211       59.178      100.521       47.144     3502.077    10104.399     2222.566        4.450        0.791      269.047       45.644        0.029      343.172       19.092      860.021
09/30/2014  12:13:00      -26.787      123.794       11.734       47.839       89.961       47.834     2288.594     8093.025     2288.104        1.442        0.633      126.659       53.431        0.178      343.787       20.144      860.014
09/30/2014  12:14:00       66.234      166.394      -19.034       91.796       69.248       61.683     8426.582     4795.237     3804.811        2.473        0.851      179.092       53.403        0.089      343.184       19.117      859.994
09/30/2014  12:15:00      109.317      152.402        9.272       96.336       81.874       67.377     9280.627     6703.277     4539.702        2.789        1.026      187.554       49.089        0.069      343.301       19.313      859.971
09/30/2014  12:16:00       10.696      122.715        5.526       63.837       97.165       52.394     4075.112     9441.111     2745.161        1.573        0.813      123.180       56.888        0.213      343.719       20.027      859.985
09/30/2014  12:17:00      115.387      137.600       26.684       95.557       83.672       62.232     9131.130     7000.924     3872.883        2.648        1.000      179.577       57.488        0.102      343.436       19.545      859.971
09/30/2014  12:18:00      165.871      120.541       32.564      112.644       58.826       63.294    12688.637     3460.534     4006.073        3.163        1.008      205.045       35.472        0.030      343.475       19.611      859.952
09/30/2014  12:19:00       -3.935      179.116      -17.080       62.145      114.169       58.754     3862.018    13034.485     3451.988        2.637        1.017      179.159       68.677        0.147      343.599       19.822      859.949
09/30/2014  12:20:00        8.483      238.425      -14.731       63.718       87.172       49.918     4059.955     7598.931     2491.812        3.564        0.708      238.576       48.741        0.042      343.179       19.106      859.937
09/30/2014  12:21:00      -45.103      198.554       -8.628       52.287       60.621       44.944     2733.923     3674.926     2019.922        2.498        0.421      203.613       33.092        0.026      343.453       19.572      859.911
09/30/2014  12:22:00      -53.003      282.291      -15.739       74.366      136.186       64.794     5530.326    18546.660     4198.261        5.551        1.414      287.224       72.348        0.063      343.190       19.124      859.898
09/30/2014  12:23:00       17.277      133.366        4.829       84.664      119.778       54.912     7168.032    14346.687     3015.287        2.132        1.227      134.480       66.772        0.247      343.664       19.934      859.891
09/30/2014  12:24:00       76.672      144.904        9.930       85.845      109.825       84.133     7369.340    12061.574     7078.441        2.674        1.325      163.938       76.933        0.220      343.368       19.429      859.891
09/30/2014  12:25:00      -50.348      247.927      -23.414       50.967       79.619       35.355     2597.667     6339.159     1249.947        3.737        0.509      252.988       42.492        0.028      342.953       18.721      859.900
09/30/2014  12:26:00      -42.301      110.522       -1.165       66.976       87.040       46.812     4485.788     7575.890     2191.327        1.413        0.713      118.340       52.748        0.199      343.282       19.285      859.867
09/30/2014  12:27:00       -9.577      120.786        0.713       28.098       83.245       36.455      789.511     6929.729     1328.962        1.186        0.452      121.165       42.556        0.123      343.470       19.603      859.849
09/30/2014  12:28:00       54.955      220.054      -20.519       83.743      116.323       46.251     7012.857    13531.134     2139.174        3.727        1.134      226.813       61.988        0.075      343.168       19.087      859.820
09/30/2014  12:29:00       89.438      118.001        2.510       83.857       62.126       52.448     7031.929     3859.674     2750.775        1.778        0.682      148.066       27.700        0.035      343.301       19.315      859.815
09/30/2014  12:30:00       59.919       73.315        2.654       50.501       50.544       44.382     2550.340     2554.717     1969.787        0.802        0.354       94.686       32.746        0.120      342.987       18.782      859.805
09/30/2014  12:31:00      121.865       78.568       21.592      111.313       55.789       53.091    12390.623     3112.424     2818.668        1.990        0.916      144.996       41.400        0.082      342.880       18.597      859.788
09/30/2014  12:32:00      111.978       88.241       18.196       62.219       56.459       54.010     3871.262     3187.613     2917.071        1.531        0.499      142.568       40.084        0.079      342.981       18.770      859.776
09/30/2014  12:33:00       41.787       76.188        0.139       41.444       51.223       35.651     1717.628     2623.830     1270.971        0.658        0.281       86.895       30.188        0.121      342.972       18.757      859.773
09/30/2014  12:34:00       67.076       96.254        5.540       61.126       38.796       40.491     3736.347     1505.124     1639.495        1.034        0.344      117.320       27.823        0.056      343.045       18.882      859.775
09/30/2014  12:35:00      117.863       94.755       39.409      115.571       64.021       51.475    13356.624     4098.693     2649.673        2.226        1.005      151.229       40.751        0.073      343.178       19.105      859.763
09/30/2014  12:36:00      177.955      131.932       11.960       77.283       45.552       54.109     5972.656     2074.960     2927.757        3.009        0.549      221.526       38.419        0.030      342.938       18.695      859.770
09/30/2014  12:37:00       67.747       96.001       -8.145       50.008       64.769       35.669     2500.768     4194.968     1272.250        1.092        0.398      117.498       32.116        0.075      343.132       19.028      859.767
09/30/2014  12:38:00       43.330       97.538       -6.420       30.675       50.167       36.085      940.980     2516.760     1302.149        0.810        0.238      106.730       32.991        0.096      343.312       19.336      859.753
09/30/2014  12:39:00       90.982      103.239        7.691       55.825       36.315       41.926     3116.398     1318.758     1757.782        1.259        0.310      137.608       33.922        0.061      343.172       19.097      859.742
09/30/2014  12:40:00      131.892       61.996       22.029       45.406       57.989       39.710     2061.713     3362.774     1576.862        1.436        0.350      145.736       24.482        0.028      343.244       19.218      859.727
09/30/2014  12:41:00      140.529       72.894       13.940      103.863       69.840       51.512    10787.511     4877.572     2653.474        2.178        0.916      158.309       37.871        0.057      343.508       19.669      859.718
09/30/2014  12:42:00       63.375      143.785      -17.911       63.985      102.900       63.120     4094.040    10588.435     3984.110        2.184        0.933      157.132       62.644        0.159      343.305       19.320      859.696
09/30/2014  12:43:00      133.740       70.420        5.945       63.082       52.224       42.263     3979.300     2727.333     1786.166        1.569        0.425      151.147       28.926        0.037      343.585       19.799      859.711
09/30/2014  12:44:00       88.492      103.505       32.004       61.950       62.199       62.028     3837.760     3868.683     3847.458        1.556        0.578      136.177       21.968        0.026      343.565       19.766      859.705
09/30/2014  12:45:00      186.964      118.258       72.233      108.862       76.499       76.757    11850.947     5852.063     5891.624        3.887        1.180      221.225       71.913        0.106      343.485       19.627      859.694
09/30/2014  12:46:00      139.670      116.503       76.997      117.391       90.836       86.485    13780.591     8251.164     7479.660        3.426        1.476      181.881       79.534        0.191      343.531       19.704      859.663
09/30/2014  12:47:00      119.929      173.621      -11.620       92.440      115.344       69.940     8545.063    13304.154     4891.590        3.570        1.337      211.014       60.860        0.083      343.612       19.843      859.678
09/30/2014  12:48:00       68.514       55.144       29.834      113.206       80.553       61.785    12815.624     6488.839     3817.389        1.587        1.156       87.949       41.877        0.227      343.953       20.427      859.675
09/30/2014  12:49:00       14.427      125.940       -2.276       68.902      104.050       45.726     4747.518    10826.395     2090.865        1.687        0.883      126.763       44.486        0.123      343.767       20.110      859.675
09/30/2014  12:50:00     -140.715      203.908      -20.273       63.608       79.346       51.436     4046.041     6295.866     2645.663        3.739        0.649      247.748       46.271        0.035      343.457       19.578      859.668
09/30/2014  12:51:00      -70.710      129.163       -9.110       77.656       86.606       51.771     6030.416     7500.559     2680.207        1.899        0.811      147.251       51.452        0.122      343.759       20.097      859.673
09/30/2014  12:52:00      -48.566      365.132      -38.763       56.901      103.929       37.332     3237.678    10801.221     1393.685        7.631        0.772      368.348       42.646        0.013      343.255       19.236      859.690
09/30/2014  12:53:00       29.574      280.601      -27.142       55.771      133.806       64.770     3110.412    17904.170     4195.205        5.277        1.260      282.155       77.158        0.075      343.184       19.113      859.693
09/30/2014  12:54:00       57.238      185.565      -13.120       87.661       70.493       53.997     7684.509     4969.265     2915.623        2.672        0.778      194.192       33.039        0.029      343.435       19.542      859.675
09/30/2014  12:55:00       95.304      145.854        1.738       72.322       73.597       61.272     5230.457     5416.535     3754.284        2.238        0.720      174.231       45.915        0.069      343.341       19.381      859.678
09/30/2014  12:56:00       27.844      176.576      -25.662       51.384       73.010       41.912     2640.344     5330.527     1756.612        2.117        0.486      178.758       38.915        0.047      343.105       18.981      859.648
09/30/2014  12:57:00       25.972       74.675       16.709       65.660       63.348       42.553     4311.204     4013.029     1810.740        0.833        0.507       79.063       32.219        0.166      343.714       20.020      859.623
09/30/2014  12:58:00       88.047       50.710       15.552      104.281       53.272       44.745    10874.537     2837.894     2002.108        1.314        0.786      101.606       33.122        0.106      343.944       20.413      859.628
09/30/2014  12:59:00      159.330       53.420       28.768       97.172       73.175       54.984     9442.338     5354.550     3023.227        2.344        0.891      168.047       35.652        0.045      343.160       19.074      859.623
09/30/2014  13:00:00       63.257       52.255       40.372       39.198       31.359       32.343     1536.482      983.405     1046.086        0.596        0.178       82.049       22.010        0.072      343.569       19.773      859.595
09/30/2014  13:01:00       14.299       31.924       46.710       36.907       33.304       31.250     1362.124     1109.133      976.541        0.343        0.172       34.980       24.043        0.472      344.108       20.693      859.576
09/30/2014  13:02:00      173.729      131.126       30.946      108.648       51.220       55.796    11804.300     2623.496     3113.228        3.293        0.877      217.660       53.178        0.060      343.635       19.884      859.561
09/30/2014  13:03:00      101.855       71.908       30.119       78.934       50.205       40.792     6230.522     2520.547     1663.964        1.343        0.521      124.680       24.242        0.038      343.790       20.148      859.542
09/30/2014  13:04:00       59.243       49.226       20.004       93.026       50.447       42.539     8653.914     2544.926     1809.563        0.967        0.650       77.025       32.966        0.183      344.009       20.524      859.525
09/30/2014  13:05:00       92.870       73.385       28.337       74.421       59.445       51.571     5538.552     3533.757     2659.551        1.327        0.587      118.365       39.280        0.110      343.683       19.966      859.499
09/30/2014  13:06:00       52.791      130.806        3.390       55.442       90.107       55.219     3073.863     8119.335     3049.162        1.707        0.712      141.057       54.822        0.151      343.655       19.917      859.514
09/30/2014  13:07:00       90.649      127.495        9.046       89.500       96.219       71.864     8010.314     9258.132     5164.490        2.349        1.122      156.436       46.310        0.088      343.640       19.893      859.504
09/30/2014  13:08:00      152.426      177.674        2.490      110.207      149.855      103.392    12145.508    22456.609    10689.842        5.004        2.265      234.097       98.016        0.175      343.497       19.649      859.480
09/30/2014  13:09:00       -8.524      381.275      -42.446       96.767      140.127       69.995     9363.920    19635.705     4899.288        9.057        1.695      381.371       75.345        0.039      343.509       19.667      859.501
09/30/2014  13:10:00        3.461      372.772      -44.437      127.624      135.708       72.392    16287.996    18416.794     5240.622        9.044        1.997      372.788       66.420        0.032      343.376       19.440      859.541
09/30/2014  13:11:00     -122.209      181.851      -26.930       75.719      107.448       56.798     5733.336    11545.026     3225.983        3.461        1.025      219.100       65.661        0.090      343.325       19.355      859.540
09/30/2014  13:12:00     -120.102      198.184      -33.259       64.953       94.844       55.192     4218.851     8995.351     3046.103        3.553        0.813      231.735       48.088        0.043      343.305       19.320      859.525
09/30/2014  13:13:00     -103.858      130.075      -31.838       74.959      116.413       60.374     5618.891    13552.054     3644.990        2.576        1.141      166.451       45.522        0.075      343.410       19.500      859.518
09/30/2014  13:14:00        0.002       74.208       18.582       70.613       70.019       43.175     4986.234     4902.672     1864.052        0.880        0.588       74.208       36.987        0.248      343.760       20.098      859.484
09/30/2014  13:15:00       26.310       46.174       42.709       80.205       60.817       40.836     6432.820     3698.741     1667.601        0.822        0.590       53.144       15.528        0.085      343.942       20.409      859.443
09/30/2014  13:16:00        9.225      212.361      -18.859      100.078      147.792       61.177    10015.523    21842.554     3742.609        4.056        1.780      212.561       63.267        0.089      343.701       19.996      859.456
09/30/2014  13:17:00      123.557      157.372        5.087       98.587      119.341       89.400     9719.476    14242.203     7992.328        3.600        1.598      200.081       73.264        0.134      343.711       20.012      859.472
09/30/2014  13:18:00       80.828      202.001       -3.031       98.117      144.696       81.617     9626.949    20936.910     6661.354        4.228        1.861      217.572       79.827        0.135      343.452       19.572      859.483
09/30/2014  13:19:00       90.684      119.938        3.680       85.462       79.683       66.294     7303.831     6349.367     4394.892        2.033        0.902      150.362       51.700        0.118      343.525       19.696      859.450
09/30/2014  13:20:00      179.920      159.665       -0.778      116.283       75.608       73.973    13521.711     5716.508     5471.959        4.128        1.236      240.549       56.538        0.055      343.563       19.760      859.414
09/30/2014  13:21:00      207.626      160.769       17.754      106.860       80.214       77.181    11419.093     6434.259     5956.970        4.654        1.191      262.593       43.206        0.027      343.607       19.834      859.407
09/30/2014  13:22:00      129.826      108.928       25.029      102.650       72.184       59.695    10536.961     5210.505     3563.464        2.433        0.966      169.471       45.030        0.071      343.665       19.935      859.398
09/30/2014  13:23:00      173.988      172.013        0.643      129.180       94.974       76.133    16687.569     9020.018     5796.262        4.568        1.575      244.663       53.735        0.048      343.562       19.759      859.410
09/30/2014  13:24:00       24.120      145.011      -17.425       83.540       75.023       53.526     6978.947     5628.387     2865.081        1.869        0.774      147.003       52.549        0.128      343.405       19.493      859.417
09/30/2014  13:25:00      200.728      178.975       18.565      135.015       94.106       70.218    18229.066     8856.030     4930.544        5.234        1.601      268.931       66.370        0.061      343.311       19.328      859.359
09/30/2014  13:26:00      192.572      136.566       47.325       86.323       63.845       66.598     7451.691     4076.181     4435.257        3.697        0.798      236.081       41.568        0.031      343.731       20.044      859.313
09/30/2014  13:27:00       85.035       58.377       37.542       77.736       61.620       51.571     6042.830     3797.084     2659.544        1.227        0.625      103.145       17.160        0.028      343.905       20.346      859.333
09/30/2014  13:28:00      -60.435      115.779       -6.640       58.911       91.859       42.957     3470.499     8438.071     1845.341        1.543        0.688      130.603       48.540        0.138      343.986       20.483      859.333
09/30/2014  13:29:00      -30.589      274.148      -24.422       97.472      124.682       53.473     9500.707    15545.605     2859.379        5.229        1.395      275.850       65.542        0.056      343.973       20.459      859.297
09/30/2014  13:30:00      -14.828      240.185      -21.280       75.571      153.191       63.579     5710.902    23467.380     4042.330        4.579        1.661      240.642       84.671        0.124      343.759       20.095      859.299
09/30/2014  13:31:00     -128.286      330.242      -37.891      109.449      128.887       63.975    11979.023    16611.757     4092.819        7.981        1.634      354.284       66.326        0.035      343.696       19.986      859.292
09/30/2014  13:32:00      -45.210      280.678      -41.804       76.844       93.372       44.023     5904.937     8718.299     1938.030        4.956        0.828      284.296       25.612        0.008      343.650       19.907      859.294
09/30/2014  13:33:00     -123.780      222.876      -36.062       67.637       96.999       44.940     4574.702     9408.845     2019.619        4.115        0.800      254.941       42.900        0.028      343.671       19.944      859.282
09/30/2014  13:34:00     -143.049      294.507      -37.594       76.184       92.775       59.349     5803.940     8607.148     3522.259        6.327        0.897      327.410       58.533        0.032      343.537       19.716      859.275
09/30/2014  13:35:00     -118.446      186.043      -33.529       78.148       78.051       38.620     6107.078     6091.998     1491.536        3.173        0.685      220.548       36.096        0.027      343.599       19.821      859.246
09/30/2014  13:36:00     -140.838      109.190      -25.617       84.097       69.080       45.875     7072.307     4772.065     2104.475        2.318        0.697      178.207       40.777        0.052      343.504       19.661      859.202
09/30/2014  13:37:00      -38.617       89.165       -6.866       43.202       63.859       44.179     1866.416     4077.947     1951.758        0.869        0.395       97.168       33.611        0.120      344.046       20.588      859.173
09/30/2014  13:38:00      -18.140      309.837      -41.324       58.707      126.395       54.355     3446.502    15975.597     2954.438        6.020        1.119      310.368       57.529        0.034      343.817       20.193      859.165
09/30/2014  13:39:00     -116.253      253.687      -30.348       76.855      106.390       50.712     5906.691    11318.927     2571.743        4.929        0.990      279.055       45.026        0.026      343.891       20.319      859.166
09/30/2014  13:40:00     -130.916      216.971      -10.247       96.449      126.491       67.980     9302.502    15999.865     4621.264        4.712        1.496      253.408       84.666        0.112      343.991       20.491      859.125
09/30/2014  13:41:00       65.330      217.512        5.494      102.464      164.691       98.860    10498.906    27123.004     9773.368        4.949        2.370      227.111       96.609        0.181      343.897       20.331      859.116
09/30/2014  13:42:00       72.959      288.441      -24.792      116.098      160.773       74.031    13478.748    25847.814     5480.589        6.696        2.240      297.525       89.864        0.091      343.621       19.858      859.083
09/30/2014  13:43:00      262.608      156.055       24.654      135.651      102.084       84.443    18401.205    10421.167     7130.598        6.493        1.798      305.477       62.950        0.042      343.882       20.302      859.059
09/30/2014  13:44:00      101.915      299.414      -20.486      104.918      183.471       95.343    11007.851    33661.425     9090.222        7.710        2.688      316.283      104.966        0.110      343.716       20.021      859.075
09/30/2014  13:45:00      -86.093      314.110      -37.197       76.767      126.396       60.051     5893.105    15975.988     3606.152        6.646        1.274      325.695       66.136        0.041      343.824       20.204      859.101
09/30/2014  13:46:00      -54.208      258.651      -31.724      116.045      130.519       63.665    13466.337    17035.146     4053.175        5.269        1.728      264.270       66.663        0.064      344.115       20.702      859.080
09/30/2014  13:47:00     -106.092      209.994      -28.725       97.477      128.964       59.414     9501.838    16631.659     3530.044        4.292        1.483      235.272       56.064        0.057      344.077       20.637      859.100
09/30/2014  13:48:00       72.570       85.915       25.544       91.334       79.813       71.268     8341.906     6370.195     5079.128        1.654        0.990      112.462       47.579        0.179      343.887       20.314      859.074
09/30/2014  13:49:00      -18.067      147.045       -6.226       62.124       99.096       37.408     3859.335     9820.076     1399.329        1.853        0.754      148.151       46.624        0.099      343.825       20.209      859.039
09/30/2014  13:50:00      -84.052      276.259      -36.472       88.009       82.857       47.235     7745.546     6865.255     2231.124        5.078        0.842      288.762       40.382        0.020      343.728       20.040      859.024
09/30/2014  13:51:00       -1.420      235.792       -8.173      139.508      120.929       71.078    19462.580    14623.783     5052.068        4.740        1.957      235.796       73.457        0.097      344.229       20.897      859.013
09/30/2014  13:52:00       46.282      139.254        1.645       89.856      144.230       70.323     8074.147    20802.164     4945.371        2.767        1.691      146.744       72.051        0.241      344.071       20.629      859.018
09/30/2014  13:53:00        5.275      286.044      -36.492      100.500       91.560       64.972    10100.305     8383.237     4221.347        5.294        1.135      286.092       65.626        0.053      343.892       20.319      859.014
09/30/2014  13:54:00       83.789      107.662       26.222      137.779       83.048       68.542    18983.024     6896.920     4698.023        2.493        1.529      136.425       40.015        0.086      344.015       20.530      858.984
09/30/2014  13:55:00       20.243       86.889      -10.038       80.117       70.331       38.109     6418.665     4946.440     1452.288        1.044        0.641       89.216       36.855        0.171      343.879       20.302      858.972
09/30/2014  13:56:00      -46.521      186.048      -22.036       58.089      113.219       46.044     3374.347    12818.568     2120.008        2.779        0.916      191.776       51.734        0.073      344.059       20.608      858.957
09/30/2014  13:57:00      -45.729      127.535       -2.082      121.808       84.966       62.797    14837.177     7219.306     3943.503        2.218        1.300      135.485       63.381        0.219      344.101       20.680      858.917
09/30/2014  13:58:00      112.713      155.565       14.209      100.950      136.896       84.859    10190.971    18740.579     7201.098        3.661        1.807      192.106       69.578        0.131      344.034       20.564      858.910
09/30/2014  13:59:00      143.676      135.209       18.453      130.490       81.105       62.715    17027.688     6577.965     3933.166        3.340        1.377      197.292       49.582        0.063      343.908       20.350      858.899
09/30/2014  14:00:00      123.324      153.256       15.589       89.627       89.797       78.648     8033.020     8063.478     6185.533        3.061        1.114      196.713       65.710        0.112      343.777       20.126      858.858
09/30/2014  14:01:00      127.002      140.057       20.253      115.629       93.489       72.958    13370.134     8740.209     5322.883        3.179        1.372      189.065       60.559        0.103      343.735       20.054      858.817
09/30/2014  14:02:00       42.106      176.432      -17.661       89.998      144.989       60.891     8099.700    21021.728     3707.699        3.302        1.641      181.387       76.816        0.179      343.783       20.138      858.804
09/30/2014  14:03:00        8.897       41.489       16.541       25.034       33.474       27.758      626.681     1120.479      770.479        0.230        0.126       42.432        9.777        0.053      344.098       20.676      858.767
09/30/2014  14:04:00       92.804      105.229       21.367       90.403       59.578       49.070     8172.737     3549.584     2407.905        1.713        0.707      140.305       36.296        0.067      344.016       20.535      858.775
09/30/2014  14:05:00       55.517      181.420      -16.501       81.565      131.907       57.704     6652.887    17399.587     3329.790        3.182        1.369      189.724       59.818        0.099      344.124       20.719      858.757
09/30/2014  14:06:00       76.568      224.964        5.567      114.969      170.613      106.650    13217.922    29108.862    11374.256        5.509        2.685      237.637      102.676        0.187      343.965       20.445      858.781
09/30/2014  14:07:00       45.744      199.000      -23.379       80.481      129.297       68.271     6477.197    16717.636     4660.872        3.504        1.393      204.190       72.472        0.126      343.808       20.178      858.783
09/30/2014  14:08:00       27.452      242.909      -27.510       61.659      158.680       67.237     3801.891    25179.388     4520.748        4.700        1.675      244.455       82.792        0.115      344.140       20.743      858.756
09/30/2014  14:09:00       79.292      190.437       -1.308      168.727      112.916       68.307    28468.670    12749.950     4665.906        4.421        2.294      206.285       66.953        0.105      344.035       20.564      858.752
09/30/2014  14:10:00       49.681      357.966      -46.013       67.246      168.733       64.893     4521.960    28470.975     4211.094        8.496        1.860      361.397       84.000        0.054      343.795       20.156      858.769
09/30/2014  14:11:00      -49.776      419.497      -60.524       75.310       96.633       42.058     5671.633     9337.906     1768.855        9.945        0.839      422.440       32.096        0.006      343.545       19.728      858.770
09/30/2014  14:12:00       50.477      313.507      -49.840       74.112      111.234       56.731     5492.630    12373.069     3218.399        6.220        1.054      317.544       59.074        0.035      343.617       19.851      858.742
09/30/2014  14:13:00        8.383      140.867      -12.595       56.756       75.797       37.319     3221.265     5745.202     1392.721        1.521        0.518      141.116       44.618        0.100      343.777       20.127      858.704
09/30/2014  14:14:00       42.370      118.420       -5.365       61.551       99.332       42.487     3788.500     9866.864     1805.155        1.565        0.773      125.772       55.018        0.191      343.909       20.353      858.679
09/30/2014  14:15:00      231.943      207.690       32.393      133.844      130.030       94.331    17914.305    16907.760     8898.412        7.084        2.186      311.340       62.716        0.041      344.005       20.513      858.667
09/30/2014  14:16:00       94.576      176.469       -0.754       79.279      115.450       76.460     6285.207    13328.644     5846.064        3.277        1.273      200.214       75.739        0.143      343.839       20.231      858.678
09/30/2014  14:17:00       13.945      106.175       -5.925       68.226       83.670       47.724     4654.720     7000.597     2277.619        1.272        0.697      107.087       49.655        0.215      344.151       20.765      858.664
09/30/2014  14:18:00       29.585      106.718        2.266       65.069       53.070       40.772     4234.012     2816.415     1662.359        1.049        0.436      110.743       18.657        0.028      343.959       20.437      858.646
09/30/2014  14:19:00       93.605       54.599        2.695       47.486       27.142       40.903     2254.897      736.673     1673.076        0.821        0.233      108.365       19.589        0.033      343.680       19.962      858.597
09/30/2014  14:20:00      -28.250        2.244       -4.527       36.646       44.766       24.540     1342.947     2003.982      602.191        0.239        0.197       28.339       18.819        0.441      344.100       20.679      858.561
09/30/2014  14:21:00       51.415       65.849      -14.624       42.277       28.798       25.463     1787.362      829.349      648.354        0.523        0.163       83.544       20.201        0.058      344.190       20.833      858.562
09/30/2014  14:22:00       32.313      230.816      -20.776       98.495      170.189       54.326     9701.320    28964.273     2951.366        4.818        2.081      233.067       61.725        0.070      344.084       20.648      858.542
09/30/2014  14:23:00       24.879      220.532      -14.380       86.804      169.251       79.120     7534.945    28645.966     6260.043        4.594        2.122      221.931       89.856        0.164      344.124       20.717      858.543
09/30/2014  14:24:00      172.962      108.053       57.872      131.086       65.591       67.853    17183.537     4302.219     4604.053        3.551        1.304      203.940       60.777        0.089      344.196       20.842      858.516
09/30/2014  14:25:00      163.354      131.089       22.833      142.128       87.233       76.456    20200.499     7609.602     5845.530        3.902        1.683      209.449       57.668        0.076      344.227       20.895      858.502
09/30/2014  14:26:00      146.561      220.457      -23.357      106.675      135.744       67.843    11379.638    18426.359     4602.629        5.251        1.720      264.729       77.744        0.086      344.113       20.698      858.477
09/30/2014  14:27:00       71.533      349.439      -48.835      104.184      212.278       75.166    10854.226    45061.894     5649.903        9.558        3.078      356.686      103.216        0.084      344.348       21.100      858.468
09/30/2014  14:28:00      193.431      178.979       11.322      142.918      110.480       90.355    20425.498    12205.804     8164.049        5.518        2.040      263.532       67.816        0.066      344.321       21.053      858.453
09/30/2014  14:29:00       53.410      155.807        3.348       90.469      120.091       64.436     8184.722    14421.853     4151.965        2.694        1.338      164.707       59.661        0.131      344.356       21.116      858.461
09/30/2014  14:30:00       33.066      164.350      -12.812       83.550       79.171       64.005     6980.684     6268.035     4096.643        2.280        0.867      167.643       57.804        0.119      344.614       21.557      858.438
09/30/2014  14:31:00       -3.149      286.278      -22.562       68.105      137.587       69.683     4638.294    18930.153     4855.711        5.544        1.421      286.296       79.187        0.077      344.325       21.061      858.466
09/30/2014  14:32:00       42.503      281.877      -20.491       97.673      154.716       81.109     9540.009    23937.139     6578.714        6.086        2.003      285.063       84.205        0.087      344.201       20.849      858.415
09/30/2014  14:33:00       73.066      162.233        6.969      104.810      140.310       85.261    10985.126    19686.961     7269.517        3.482        1.897      177.927       78.661        0.195      344.431       21.243      858.376
09/30/2014  14:34:00      -11.851      301.768      -35.190      118.438      118.076       67.086    14027.563    13942.003     4500.567        6.245        1.624      302.001       63.629        0.044      344.257       20.943      858.422
09/30/2014  14:35:00     -140.512      253.449      -27.564      130.495      138.542       60.946    17028.942    19193.924     3714.429        6.233        1.997      289.793       51.510        0.032      344.327       21.064      858.428
09/30/2014  14:36:00     -146.467      135.824      -20.492      103.324      129.561       60.071    10675.800    16786.074     3608.487        3.569        1.554      199.752       69.778        0.122      344.267       20.962      858.397
09/30/2014  14:37:00      -69.920       29.455        7.450       51.461       89.057       49.683     2648.223     7931.196     2468.357        0.943        0.652       75.871       36.043        0.226      344.390       21.173      858.345
09/30/2014  14:38:00     -164.826      191.058      -29.412      109.186      109.702       48.082    11921.528    12034.461     2311.883        4.540        1.313      252.330       51.582        0.042      344.182       20.816      858.341
09/30/2014  14:39:00      -63.963       69.623        5.815       75.333       98.362       49.167     5675.068     9674.986     2417.389        1.337        0.888       94.544       36.033        0.145      344.579       21.498      858.318
09/30/2014  14:40:00     -113.583      108.233      -19.939       76.404       51.464       40.992     5837.549     2648.592     1680.359        1.759        0.508      156.893       40.874        0.068      344.454       21.282      858.314
09/30/2014  14:41:00     -103.262       79.398      -23.829       74.605       68.134       43.711     5565.968     4642.193     1910.670        1.482        0.606      130.257       42.360        0.106      344.088       20.658      858.308
09/30/2014  14:42:00     -136.602       -8.000        2.661      117.381       93.568       45.707    13778.279     8754.955     2089.102        2.167        1.231      136.836       52.573        0.148      344.431       21.243      858.283
09/30/2014  14:43:00        1.745      296.278      -20.941       73.501      221.489       72.614     5402.385    49057.537     5272.740        7.397        2.987      296.284      111.927        0.143      344.146       20.756      858.297
09/30/2014  14:44:00       25.328      147.162      -14.906       89.729      150.692       47.499     8051.312    22708.088     2256.132        2.776        1.651      149.326       74.927        0.252      343.968       20.452      858.322
09/30/2014  14:45:00       56.470       55.746        7.911       48.047       86.755       55.441     2308.478     7526.390     3073.684        0.963        0.645       79.350       40.992        0.267      344.008       20.522      858.260
09/30/2014  14:46:00       62.542       65.129       12.057       40.428       40.147       28.019     1634.401     1611.742      785.065        0.616        0.202       90.295       12.760        0.020      344.247       20.929      858.244
09/30/2014  14:47:00       49.806      139.748       -8.606       80.968      109.639       48.606     6555.761    12020.696     2362.531        2.151        1.047      148.358       55.224        0.139      344.578       21.494      858.265
09/30/2014  14:48:00       79.858      143.872        9.220      110.157       95.287       75.402    12134.671     9079.706     5685.474        2.703        1.345      164.549       70.775        0.185      344.618       21.561      858.282
09/30/2014  14:49:00       77.328      119.180        1.223       86.048       86.732       61.728     7404.297     7522.353     3810.299        1.946        0.937      142.068       52.695        0.138      344.716       21.732      858.290
09/30/2014  14:50:00       86.978      165.139       -2.898       77.713      108.218       77.863     6039.251    11711.196     6062.676        2.932        1.191      186.644       67.206        0.130      344.392       21.176      858.287
09/30/2014  14:51:00       94.269       78.345        9.055       74.167       52.845       41.928     5500.687     2792.618     1757.927        1.258        0.503      122.574       19.457        0.025      344.578       21.497      858.262
09/30/2014  14:52:00      -37.360      252.879      -37.240      154.351      119.391       62.794    23824.230    14254.113     3943.071        5.437        2.101      255.624       58.218        0.052      344.372       21.141      858.300
09/30/2014  14:53:00      -73.426      148.316      -10.797       86.857      103.994       47.854     7544.182    10814.801     2289.991        2.407        1.032      165.496       28.550        0.030      344.527       21.407      858.295
09/30/2014  14:54:00     -123.887      287.188      -41.022       68.372       84.705       55.770     4674.755     7174.944     3110.251        5.723        0.748      312.770       47.970        0.024      344.107       20.688      858.318
09/30/2014  14:55:00      -23.319      145.045      -10.036       69.250       83.699       41.712     4795.493     7005.481     1739.902        1.761        0.677      146.908       39.565        0.073      344.244       20.925      858.299
09/30/2014  14:56:00       31.407       84.834       15.989       48.691       53.891       41.747     2370.816     2904.187     1742.849        0.773        0.351       90.462       25.559        0.080      344.348       21.101      858.262
09/30/2014  14:57:00        8.322      149.112      -17.462       47.002       60.555       31.963     2209.194     3666.902     1021.631        1.475        0.345      149.344       31.463        0.044      344.235       20.909      858.247
09/30/2014  14:58:00       46.334       85.647       -1.979       50.598       43.687       34.249     2560.188     1908.530     1172.999        0.756        0.282       97.377       21.492        0.049      344.190       20.834      858.249
09/30/2014  14:59:00       62.556      305.543      -38.626       81.842      169.964       65.766     6698.042    28887.700     4325.222        6.933        1.996      311.881       80.960        0.067      344.095       20.667      858.256
09/30/2014  15:00:00      133.322      194.020       15.881      132.582      104.960       72.186    17577.887    11016.682     5210.776        4.473        1.690      235.412       67.872        0.083      344.223       20.887      858.252
09/30/2014  15:01:00      202.655      116.292       39.578      122.339      106.914       94.395    14966.823    11430.575     8910.418        4.573        1.765      233.652       47.451        0.041      344.103       20.682      858.230
09/30/2014  15:02:00      142.429      104.234       35.760      104.386       81.759       74.126    10896.515     6684.562     5494.628        2.775        1.154      176.496       28.560        0.026      344.138       20.740      858.218
09/30/2014  15:03:00       97.614       70.911        4.878       91.439       62.998       52.233     8361.120     3968.787     2728.305        1.482        0.753      120.652       10.651        0.008      344.166       20.791      858.258
09/30/2014  15:04:00       37.433      147.457      -16.620       51.505       80.487       44.099     2652.753     6478.097     1944.721        1.725        0.554      152.134       47.328        0.097      344.065       20.619      858.287
09/30/2014  15:05:00       -0.720       93.240       -1.022       49.084       82.258       51.690     2409.266     6766.305     2671.907        1.027        0.592       93.243       50.002        0.288      344.243       20.924      858.292
09/30/2014  15:06:00       55.056      150.001      -15.482       49.072       78.148       49.036     2408.063     6107.136     2404.502        1.834        0.546      159.786       44.573        0.078      344.086       20.655      858.269
09/30/2014  15:07:00      129.836       89.745       37.968      131.818       66.508       59.306    17375.889     4423.260     3517.178        2.583        1.266      157.834       26.688        0.029      344.355       21.112      858.253
09/30/2014  15:08:00      173.668       41.630       18.942      168.562       83.118       66.232    28413.018     6908.615     4386.651        3.597        1.985      178.587       37.872        0.045      344.196       20.842      858.219
09/30/2014  15:09:00       73.414       44.364       87.702      102.133      105.611      107.483    10431.063    11153.600    11552.504        2.409        1.657       85.777       82.413        0.923      344.303       21.026      858.102
09/30/2014  15:10:00       21.656      201.454       62.973      239.378      250.296      163.667    57301.877    62648.290    26786.793        9.585        7.337      202.615       89.190        0.194      344.603       21.535      857.930
09/30/2014  15:11:00      -68.693      307.139      -36.823       85.448       97.755       53.080     7301.370     9556.017     2817.479        6.004        0.984      314.727       50.565        0.026      344.471       21.309      858.220
09/30/2014  15:12:00        0.102      118.547      -14.220       57.250       97.902       45.877     3277.512     9584.837     2104.669        1.461        0.748      118.547       53.812        0.206      344.361       21.124      858.240
09/30/2014  15:13:00       10.774      106.318       -7.811       60.971       94.109       38.481     3717.462     8856.543     1480.770        1.277        0.703      106.862       42.520        0.158      344.346       21.098      858.250
09/30/2014  15:14:00      -19.185      152.758       -8.658       53.520       81.777       41.820     2864.353     6687.425     1748.927        1.754        0.565      153.958       46.168        0.090      344.260       20.951      858.244
09/30/2014  15:15:00       52.466      250.457      -26.976       75.488      154.205       66.431     5698.431    23779.244     4413.021        5.004        1.695      255.893       81.732        0.102      344.245       20.924      858.257
09/30/2014  15:16:00       82.825      187.486       -1.273      103.659      110.867       64.682    10745.182    12291.392     4183.825        3.461        1.361      204.966       64.365        0.099      344.080       20.642      858.265
09/30/2014  15:17:00       42.906      177.685      -18.553       56.307       77.837       44.061     3170.478     6058.600     1941.381        2.246        0.559      182.792       44.451        0.059      344.060       20.609      858.241
09/30/2014  15:18:00       17.767      114.930       -1.140       88.405       90.013       39.600     7815.467     8102.259     1568.128        1.550        0.874      116.296       50.424        0.188      344.294       21.010      858.220
09/30/2014  15:19:00      -77.607      212.838      -17.771       81.895      115.786       52.347     6706.716    13406.324     2740.237        3.724        1.143      226.545       48.230        0.045      344.308       21.033      858.212
09/30/2014  15:20:00     -145.305      260.965      -53.579      102.115       94.054       44.984    10427.439     8846.088     2023.585        5.669        1.065      298.691       51.153        0.029      344.017       20.536      858.224
09/30/2014  15:21:00      -45.341      285.782      -33.907       85.887      118.942       54.592     7376.574    14147.265     2980.257        5.469        1.225      289.356       63.562        0.048      344.103       20.681      858.218
09/30/2014  15:22:00       55.651      189.538      -16.857       73.506       83.150       43.291     5403.116     6913.848     1874.118        2.675        0.710      197.539       44.466        0.051      344.073       20.631      858.207
09/30/2014  15:23:00       46.610      212.156      -22.709       63.710      116.309       58.269     4059.027    13527.793     3395.332        3.434        1.049      217.216       64.912        0.089      344.136       20.739      858.182
09/30/2014  15:24:00       83.497       93.241       15.058       69.973       60.264       43.320     4896.289     3631.784     1876.607        1.315        0.520      125.163       27.450        0.048      344.304       21.025      858.167
09/30/2014  15:25:00      150.675       88.902       32.334       90.286       78.412       62.468     8151.607     6148.510     3902.253        2.492        0.910      174.947       48.111        0.076      344.475       21.319      858.162
09/30/2014  15:26:00      109.498       91.183       20.195      141.163      104.711       47.393    19926.903    10964.342     2246.141        2.692        1.657      142.493       36.969        0.067      344.379       21.156      858.159
09/30/2014  15:27:00       68.680      114.866        6.589       82.928       71.632       45.177     6877.120     5131.210     2041.003        1.600        0.702      133.832       41.563        0.096      344.316       21.049      858.149
09/30/2014  15:28:00      143.243      138.813       14.301       93.075       72.888       57.080     8663.043     5312.698     3258.180        2.861        0.862      199.468       40.479        0.041      344.249       20.931      858.129
09/30/2014  15:29:00      139.905      166.954       -1.224       87.068      150.472       65.940     7580.915    22641.676     4348.058        4.100        1.729      217.823       79.878        0.134      344.280       20.985      858.092
09/30/2014  15:30:00      -57.292      337.243      -31.727      106.687      148.715       69.151    11382.201    22116.237     4781.817        7.814        1.914      342.075       81.279        0.056      344.472       21.311      858.099
09/30/2014  15:31:00      -34.076      201.296      -20.730      103.772      136.120       55.271    10768.655    18528.647     3054.842        3.723        1.618      204.160       65.778        0.104      344.626       21.576      858.092
09/30/2014  15:32:00      156.893      274.314      -15.951      124.673      146.699      103.367    15543.328    21520.468    10684.822        7.393        2.387      316.012       99.658        0.099      344.354       21.108      858.118
09/30/2014  15:33:00      390.088      245.367       47.816      127.773      102.978       75.826    16325.963    10604.481     5749.634       12.366        1.634      460.840       45.917        0.010      344.118       20.706      858.037
09/30/2014  15:34:00      129.034      156.016       -6.068      106.302       79.767       63.787    11300.038     6362.780     4068.792        3.138        1.087      202.462       48.495        0.057      344.293       21.006      858.082
09/30/2014  15:35:00       35.460      116.012        4.358       58.720       99.235       55.181     3448.017     9847.570     3044.953        1.554        0.817      121.310       61.360        0.256      344.418       21.221      858.089
09/30/2014  15:36:00      -19.851      402.742      -53.367       77.386       91.653       36.773     5988.534     8400.190     1352.267        9.059        0.787      403.230       33.241        0.007      344.125       20.720      858.115
09/30/2014  15:37:00      -65.697      338.790      -36.742       92.608      123.486       50.366     8576.282    15248.711     2536.774        7.340        1.318      345.101       57.545        0.028      344.134       20.734      858.071
09/30/2014  15:38:00      -87.659      265.310      -31.153       61.010      150.357       57.194     3722.247    22607.109     3271.149        5.432        1.480      279.416       66.881        0.057      344.402       21.193      858.042
09/30/2014  15:39:00      -40.361      507.728      -78.812      102.566       90.459       44.195    10519.756     8182.744     1953.191       14.314        1.033      509.330       26.182        0.003      344.130       20.727      858.038
09/30/2014  15:40:00     -135.760      286.483      -51.164       96.735      120.039       55.434     9357.680    14409.375     3072.932        6.498        1.342      317.023       52.634        0.028      344.379       21.153      858.027
09/30/2014  15:41:00      -74.639      390.755      -67.598      105.852      106.967       46.899    11204.644    11441.843     2199.496        9.383        1.242      397.820       41.684        0.011      344.512       21.379      858.029
09/30/2014  15:42:00      -72.696      252.073      -18.321      103.645      116.238       69.536    10742.370    13511.306     4835.281        4.912        1.454      262.346       64.627        0.061      344.472       21.312      858.047
09/30/2014  15:43:00      -44.145      315.894      -33.755       85.816      109.918       51.480     7364.316    12081.895     2650.230        6.248        1.105      318.964       52.275        0.027      344.317       21.048      858.031
09/30/2014  15:44:00       26.844      348.834      -48.390       61.532      144.976       54.960     3786.129    21018.088     3020.591        7.628        1.391      349.865       72.493        0.043      344.043       20.580      858.017
09/30/2014  15:45:00       90.272      250.383      -35.193       81.662      134.825       61.755     6668.696    18177.755     3813.672        5.036        1.433      266.159       71.324        0.072      344.139       20.742      857.978
09/30/2014  15:46:00      170.410      166.467        8.647       99.135       84.761       80.856     9827.684     7184.347     6537.725        4.018        1.177      238.224       65.060        0.075      344.125       20.717      857.963
09/30/2014  15:47:00      139.547      106.001       10.539      113.913       60.296       52.962    12976.167     3635.565     2805.006        2.512        0.971      175.241       34.577        0.039      344.131       20.730      857.948
09/30/2014  15:48:00       90.940      208.307      -11.646      135.725      114.912       67.821    18421.338    13204.684     4599.626        4.401        1.811      227.292       75.331        0.110      344.222       20.885      857.929
09/30/2014  15:49:00       54.071      216.869       -8.337      106.825      116.826       61.467    11411.564    13648.254     3778.139        3.943        1.442      223.508       71.610        0.103      344.312       21.039      857.905
09/30/2014  15:50:00      158.108      244.244       -0.608      164.110      143.951       93.599    26931.937    20721.849     8760.813        7.052        2.821      290.953       91.118        0.098      344.248       20.930      857.913
09/30/2014  15:51:00      137.357      222.323        2.766      144.523      125.932      101.395    20887.015    15858.897    10281.016        5.766        2.351      261.332       86.532        0.110      343.964       20.443      857.928
09/30/2014  15:52:00       45.231      370.211      -48.017       80.353      229.436       75.916     6456.528    52640.874     5763.211       10.312        3.243      372.963      104.410        0.078      343.920       20.368      857.920
09/30/2014  15:53:00       18.146      276.090      -26.928       85.996      187.200       61.693     7395.395    35043.706     3805.966        6.175        2.312      276.686       75.440        0.074      344.084       20.650      857.923
09/30/2014  15:54:00      128.408      242.709       13.855      168.914      197.254       94.983    28531.788    38909.029     9021.834        7.601        3.823      274.584      102.018        0.138      344.028       20.554      857.942
09/30/2014  15:55:00      151.831      212.270       10.964      147.236      123.932       86.506    21678.399    15359.069     7483.265        5.637        2.226      260.982       70.541        0.073      343.954       20.427      857.969
09/30/2014  15:56:00       73.080      196.639       -6.733      113.376      173.562       80.000    12854.205    30123.768     6400.044        4.671        2.469      209.780       88.310        0.177      344.001       20.508      858.005
09/30/2014  15:57:00       54.008      307.205      -36.335       91.950      116.256       70.126     8454.823    13515.471     4917.648        6.275        1.344      311.916       74.519        0.057      343.989       20.487      858.016
09/30/2014  15:58:00      120.419      240.459      -10.421      125.108      173.294       81.288    15651.999    30030.830     6607.729        6.235        2.615      268.926       98.399        0.134      344.043       20.580      858.026
09/30/2014  15:59:00       33.363      174.707       15.073       87.365      171.966       82.380     7632.715    29572.444     6786.468        3.792        2.200      177.864       95.951        0.291      344.119       20.707      858.034
09/30/2014  16:00:00       18.494      210.169       -1.792       97.861       96.130       62.312     9576.872     9241.025     3882.795        3.360        1.135      210.981       62.426        0.088      343.923       20.374      858.028
09/30/2014  16:01:00       13.464      427.875      -59.658       91.933      136.444       62.128     8451.631    18616.928     3859.834       10.887        1.546      428.087       71.083        0.028      343.789       20.144      858.018
09/30/2014  16:02:00       69.537      221.069      -11.686       89.914      173.322       79.167     8084.563    30040.443     6267.367        4.911        2.220      231.748       80.634        0.121      343.866       20.276      858.023
09/30/2014  16:03:00       69.035      236.256      -16.262       93.525      177.737       75.301     8746.944    31590.561     5670.253        5.342        2.300      246.135       87.226        0.126      343.867       20.278      858.004
09/30/2014  16:04:00       99.941      178.114        4.172       78.257      124.020       74.641     6124.174    15380.853     5571.314        3.440        1.354      204.237       75.302        0.136      344.025       20.548      858.001
09/30/2014  16:05:00      154.800      176.592        2.774      134.948      117.143       85.325    18210.971    13722.536     7280.322        4.718        1.961      234.836       74.965        0.102      343.843       20.236      858.011
09/30/2014  16:06:00      158.885      159.436       11.605      153.861      133.180       87.744    23673.355    17736.933     7699.001        4.995        2.455      225.088       69.823        0.096      343.680       19.960      857.991
09/30/2014  16:07:00      235.310      162.269       39.747      118.623       88.602       81.287    14071.420     7850.244     6607.598        5.590        1.426      285.836       38.755        0.018      343.806       20.172      857.967
09/30/2014  16:08:00      311.221      210.968       43.945       98.530       73.967       71.285     9708.066     5471.164     5081.526        8.178        1.013      375.987       31.020        0.007      343.724       20.034      857.957
09/30/2014  16:09:00      141.613      128.687       25.377       99.523       79.347       66.730     9904.790     6295.942     4452.884        2.895        1.033      191.349       45.045        0.055      343.813       20.187      857.952
09/30/2014  16:10:00      271.157      188.744       40.660      124.011      103.243       87.341    15378.812    10659.091     7628.417        7.223        1.683      330.379       56.850        0.030      343.842       20.236      857.909
09/30/2014  16:11:00      261.823      195.857       37.438      104.034       92.887       79.006    10823.120     8627.980     6242.017        6.700        1.285      326.973       27.561        0.007      343.771       20.113      857.909
09/30/2014  16:12:00      200.434      250.678       -5.315      187.826      154.034       84.225    35278.784    23726.445     7093.853        8.456        3.305      320.957       85.676        0.071      343.722       20.030      857.922
09/30/2014  16:13:00      120.640      173.370       12.508      123.473      138.459       80.693    15245.598    19170.924     6511.329        4.284        2.046      211.214       59.338        0.079      343.782       20.133      857.914
09/30/2014  16:14:00      132.448      138.158       -0.592      125.264       99.242       72.053    15690.953     9848.882     5191.641        3.368        1.537      191.390       58.663        0.094      343.823       20.202      857.910
09/30/2014  16:15:00      136.699      177.408        9.584      120.267      138.570       80.634    14464.107    19201.577     6501.800        4.520        2.008      223.965       75.728        0.114      343.726       20.039      857.898
09/30/2014  16:16:00      145.497       65.406       -1.086       81.897       72.898       52.188     6707.081     5314.113     2723.623        2.009        0.737      159.522       31.702        0.039      343.835       20.225      857.880
09/30/2014  16:17:00      227.986      143.086       28.752      132.491      104.302       55.789    17553.832    10878.925     3112.408        5.241        1.577      269.167       16.465        0.004      343.822       20.204      857.861
09/30/2014  16:18:00      170.365      114.280       14.453       97.283       65.621       65.472     9463.993     4306.060     4286.588        3.017        0.903      205.144       26.562        0.017      343.822       20.204      857.870
09/30/2014  16:19:00      160.504      145.440       -1.204      100.582       92.478       65.978    10116.783     8552.204     4353.035        3.497        1.151      216.597       47.054        0.047      343.844       20.240      857.864
09/30/2014  16:20:00      103.297      181.158       -1.211       98.483      125.897       82.555     9698.850    15849.953     6815.343        3.792        1.618      208.539       70.947        0.116      343.903       20.340      857.858
09/30/2014  16:21:00      202.894      188.536        3.134      139.972      110.544       83.696    19592.061    12219.867     7005.014        5.776        1.941      276.969       63.474        0.053      343.992       20.492      857.871
09/30/2014  16:22:00      164.660      145.505       -4.988      108.517       87.045       71.095    11775.925     7576.906     5054.478        3.635        1.220      219.737       50.347        0.052      343.861       20.268      857.880
09/30/2014  16:23:00      196.908      159.687        2.853      148.884       91.793       80.801    22166.338     8425.925     6528.749        5.069        1.856      253.520       56.827        0.050      343.973       20.459      857.874
09/30/2014  16:24:00      131.840      105.920       63.413      110.649       80.424       78.181    12243.242     6468.058     6112.275        2.872        1.241      169.118       47.888        0.080      344.164       20.787      857.876
09/30/2014  16:25:00      211.246      147.005       65.129      152.181      126.870       86.841    23159.131    16095.944     7541.383        5.863        2.340      257.362       70.200        0.074      344.018       20.537      857.889
09/30/2014  16:26:00      312.616      213.440       21.219      136.845       96.211       85.322    18726.582     9256.537     7279.920        8.949        1.763      378.530       66.910        0.031      343.908       20.348      857.905
09/30/2014  16:27:00      312.966      215.916       52.063      151.543      112.861       82.057    22965.156    12737.597     6733.273        9.485        2.122      380.221       56.561        0.022      343.885       20.308      857.910
09/30/2014  16:28:00      300.213      201.202       28.406      156.501      116.825       82.228    24492.494    13648.045     6761.422        8.815        2.245      361.401       25.306        0.005      343.914       20.358      857.929
09/30/2014  16:29:00      332.171      255.054       29.866      171.223      137.001       91.219    29317.199    18769.159     8320.928       11.634        2.820      418.796       70.377        0.028      343.876       20.294      857.955
09/30/2014  16:30:00      208.985      130.140       80.926      130.433       92.150       85.050    17012.656     8491.622     7233.434        4.994        1.637      246.193       66.957        0.074      343.922       20.373      857.914
09/30/2014  16:31:00      323.926      194.279       62.181      154.714      143.542      108.659    23936.292    20604.214    11806.794       10.143        2.817      377.720       71.657        0.036      343.832       20.218      857.902
09/30/2014  16:32:00      377.745      242.049       47.910      143.853      116.490       95.964    20693.823    13570.006     9209.166       12.352        2.174      448.641       68.319        0.023      343.778       20.127      857.911
09/30/2014  16:33:00      128.444      163.096       14.239       97.357      106.626       84.881     9478.399    11369.119     7204.802        3.567        1.403      207.601       62.751        0.091      343.825       20.205      857.937
09/30/2014  16:34:00      252.200      150.890       36.413      128.064       82.035       79.487    16400.378     6729.672     6318.162        5.857        1.472      293.892       62.419        0.045      343.829       20.212      857.935
09/30/2014  16:35:00      254.473      161.764       52.363      117.008       79.786       71.396    13690.948     6365.785     5097.400        5.941        1.258      301.536       17.787        0.003      343.773       20.118      857.920
09/30/2014  16:36:00      278.412      188.228       36.595      131.081       96.440       74.277    17182.196     9300.715     5517.105        7.314        1.600      336.070        9.587        0.001      343.701       19.994      857.934
09/30/2014  16:37:00      299.339      182.410       27.376      126.739      104.511       83.741    16062.832    10922.520     7012.533        7.881        1.700      350.539       32.816        0.009      343.688       19.972      857.943
09/30/2014  16:38:00      257.973      147.357       15.463      121.656       94.683       72.266    14800.104     8964.786     5222.395        5.874        1.449      297.093       36.056        0.015      343.704       19.999      857.961
09/30/2014  16:39:00      272.009      158.294       55.286       84.293       66.016       78.164     7105.342     4358.100     6109.623        5.983        0.879      314.716       29.661        0.009      343.778       20.124      857.948
09/30/2014  16:40:00      302.562      187.933       28.636      151.616       83.317       74.616    22987.520     6941.785     5567.570        8.158        1.775      356.178       30.471        0.007      343.829       20.213      857.958
09/30/2014  16:41:00      238.777      196.751       22.512      144.160       90.964       77.806    20782.090     8274.432     6053.736        6.567        1.756      309.395       48.509        0.025      343.826       20.208      857.981
09/30/2014  16:42:00      150.307      172.532        9.135      116.922      105.447       77.721    13670.861    11118.995     6040.512        4.163        1.542      228.822       67.628        0.087      343.754       20.085      857.976
09/30/2014  16:43:00      283.606      208.381       30.258      164.952      107.409      101.232    27209.107    11536.754    10247.888        8.687        2.450      351.930       68.738        0.038      343.655       19.918      857.964
09/30/2014  16:44:00      260.849      220.992       33.447      151.762      106.209       84.723    23031.631    11280.274     7178.061        7.974        2.074      341.876       48.920        0.020      343.670       19.941      857.956
09/30/2014  16:45:00      130.732      195.289        7.873      129.587      117.133       76.244    16792.727    13720.137     5813.185        4.580        1.816      235.008       73.152        0.097      343.754       20.086      857.966
09/30/2014  16:46:00      214.391      119.113       40.535      160.001      104.753       77.913    25600.265    10973.253     6070.439        5.221        2.132      245.258       56.706        0.053      343.780       20.130      857.954
09/30/2014  16:47:00      246.424      157.073       46.208      100.892       88.124       78.555    10179.187     7765.902     6170.877        5.582        1.206      292.227       25.900        0.008      343.743       20.065      857.980
09/30/2014  16:48:00      238.723      139.504       50.205      153.465       89.156       83.056    23551.530     7948.723     6898.297        5.868        1.920      276.496       29.169        0.011      343.691       19.977      857.985
09/30/2014  16:49:00      139.307       98.325        3.845       86.492       62.886       58.400     7480.808     3954.672     3410.567        2.197        0.742      170.512       43.353        0.065      343.758       20.094      857.986
09/30/2014  16:50:00      109.236      167.408        8.047      105.409      111.881       83.077    11110.959    12517.419     6901.841        3.527        1.527      199.895       75.020        0.141      343.763       20.101      858.000
09/30/2014  16:51:00      173.998      137.956       26.355      104.449       92.102       61.706    10909.492     8482.863     3807.671        3.660        1.160      222.052       47.047        0.045      343.782       20.133      858.005
09/30/2014  16:52:00      224.982      159.645       33.711      142.239      101.153       93.538    20231.817    10231.829     8749.293        5.822        1.961      275.869       76.901        0.078      343.828       20.212      857.981
09/30/2014  16:53:00      147.297      135.169       17.494      117.353       82.626       53.541    13771.616     6827.125     2866.687        3.187        1.173      199.918       33.241        0.028      343.843       20.238      857.980
09/30/2014  16:54:00      209.749      153.432       41.484      162.759      108.195      100.986    26490.333    11706.233    10198.249        5.882        2.420      259.877       48.380        0.035      343.851       20.250      857.974
09/30/2014  16:55:00      310.527      171.697       54.377      161.342      123.386       91.147    26031.201    15224.136     8307.806        8.921        2.478      354.834       62.140        0.031      343.672       19.945      857.976
09/30/2014  16:56:00      308.611      216.314       41.502      128.068      104.227       84.151    16401.300    10863.237     7081.333        8.904        1.717      376.872       52.494        0.019      343.579       19.788      857.997
09/30/2014  16:57:00      330.816      215.088       56.828      144.256      114.454       84.330    20809.762    13099.768     7111.563        9.997        2.051      394.591       64.420        0.027      343.610       19.840      858.013
09/30/2014  16:58:00      193.745      221.399       -6.984      150.847      138.764      124.451    22754.751    19255.526    15488.171        7.204        2.875      294.202       89.181        0.092      343.611       19.840      858.036
09/30/2014  16:59:00      171.351      159.121       17.282      110.454      105.219       73.691    12200.152    11070.990     5430.319        4.184        1.435      233.840       56.293        0.058      343.692       19.979      858.053
09/30/2014  17:00:00      205.937      137.530       18.026      117.072       85.834       71.834    13705.818     7367.535     5160.086        4.394        1.312      247.638       40.725        0.027      343.737       20.056      858.061
09/30/2014  17:01:00      281.548      189.114       43.150      175.324      114.333       74.303    30738.365    13072.035     5520.905        8.311        2.467      339.166       45.664        0.018      343.622       19.860      858.066
09/30/2014  17:02:00      212.934      139.513       32.016      121.432      100.285       60.474    14745.750    10057.168     3657.116        4.714        1.423      254.567       38.265        0.023      343.649       19.905      858.082
09/30/2014  17:03:00      306.576      219.342       32.042      135.715      113.221       82.079    18418.431    12818.926     6736.936        9.054        1.899      376.961       26.499        0.005      343.598       19.819      858.065
09/30/2014  17:04:00      292.809      226.916       53.369      154.817      106.810       90.933    23968.226    11408.476     8268.788        9.185        2.182      370.443       57.322        0.024      343.608       19.835      858.057
09/30/2014  17:05:00      152.333      190.193        7.868      108.735       96.505       76.535    11823.264     9313.227     5857.630        4.321        1.350      243.678       64.970        0.071      343.666       19.934      858.068
09/30/2014  17:06:00      141.671      198.742       -1.270      144.982       94.781       68.690    21019.819     8983.484     4718.355        4.714        1.736      244.068       64.907        0.071      343.631       19.875      858.067
09/30/2014  17:07:00      114.198      195.492        4.381      129.987      141.092       87.397    16896.520    19907.055     7638.186        4.785        2.222      226.403       83.248        0.135      343.633       19.878      858.090
09/30/2014  17:08:00       54.029      149.173      -19.833      101.462      106.445       47.931    10294.466    11330.581     2297.349        2.474        1.196      158.656       35.369        0.050      343.640       19.892      858.116
09/30/2014  17:09:00       40.930      213.666       -9.110       68.272      119.753       58.370     4661.036    14340.806     3407.013        3.491        1.120      217.551       68.241        0.098      343.635       19.883      858.110
09/30/2014  17:10:00      165.970      116.889       33.565      113.913       81.295       66.991    12976.062     6608.800     4487.831        3.320        1.204      203.001       36.710        0.033      343.709       20.008      858.093
09/30/2014  17:11:00      108.202      145.228       17.399       80.717      107.710       63.465     6515.282    11601.364     4027.767        2.762        1.107      181.104       54.583        0.091      343.663       19.930      858.086
09/30/2014  17:12:00      131.548      154.645       17.945       91.173       90.802       56.643     8312.428     8245.066     3208.451        3.065        0.988      203.027       53.470        0.069      343.603       19.827      858.078
09/30/2014  17:13:00       55.468      188.184      -24.924       63.185      117.727       64.545     3992.366    13859.569     4166.030        3.056        1.101      196.188       63.623        0.105      343.575       19.780      858.072
09/30/2014  17:14:00      158.731      191.502        0.274      105.770      104.666       72.807    11187.359    10955.052     5300.894        4.465        1.372      248.734       65.896        0.070      343.598       19.817      858.074
09/30/2014  17:15:00       70.902      223.671      -26.525       69.964      108.012       49.011     4894.985    11666.657     2402.054        3.736        0.948      234.640       44.631        0.036      343.636       19.884      858.060
09/30/2014  17:16:00       97.977       93.830        1.133       68.469       50.390       52.066     4688.035     2539.148     2710.867        1.417        0.497      135.660       37.193        0.075      343.674       19.951      858.035
09/30/2014  17:17:00      118.465      186.971       10.552      118.275      106.286       73.144    13989.049    11296.748     5349.994        3.986        1.532      221.342       64.687        0.085      343.628       19.871      858.036
09/30/2014  17:18:00      128.411      151.526        5.991      131.779       91.461       63.329    17365.829     8365.162     4010.534        3.461        1.487      198.619       52.248        0.069      343.639       19.890      858.042
09/30/2014  17:19:00      254.775      190.105       20.668       91.046       67.288       58.046     8289.452     4527.738     3369.387        5.883        0.809      317.884       36.558        0.013      343.575       19.781      858.055
09/30/2014  17:20:00       56.465      212.012      -23.013       74.895      113.562       56.223     5609.245    12896.277     3161.027        3.516        1.083      219.403       62.068        0.080      343.612       19.844      858.063
09/30/2014  17:21:00       88.687      150.816      -19.148       62.965      116.882       61.623     3964.555    13661.432     3797.446        2.620        1.071      174.959       72.575        0.172      343.630       19.875      858.071
09/30/2014  17:22:00       45.693      154.262       -6.109       75.130       90.161       55.985     5644.487     8128.919     3134.317        2.141        0.845      160.887       56.593        0.124      343.626       19.870      858.069
09/30/2014  17:23:00       27.563      128.615        3.792       79.174       99.317       50.591     6268.601     9863.926     2559.462        1.800        0.935      131.535       55.498        0.178      343.642       19.896      858.065
09/30/2014  17:24:00       49.980      202.944      -24.939       64.897       98.899       63.352     4211.623     9780.968     4013.507        3.115        0.900      209.008       56.922        0.074      343.612       19.844      858.043
09/30/2014  17:25:00       39.644      163.988      -13.606       57.488       91.375       51.128     3304.818     8349.455     2614.024        2.146        0.713      168.712       49.612        0.086      343.599       19.823      858.033
09/30/2014  17:26:00       69.264      103.240       25.304       95.423       70.311       52.798     9105.455     4943.587     2787.669        1.646        0.842      124.322       51.891        0.174      343.591       19.809      858.032
09/30/2014  17:27:00      -21.976      106.745      -20.745       67.382       79.992       38.872     4540.294     6398.782     1510.994        1.238        0.623      108.983       36.101        0.110      343.636       19.886      858.021
09/30/2014  17:28:00      -59.078      259.127      -33.366       72.443       95.244       47.474     5247.921     9071.494     2253.754        4.416        0.829      265.776       44.709        0.028      343.692       19.978      858.015
09/30/2014  17:29:00       47.375      196.786      -19.482       70.769       90.760       51.077     5008.219     8237.394     2608.889        2.860        0.793      202.408       52.287        0.067      343.741       20.063      858.017
09/30/2014  17:30:00       64.371      178.392      -32.071       65.639       75.064       35.195     4308.442     5634.561     1238.689        2.409        0.559      189.651       30.990        0.027      343.742       20.066      858.035
09/30/2014  17:31:00      -40.924      140.045        0.303      108.117       79.284       58.681    11689.247     6286.001     3443.505        2.135        1.071      145.902       45.304        0.096      343.877       20.295      858.038
09/30/2014  17:32:00      112.370      111.140       10.113      117.926       88.716       56.096    13906.628     7870.582     3146.810        2.500        1.246      158.048       43.377        0.075      343.806       20.176      858.016
09/30/2014  17:33:00       42.678       95.432       -9.637       75.990      105.732       55.834     5774.438    11179.271     3117.464        1.554        1.004      104.541       57.143        0.299      343.816       20.194      858.030
09/30/2014  17:34:00       48.358      140.575        1.255       81.713      120.082       48.948     6676.969    14419.739     2395.912        2.279        1.175      148.660       48.710        0.107      343.785       20.139      858.042
09/30/2014  17:35:00      137.865      170.096        8.585       94.772       93.043       71.123     8981.702     8657.050     5058.538        3.535        1.135      218.950       61.595        0.079      343.748       20.074      858.077
09/30/2014  17:36:00      108.547      345.155      -24.191      114.122      186.894      112.652    13023.906    34929.498    12690.427        9.606        3.032      361.821      118.889        0.108      343.594       19.812      858.081
09/30/2014  17:37:00      100.903      213.994      -23.218       84.247       99.991       63.299     7097.498     9998.134     4006.774        3.880        1.055      236.590       61.700        0.068      343.659       19.923      858.067
09/30/2014  17:38:00      105.740      195.455      -16.640      102.553      109.956       81.880    10517.098    12090.363     6704.288        3.948        1.466      222.224       68.866        0.096      343.625       19.865      858.063
09/30/2014  17:39:00      136.294      175.316       13.511       97.661      134.729       89.911     9537.638    18151.782     8083.967        4.263        1.789      222.063       84.247        0.144      343.616       19.851      858.052
09/30/2014  17:40:00      271.372      204.940       25.628      135.656      128.818      105.010    18402.557    16594.152    11027.060        8.115        2.301      340.063       89.189        0.069      343.597       19.819      858.049
09/30/2014  17:41:00      153.104      213.408       10.927      125.497      124.432       97.220    15749.467    15483.236     9451.791        5.489        2.034      262.647       77.238        0.086      343.571       19.773      858.038
09/30/2014  17:42:00       80.845      177.071        2.682      101.274      131.877       82.742    10256.487    17391.545     6846.274        3.619        1.725      194.653       88.157        0.205      343.632       19.878      858.045
09/30/2014  17:43:00       34.016      260.608      -24.905       79.982      144.402       67.932     6397.086    20851.817     4614.761        5.077        1.593      262.819       77.730        0.087      343.625       19.866      858.053
09/30/2014  17:44:00       10.390      296.818      -42.748       69.539       85.745       35.127     4835.647     7352.183     1233.872        5.173        0.671      296.999       29.178        0.010      343.644       19.896      858.054
09/30/2014  17:45:00       58.946      183.841       -9.326       76.379      131.160       48.540     5833.701    17202.837     2356.171        3.137        1.270      193.060       64.485        0.112      343.663       19.931      858.057
09/30/2014  17:46:00      130.899      132.623       19.791       97.305       98.135       60.495     9468.300     9630.434     3659.590        2.893        1.138      186.342       55.490        0.089      343.658       19.922      858.072
09/30/2014  17:47:00       57.665      162.595        1.314      105.770       89.755       77.477    11187.244     8055.964     6002.636        2.750        1.262      172.518       62.430        0.131      343.626       19.868      858.085
09/30/2014  17:48:00      107.730      184.629       -6.283      137.130      108.692       63.001    18804.507    11813.852     3969.090        4.015        1.729      213.761       66.294        0.096      343.603       19.827      858.102
09/30/2014  17:49:00       76.108      126.438        2.500       94.336      115.293       56.966     8899.223    13292.474     3245.167        2.361        1.272      147.577       56.045        0.144      343.599       19.823      858.109
09/30/2014  17:50:00       56.184      188.628       -3.138       85.331      103.233       56.130     7281.417    10657.106     3150.589        2.991        1.054      196.818       64.638        0.108      343.612       19.844      858.129
09/30/2014  17:51:00       79.719      138.693        0.442       96.552      105.487       56.498     9322.311    11127.426     3191.971        2.461        1.182      159.971       56.587        0.125      343.561       19.756      858.135
09/30/2014  17:52:00      119.853      102.070       14.021      126.879       92.571       54.879    16098.230     8569.416     3011.653        2.632        1.384      157.426       47.466        0.091      343.521       19.689      858.133
09/30/2014  17:53:00      109.787      123.996       10.725       81.730       57.984       48.610     6679.725     3362.111     2362.956        1.997        0.620      165.614       45.686        0.076      343.530       19.703      858.119
09/30/2014  17:54:00      135.106      117.334       15.338      102.484       74.756       56.358    10503.025     5588.452     3176.263        2.576        0.963      178.944       45.567        0.065      343.517       19.683      858.132
09/30/2014  17:55:00      125.023      168.574        6.394      108.436      161.937       78.019    11758.437    26223.461     6087.035        4.407        2.203      209.876       91.526        0.190      343.501       19.655      858.143
09/30/2014  17:56:00       12.606      284.898      -37.110       60.241      168.467       49.078     3628.938    28381.015     2408.631        5.855        1.721      285.176       70.859        0.062      343.535       19.713      858.168
09/30/2014  17:57:00       -2.130      124.512      -11.237       57.115       61.529       30.393     3262.081     3785.837      923.755        1.180        0.399      124.530       19.720        0.025      343.546       19.734      858.176
09/30/2014  17:58:00       -0.683       89.286       -2.082       57.641       79.556       39.966     3322.535     6329.220     1597.262        0.961        0.562       89.288       45.716        0.262      343.557       19.752      858.190
09/30/2014  17:59:00       69.136      119.849       -3.613       55.554       87.171       45.266     3086.284     7598.804     2049.035        1.594        0.637      138.360       44.724        0.104      343.513       19.675      858.193
09/30/2014  18:00:00      -15.950      165.319      -13.768       86.536       81.619       43.296     7488.523     6661.732     1874.511        2.190        0.801      166.086       38.733        0.054      343.538       19.718      858.200
09/30/2014  18:01:00       58.195      157.924      -15.384       76.291      103.802       53.421     5820.284    10774.927     2853.816        2.400        0.972      168.306       59.489        0.125      343.469       19.600      858.197
09/30/2014  18:02:00       45.998      161.614       -1.490       88.218      113.539       69.792     7782.339    12891.165     4870.873        2.689        1.277      168.032       64.648        0.148      343.452       19.572      858.212
09/30/2014  18:03:00       55.476      121.316       -1.655       76.761      119.255       52.589     5892.242    14221.772     2765.637        2.033        1.144      133.399       43.655        0.107      343.439       19.549      858.210
09/30/2014  18:04:00       21.460      134.161      -16.860       55.907      127.893       43.022     3125.628    16356.568     1850.858        2.003        1.067      135.866       53.303        0.154      343.451       19.572      858.220
09/30/2014  18:05:00        9.649      251.490      -29.472       96.080      111.586       58.248     9231.276    12451.421     3392.816        4.464        1.254      251.675       63.126        0.063      343.454       19.575      858.234
09/30/2014  18:06:00       -1.055      124.812      -12.006       62.523       75.748       42.095     3909.139     5737.801     1771.950        1.357        0.571      124.817       41.389        0.110      343.470       19.601      858.243
09/30/2014  18:07:00      -40.697      260.883       -7.707      106.618      150.565       71.893    11367.311    22669.792     5168.635        5.448        1.960      264.038       72.366        0.075      343.434       19.539      858.259
09/30/2014  18:08:00      -16.304      163.238      -17.847       96.024      117.676       45.459     9220.548    13847.609     2066.564        2.618        1.257      164.051       51.332        0.098      343.446       19.562      858.275
09/30/2014  18:09:00      -29.504      351.297      -25.356       81.414      172.729       68.120     6628.247    29835.176     4640.341        8.301        2.055      352.534       68.779        0.038      343.410       19.499      858.288
09/30/2014  18:10:00      -43.841      491.058      -71.456       92.521      136.155       49.764     8560.148    18538.089     2476.440       13.887        1.479      493.012       54.000        0.012      343.400       19.481      858.310
09/30/2014  18:11:00      -64.888      313.873      -40.898       78.324      104.107       58.688     6134.609    10838.283     3444.224        6.240        1.021      320.510       54.482        0.029      343.403       19.486      858.320
09/30/2014  18:12:00        3.761      301.520      -32.563       89.292      100.117       64.170     7973.026    10023.458     4117.755        5.705        1.106      301.544       54.196        0.032      343.404       19.487      858.317
09/30/2014  18:13:00       26.449      372.979      -45.043      100.437      141.698       82.605    10087.575    20078.369     6823.543        8.941        1.849      373.915       80.147        0.046      343.362       19.417      858.310
09/30/2014  18:14:00       43.469      292.331      -26.782      115.845      184.267       80.982    13420.143    33954.468     6558.047        7.099        2.697      295.545       95.972        0.105      343.348       19.393      858.325
09/30/2014  18:15:00       16.255      305.207      -29.094      109.482      138.397       69.298    11986.384    19153.624     4802.163        6.510        1.797      305.639       77.286        0.064      343.334       19.369      858.321
09/30/2014  18:16:00       55.146      267.936      -38.780      100.168      126.234       58.564    10033.554    15934.990     3429.714        5.286        1.470      273.553       65.078        0.057      343.332       19.366      858.305
09/30/2014  18:17:00       15.298      225.634       -3.742      136.134      114.761       70.323    18532.419    13170.067     4945.382        4.390        1.832      226.152       77.214        0.117      343.340       19.378      858.310
09/30/2014  18:18:00      -33.224      189.480      -12.860       81.083       94.200       59.532     6574.406     8873.603     3544.103        2.808        0.950      192.371       62.148        0.104      343.335       19.372      858.313
09/30/2014  18:19:00       15.107      296.186      -28.708       77.078      187.628       69.829     5940.990    35204.419     4876.037        6.739        2.301      296.571       94.137        0.101      343.337       19.374      858.323
09/30/2014  18:20:00      -74.468      285.066      -41.286       96.519      102.200       63.204     9315.872    10444.830     3994.781        5.613        1.188      294.632       61.853        0.044      343.336       19.372      858.326
09/30/2014  18:21:00      -55.499      290.473      -45.342       47.076       59.486       28.589     2216.179     3538.564      817.316        4.804        0.329      295.727       27.518        0.009      343.360       19.414      858.342
09/30/2014  18:22:00        3.731      101.930       -2.107       54.568       71.589       35.613     2977.636     5124.955     1268.280        0.989        0.469      101.998       31.259        0.094      343.303       19.321      858.353
09/30/2014  18:23:00       72.584      145.587      -32.470       69.432       91.909       45.473     4820.764     8447.354     2067.805        2.142        0.767      162.677       44.888        0.076      343.273       19.266      858.364
09/30/2014  18:24:00       45.560      117.811        4.267       80.557       81.431       42.441     6489.405     6631.045     1801.277        1.545        0.746      126.313       50.821        0.162      343.266       19.254      858.370
09/30/2014  18:25:00       55.835      238.115      -12.009      117.494      142.722       83.917    13804.739    20369.653     7042.058        5.058        2.061      244.574       78.972        0.104      343.240       19.208      858.376
09/30/2014  18:26:00       81.208      223.130      -11.218      114.360      152.221       93.414    13078.319    23171.160     8726.264        5.073        2.249      237.448       90.659        0.146      343.230       19.191      858.385
09/30/2014  18:27:00       89.174      177.699      -13.910       89.406      106.115       63.981     7993.505    11260.396     4093.565        3.153        1.167      198.819       58.227        0.086      343.201       19.144      858.418
09/30/2014  18:28:00       53.911      112.654        9.595       71.456       86.948       58.378     5105.912     7559.979     3407.975        1.588        0.804      124.889       49.966        0.160      343.200       19.143      858.453
09/30/2014  18:29:00       66.260      100.688        0.902       69.315       64.013       40.225     4804.608     4097.621     1618.079        1.252        0.526      120.534       31.263        0.067      343.155       19.068      858.468
09/30/2014  18:30:00       45.576      183.673      -25.502       48.830      114.040       49.458     2384.380    13005.136     2446.128        2.715        0.892      189.243       52.759        0.078      343.084       18.945      858.484
09/30/2014  18:31:00       50.185      181.191      -10.339       88.650       96.871       57.730     7858.835     9383.970     3332.731        2.801        1.029      188.013       61.457        0.107      343.045       18.876      858.508
09/30/2014  18:32:00      125.519      188.763       -6.674      110.327      125.863       80.917    12172.060    15841.457     6547.516        4.299        1.728      226.686       69.563        0.094      342.961       18.734      858.513
09/30/2014  18:33:00       87.721      221.575        3.702      114.202      128.556       90.077    13042.189    16526.576     8113.902        4.724        1.884      238.308       78.148        0.108      342.911       18.650      858.530
09/30/2014  18:34:00       28.252      280.487      -45.210       78.237      119.138       58.051     6121.082    14193.908     3369.924        5.260        1.184      281.906       59.639        0.045      342.901       18.634      858.551
09/30/2014  18:35:00       59.883      250.932      -14.346       88.906      107.282       65.345     7904.214    11509.528     4269.992        4.522        1.184      257.978       54.689        0.045      342.868       18.575      858.553
09/30/2014  18:36:00       71.478      161.870       -9.701       83.006       94.862       66.367     6889.960     8998.736     4404.579        2.585        1.015      176.949       56.604        0.102      342.832       18.517      858.576
09/30/2014  18:37:00       49.418      156.433      -13.320       70.638      112.845       60.609     4989.683    12733.999     3673.455        2.424        1.070      164.053       61.981        0.143      342.815       18.488      858.568
09/30/2014  18:38:00       34.016      157.706       -7.665       70.736       89.946       55.523     5003.600     8090.335     3082.772        2.113        0.809      161.333       51.268        0.101      342.794       18.449      858.576
09/30/2014  18:39:00       60.147      125.245       -5.176       65.625       81.307       54.011     4306.664     6610.887     2917.178        1.658        0.692      138.939       49.421        0.127      342.788       18.440      858.583
09/30/2014  18:40:00       36.123      196.981      -15.931       58.538       97.679       57.237     3426.702     9541.150     3276.052        2.830        0.812      200.266       62.697        0.098      342.788       18.440      858.610
09/30/2014  18:41:00       41.919      185.690      -22.223       51.508      133.044       41.681     2653.042    17700.811     1737.300        2.941        1.105      190.363       53.431        0.079      342.774       18.417      858.628
09/30/2014  18:42:00       28.846      170.470      -12.286       89.358       78.379       61.486     7984.849     6143.263     3780.537        2.397        0.895      172.894       51.375        0.088      342.775       18.418      858.649
09/30/2014  18:43:00       32.391      186.150        2.349       85.890      129.667       72.196     7377.174    16813.502     5212.203        3.255        1.470      188.947       77.000        0.166      342.765       18.402      858.659
09/30/2014  18:44:00       14.068      217.376      -13.231       60.469      112.961       52.523     3656.509    12760.132     2758.614        3.340        0.959      217.831       58.925        0.073      342.760       18.392      858.678
09/30/2014  18:45:00       31.331      181.504      -20.646       43.517       58.989       38.232     1893.767     3479.742     1461.680        2.059        0.342      184.188       33.157        0.032      342.746       18.370      858.695
09/30/2014  18:46:00       35.113       99.821       -0.640       69.036       68.758       38.962     4765.995     4727.643     1518.044        1.110        0.551      105.816       38.249        0.131      342.720       18.325      858.709
09/30/2014  18:47:00       37.850      145.571       -7.536       52.328       72.968       46.366     2738.256     5324.258     2149.838        1.644        0.511      150.411       47.253        0.099      342.738       18.357      858.713
09/30/2014  18:48:00       66.745       87.896       -3.095       55.031       44.261       41.519     3028.462     1959.057     1723.867        0.945        0.336      110.365       31.111        0.079      342.721       18.328      858.737
09/30/2014  18:49:00       -5.747      242.738      -33.711       58.887       92.608       32.481     3467.630     8576.232     1055.005        3.659        0.655      242.806       45.523        0.035      342.718       18.321      858.758
09/30/2014  18:50:00       10.616      185.119      -16.380       61.492       90.256       49.718     3781.295     8146.085     2471.857        2.452        0.720      185.423       47.746        0.066      342.709       18.306      858.770
09/30/2014  18:51:00       62.283      169.819      -18.530       54.465       76.393       53.292     2966.436     5835.827     2840.008        2.235        0.582      180.880       47.903        0.070      342.685       18.266      858.775
09/30/2014  18:52:00       71.046      128.746        3.291       78.864       69.421       52.126     6219.545     4819.209     2717.092        1.769        0.688      147.048       36.769        0.063      342.665       18.232      858.770
09/30/2014  18:53:00      103.023      179.113       16.173      105.137       99.264       65.153    11053.777     9853.312     4244.907        3.405        1.258      206.628       62.874        0.093      342.664       18.229      858.753
09/30/2014  18:54:00      126.103      134.043       22.190       85.336       85.267       58.473     7282.209     7270.535     3419.118        2.616        0.899      184.037       48.123        0.068      342.645       18.198      858.742
09/30/2014  18:55:00      112.785      161.987        4.710       94.230       74.584       61.558     8879.294     5562.799     3789.414        2.860        0.912      197.383       45.712        0.054      342.642       18.191      858.735
09/30/2014  18:56:00       60.232      158.139       -3.895       70.675      116.010       64.088     4994.958    13458.329     4107.279        2.560        1.128      169.221       68.569        0.164      342.632       18.176      858.743
09/30/2014  18:57:00      113.816      135.816        0.280       94.186       78.137       61.290     8870.934     6105.419     3756.421        2.506        0.937      177.201       42.679        0.058      342.613       18.141      858.770
09/30/2014  18:58:00      228.867      188.777       27.198      143.138       94.753       75.158    20488.602     8978.121     5648.764        6.193        1.756      296.676       61.799        0.043      342.614       18.142      858.804
09/30/2014  18:59:00       78.830       65.862       -4.430       78.243       58.489       36.913     6121.924     3420.987     1362.559        1.074        0.545      102.723       30.616        0.089      342.595       18.114      858.832
09/30/2014  19:00:00       64.893       76.345       21.558       61.385       68.368       43.167     3768.154     4674.134     1863.430        1.040        0.515      100.198       24.737        0.061      342.570       18.071      858.854
09/30/2014  19:01:00       51.419      165.075      -26.199       57.317      134.376       48.048     3285.200    18056.863     2308.632        2.711        1.183      172.898       67.215        0.151      342.575       18.079      858.880
09/30/2014  19:02:00       86.622      166.255      -13.376       74.865       80.299       48.940     5604.764     6447.901     2395.105        2.488        0.722      187.467       44.804        0.057      342.580       18.088      858.913
09/30/2014  19:03:00      113.949       62.809        8.456       77.780       45.321       46.318     6049.761     2053.951     2145.340        1.362        0.512      130.113       25.343        0.038      342.567       18.066      858.936
09/30/2014  19:04:00      118.617      126.690       -1.911       75.731       76.884       49.795     5735.116     5911.208     2479.531        2.212        0.706      173.552       38.617        0.050      342.588       18.100      858.949
09/30/2014  19:05:00       46.907       69.279       17.549       56.036       54.378       50.734     3140.052     2956.971     2573.987        0.799        0.434       83.665       31.834        0.145      342.551       18.039      858.936
09/30/2014  19:06:00       63.899      113.564       -2.809       62.529       52.283       40.796     3909.840     2733.518     1664.275        1.265        0.415      130.307       30.792        0.056      342.541       18.022      858.934
09/30/2014  19:07:00       91.713      132.002      -27.256       54.881       85.804       39.810     3011.951     7362.346     1584.867        1.927        0.598      160.735       43.738        0.074      342.549       18.035      858.931
09/30/2014  19:08:00       88.468       97.590       -1.311       56.895       52.364       42.146     3237.089     2742.019     1776.296        1.255        0.388      131.721       32.337        0.060      342.536       18.015      858.964
09/30/2014  19:09:00       36.568       66.067       -3.492       39.459       44.896       30.465     1556.990     2015.670      928.117        0.511        0.225       75.512       23.637        0.098      342.533       18.010      858.998
09/30/2014  19:10:00       27.374       42.383        7.401       34.501       30.538       25.446     1190.327      932.570      647.506        0.268        0.139       50.454       18.545        0.135      342.515       17.981      859.021
09/30/2014  19:11:00       81.487       75.068       -5.124       44.664       28.599       28.415     1994.845      817.910      807.405        0.796        0.181      110.794       19.159        0.030      342.527       18.000      859.029
09/30/2014  19:12:00       86.518       68.762        8.494       47.080       40.637       40.711     2216.540     1651.360     1657.414        0.890        0.276      110.515       32.579        0.087      342.500       17.954      859.023
09/30/2014  19:13:00      126.611      116.457       -0.977       57.494       50.545       46.850     3305.550     2554.769     2194.936        1.882        0.403      172.025       34.431        0.040      342.538       18.017      859.013
09/30/2014  19:14:00      103.482       47.214       21.251       72.846       50.963       37.779     5306.515     2597.245     1427.279        1.136        0.467      113.745       36.038        0.100      342.541       18.024      859.013
09/30/2014  19:15:00       53.629       72.139       -5.547       46.187       45.589       31.074     2133.226     2078.372      965.618        0.664        0.259       89.890       25.344        0.079      342.531       18.006      859.022
09/30/2014  19:16:00       92.350       64.822       13.402       57.734       45.870       32.840     3333.213     2104.093     1078.437        0.971        0.326      112.829       31.935        0.080      342.521       17.991      859.029
09/30/2014  19:17:00       61.840       99.198       -6.440       62.728       37.413       35.308     3934.860     1399.696     1246.662        1.014        0.329      116.895       24.908        0.045      342.511       17.974      859.040
09/30/2014  19:18:00       23.199       43.197       -1.227       28.484       36.950       18.065      811.336     1365.335      326.327        0.245        0.125       49.032       17.358        0.125      342.481       17.921      859.038
09/30/2014  19:19:00       36.624       30.002        8.070       32.118       23.734       18.852     1031.546      563.305      355.392        0.213        0.098       47.344       14.365        0.092      342.493       17.943      859.048
09/30/2014  19:20:00       43.092       49.616       -5.882       29.624       38.850       23.940      877.557     1509.355      573.109        0.366        0.148       65.716       16.932        0.066      342.486       17.929      859.060
09/30/2014  19:21:00       55.358       76.042       -2.736       45.555       33.148       36.469     2075.225     1098.773     1330.019        0.668        0.225       94.058       27.887        0.088      342.469       17.900      859.069
09/30/2014  19:22:00       73.951       81.561       -1.746       64.582       28.212       31.047     4170.780      795.942      963.947        0.903        0.297      110.095       28.417        0.067      342.493       17.938      859.077
09/30/2014  19:23:00       21.344       98.841       -8.627       33.573       40.743       24.401     1127.130     1660.014      595.424        0.684        0.169      101.119       20.594        0.041      342.471       17.903      859.090
09/30/2014  19:24:00       50.041       54.825       12.655       24.572       23.616       27.020      603.803      557.710      730.083        0.378        0.095       74.228       22.645        0.093      342.469       17.900      859.113
09/30/2014  19:25:00       24.155       22.444        5.830       26.636       15.514       16.984      709.494      240.687      288.456        0.118        0.062       32.973        8.900        0.073      342.467       17.896      859.132
09/30/2014  19:26:00       19.143       24.702        0.039       25.185       18.761       15.978      634.304      351.990      255.283        0.111        0.062       31.252        9.261        0.088      342.490       17.938      859.145
09/30/2014  19:27:00       -7.670       66.377       -5.596       19.517       39.073       18.004      380.907     1526.721      324.143        0.336        0.112       66.818       20.971        0.099      342.506       17.964      859.149
09/30/2014  19:28:00        6.987       62.919       -7.140       17.349       24.495       13.353      301.003      600.011      178.300        0.257        0.054       63.306       11.032        0.030      342.554       18.046      859.127
09/30/2014  19:29:00       -4.913       65.525      -11.983       17.881       22.901       14.240      319.726      524.474      202.769        0.275        0.052       65.709       11.690        0.032      342.637       18.186      859.116
09/30/2014  19:30:00       -4.856       71.086       -6.372       14.802       18.463       20.461      219.086      340.898      418.633        0.305        0.049       71.252       12.942        0.033      342.675       18.249      859.118
09/30/2014  19:31:00      -67.695      109.414      -25.419       56.482       34.811       28.802     3190.203     1211.778      829.563        1.121        0.262      128.662       20.333        0.025      342.676       18.251      859.120
09/30/2014  19:32:00      -66.215       89.583      -10.929       42.793       32.846       23.319     1831.207     1078.857      543.754        0.799        0.173      111.398       22.167        0.040      342.643       18.196      859.133
09/30/2014  19:33:00       -9.182       24.373       -1.594       26.693       23.697       13.409      712.519      561.545      179.791        0.107        0.073       26.045       10.994        0.178      342.681       18.260      859.155
09/30/2014  19:34:00        8.596       19.722       -3.081       27.036       18.526        7.519      730.931      343.218       56.530        0.080        0.057       21.514        7.413        0.119      342.652       18.209      859.166
09/30/2014  19:35:00      -30.297       40.375      -13.758       30.202       32.965       10.997      912.157     1086.704      120.941        0.243        0.106       50.478       15.530        0.095      342.649       18.205      859.181
09/30/2014  19:36:00      -13.114       34.638      -11.398       14.836       45.475       17.257      220.115     2067.980      297.799        0.204        0.129       37.037       20.976        0.321      342.634       18.180      859.182
09/30/2014  19:37:00      -20.924       89.055       -4.485       22.285       35.806       22.672      496.618     1282.042      514.001        0.534        0.115       91.480       24.226        0.070      342.650       18.208      859.187
09/30/2014  19:38:00      -67.093      109.849      -22.769       38.804       37.864       22.343     1505.770     1433.720      499.229        1.026        0.172      128.718       18.049        0.020      342.675       18.249      859.210
09/30/2014  19:39:00       -2.423       79.457       -7.266       33.392       27.551       13.219     1114.996      759.057      174.743        0.421        0.102       79.494        9.851        0.015      342.628       18.171      859.227
09/30/2014  19:40:00       46.590       57.427       -1.281       34.524       20.141       16.993     1191.878      405.657      288.764        0.368        0.094       73.949        8.359        0.013      342.545       18.031      859.224
09/30/2014  19:41:00      -63.472       42.647      -17.362       59.302       40.388       23.062     3516.704     1631.188      531.868        0.591        0.284       76.468       31.019        0.165      342.559       18.054      859.246
09/30/2014  19:42:00      -80.365       78.325      -19.023       50.057       33.114       19.623     2505.680     1096.529      385.072        0.847        0.199      112.221       17.647        0.025      342.616       18.149      859.257
09/30/2014  19:43:00      -58.350      116.441       -1.697       64.169      102.767       30.495     4117.615    10561.097      929.918        1.628        0.780      130.243       39.617        0.093      342.566       18.065      859.267
09/30/2014  19:44:00      -18.153       53.589       -1.182       26.189       38.958       22.925      685.843     1517.760      525.570        0.297        0.136       56.580       19.143        0.114      342.582       18.094      859.258
09/30/2014  19:45:00        8.830       26.760       -0.138       19.081       26.296       18.889      364.092      691.486      356.788        0.110        0.071       28.179       16.326        0.336      342.595       18.113      859.251
09/30/2014  19:46:00       12.238       34.468       -6.592       35.710       28.490       19.289     1275.209      811.690      372.049        0.192        0.123       36.576       14.952        0.167      342.527       18.000      859.269
09/30/2014  19:47:00      -33.543       88.843       -8.311       22.787       82.667       21.948      519.229     6833.845      481.713        0.846        0.392       94.964       29.863        0.099      342.537       18.015      859.313
09/30/2014  19:48:00      -63.400       10.169       11.519       50.536       48.195       24.347     2553.889     2322.725      592.772        0.486        0.273       64.210       28.996        0.204      342.470       17.902      859.361
09/30/2014  19:49:00      -29.148       81.208      -17.279       36.407       65.949       36.972     1325.467     4349.240     1366.944        0.739        0.352       86.281       32.888        0.145      342.512       17.974      859.406
09/30/2014  19:50:00      -93.300      105.240      -24.341       65.010       65.105       34.165     4226.280     4238.631     1167.266        1.500        0.482      140.643       32.642        0.054      342.503       17.959      859.463
09/30/2014  19:51:00     -115.845      173.235      -20.824       66.470       65.157       46.768     4418.267     4245.425     2187.255        2.736        0.543      208.400       46.726        0.050      342.457       17.878      859.487
09/30/2014  19:52:00      -13.542       61.012        3.249       30.905       51.838       28.037      955.140     2687.172      786.054        0.417        0.221       62.497       26.857        0.185      342.422       17.819      859.523
09/30/2014  19:53:00      -79.017      170.899      -21.760       51.369       87.892       34.423     2638.806     7725.069     1184.915        2.373        0.577      188.282       30.249        0.026      342.467       17.893      859.518
09/30/2014  19:54:00      -87.718       60.428       -8.645       47.481       37.713       26.861     2254.449     1422.274      721.531        0.791        0.220      106.517       21.615        0.041      342.449       17.866      859.522
09/30/2014  19:55:00      -34.161       55.059       -3.394       40.681       28.474       26.134     1654.950      810.787      682.964        0.368        0.157       64.795       15.835        0.060      342.423       17.823      859.535
09/30/2014  19:56:00      -33.281       88.397       -3.574       20.996       67.680       18.672      440.821     4580.539      348.634        0.715        0.268       94.454       11.483        0.015      342.431       17.836      859.538
09/30/2014  19:57:00      -68.860       12.173       -3.891       28.795       18.417       17.461      829.147      339.193      304.880        0.319        0.074       69.927       14.197        0.041      342.435       17.842      859.540
09/30/2014  19:58:00      -11.988       -1.203       12.469       20.614       20.136       14.979      424.923      405.448      224.372        0.068        0.053       12.048       12.473        1.072      342.343       17.687      859.547
09/30/2014  19:59:00       -1.561        3.642        7.286       14.114       13.034       10.823      199.195      169.881      117.130        0.028        0.024        3.963        5.328        1.808      342.306       17.622      859.555
09/30/2014  20:00:00      -63.071       41.888      -21.176       50.434       50.076       27.967     2543.587     2507.594      782.154        0.601        0.292       75.714       19.903        0.069      342.363       17.722      859.579
09/30/2014  20:01:00      -64.709       78.033       -5.654       68.693       67.960       38.819     4718.686     4618.614     1506.930        1.057        0.542      101.373       47.298        0.218      342.278       17.576      859.584
09/30/2014  20:02:00      -77.728       76.117      -10.746       47.944       53.231       34.464     2298.582     2833.530     1187.768        0.913        0.316      108.790       26.539        0.060      342.305       17.621      859.600
09/30/2014  20:03:00      -55.173      117.634      -15.517       47.623       48.922       29.205     2267.975     2393.335      852.905        1.132        0.276      129.930       29.998        0.053      342.254       17.535      859.611
09/30/2014  20:04:00      -92.820       94.579      -18.018       36.627       40.551       24.553     1341.510     1644.365      602.833        1.074        0.179      132.517       14.995        0.013      342.240       17.512      859.631
09/30/2014  20:05:00     -139.299       93.798      -33.898       36.261       50.677       22.859     1314.889     2568.129      522.535        1.688        0.220      167.935       16.110        0.009      342.211       17.463      859.662
09/30/2014  20:06:00     -105.103      104.289      -22.768       53.704       85.632       33.604     2884.139     7332.815     1129.211        1.689        0.567      148.064       48.331        0.107      342.162       17.378      859.672
09/30/2014  20:07:00     -123.283      125.406      -25.866       45.173       73.490       32.804     2040.643     5400.709     1076.120        2.005        0.426      175.856       33.553        0.036      342.112       17.294      859.670
09/30/2014  20:08:00      -44.916      134.334      -15.287       45.587       69.608       31.729     2078.205     4845.222     1006.703        1.411        0.397      141.645       26.634        0.035      342.116       17.300      859.654
09/30/2014  20:09:00      -61.051      156.282      -21.243       39.793       47.600       26.491     1583.469     2265.746      701.772        1.658        0.228      167.783       24.694        0.022      342.094       17.261      859.653
09/30/2014  20:10:00     -114.351      133.222      -22.801       62.817       84.084       39.833     3945.981     7070.175     1586.697        2.197        0.630      175.568       32.883        0.035      342.079       17.234      859.659
09/30/2014  20:11:00      -82.261      138.784      -26.197       60.407       63.257       37.494     3649.037     4001.465     1405.817        1.788        0.453      161.332       37.092        0.053      342.095       17.265      859.669
09/30/2014  20:12:00      -32.302      146.720       -5.692       32.128       81.041       30.346     1032.239     6567.691      920.861        1.556        0.426      150.234       43.072        0.082      342.114       17.297      859.684
09/30/2014  20:13:00      -56.121       82.685      -11.806       44.274       47.341       20.623     1960.197     2241.131      425.310        0.738        0.231       99.932       17.353        0.030      342.122       17.309      859.710
09/30/2014  20:14:00      -40.516      121.807      -18.286       47.541       60.604       28.266     2260.157     3672.841      798.964        1.177        0.337      128.369       22.904        0.032      342.048       17.186      859.727
09/30/2014  20:15:00      -37.532      166.195      -26.532       39.641       71.451       27.334     1571.434     5105.225      747.160        1.858        0.371      170.380       30.848        0.033      342.043       17.174      859.721
09/30/2014  20:16:00      -45.582      119.802      -23.996       49.907       47.556       21.120     2490.684     2261.608      446.050        1.110        0.260      128.181       20.042        0.024      342.029       17.153      859.719
09/30/2014  20:17:00        1.201      134.710      -12.465       58.859       59.112       32.634     3464.346     3494.267     1064.991        1.316        0.401      134.716       25.153        0.035      341.995       17.097      859.743
09/30/2014  20:18:00       11.675       72.270      -10.199       40.781       38.042       17.635     1663.077     1447.189      310.980        0.444        0.171       73.207       13.147        0.032      341.969       17.050      859.744
09/30/2014  20:19:00        3.591       72.619      -18.346       35.828       29.128       14.827     1283.658      848.454      219.839        0.399        0.118       72.708       13.746        0.036      341.988       17.084      859.752
09/30/2014  20:20:00      -52.252       93.169      -17.405       76.079       75.405       27.849     5788.077     5685.843      775.589        1.198        0.612      106.821       19.721        0.034      342.108       17.287      859.776
09/30/2014  20:21:00      -25.601      107.914      -23.792       45.590       47.793       26.607     2078.477     2284.198      707.953        0.897        0.254      110.910       20.410        0.034      342.006       17.114      859.805
09/30/2014  20:22:00     -122.993       87.241      -15.800       46.388       65.651       33.850     2151.875     4310.024     1145.852        1.530        0.380      150.792       25.843        0.029      342.062       17.207      859.832
09/30/2014  20:23:00      -38.582       74.083      -14.204       59.825       38.393       22.537     3579.068     1474.041      507.902        0.637        0.278       83.528       15.367        0.034      342.023       17.144      859.862
09/30/2014  20:24:00      -77.903      230.784      -33.127       71.086      108.474       58.310     5053.211    11766.509     3400.105        4.032        1.011      243.578       56.701        0.054      342.019       17.133      859.880
09/30/2014  20:25:00     -152.473      101.440      -19.678      138.078       70.740       70.898    19065.448     5004.145     5026.514        3.151        1.455      183.133       87.280        0.227      342.072       17.224      859.889
09/30/2014  20:26:00     -109.663      143.753      -27.528       59.644       58.472       38.852     3557.357     3418.925     1509.504        2.097        0.424      180.806       36.230        0.040      342.005       17.111      859.901
09/30/2014  20:27:00      -52.318      125.718      -17.576       51.552       83.483       31.893     2657.653     6969.493     1017.162        1.475        0.532      136.170       36.898        0.073      342.020       17.136      859.892
09/30/2014  20:28:00      -40.086       53.101       -8.513       30.712       43.801       26.487      943.258     1918.559      701.560        0.403        0.178       66.533       14.813        0.050      342.059       17.204      859.886
09/30/2014  20:29:00     -140.135      106.108      -15.425      125.306      116.234       57.056    15701.700    13510.380     3255.343        3.180        1.623      175.774       66.152        0.142      342.032       17.155      859.884
09/30/2014  20:30:00      -91.050      111.819      -11.465       63.678       63.436       36.124     4054.889     4024.073     1304.962        1.515        0.469      144.200       32.915        0.052      342.018       17.134      859.886
09/30/2014  20:31:00     -121.213      104.349      -14.210       66.464       64.838       46.210     4417.443     4204.017     2135.380        1.827        0.538      159.942       46.830        0.086      342.033       17.159      859.885
09/30/2014  20:32:00      -82.887      294.737      -33.796       91.532       93.274       50.127     8378.083     8700.019     2512.691        5.723        0.980      306.170       48.472        0.025      341.940       16.998      859.871
09/30/2014  20:33:00      -72.413      106.572      -14.612       84.703       79.163       33.598     7174.621     6266.734     1128.794        1.569        0.729      128.846       37.358        0.084      341.963       17.039      859.870
09/30/2014  20:34:00      -86.269      167.985      -26.191       49.875       83.683       33.618     2487.490     7002.842     1130.171        2.348        0.531      188.842       27.504        0.021      341.935       16.992      859.871
09/30/2014  20:35:00      -98.506      252.360      -40.224       81.311      154.648       48.767     6611.503    23915.948     2378.191        5.395        1.645      270.904       59.414        0.048      341.910       16.948      859.901
09/30/2014  20:36:00     -129.337      133.909      -20.844       71.308       68.099       50.045     5084.844     4637.487     2504.494        2.366        0.611      186.171       39.423        0.045      341.892       16.918      859.914
09/30/2014  20:37:00     -120.844      164.233      -40.325       93.567       84.495       49.681     8754.824     7139.326     2468.246        3.078        0.918      203.901       51.558        0.064      341.892       16.917      859.944
09/30/2014  20:38:00      -80.632       56.176       -5.708       54.244       61.318       27.889     2942.404     3759.859      777.792        0.858        0.374       98.271       29.584        0.091      341.894       16.923      859.976
09/30/2014  20:39:00     -139.602       90.659      -22.843       64.052       53.287       33.909     4102.695     2839.474     1149.801        1.816        0.405      166.456       27.579        0.027      341.899       16.932      859.995
09/30/2014  20:40:00      -85.789      196.036      -43.768      104.433       81.677       44.606    10906.157     6671.078     1989.666        3.363        0.978      213.986       48.652        0.052      341.894       16.920      860.009
09/30/2014  20:41:00     -116.795      192.319      -29.821       75.815      120.113       39.851     5747.918    14427.103     1588.091        3.664        1.088      225.006       49.851        0.049      341.875       16.890      860.027
09/30/2014  20:42:00      -84.363      192.210      -20.527       58.054      101.713       36.974     3370.266    10345.573     1367.105        2.978        0.754      209.909       43.159        0.042      341.808       16.775      860.019
09/30/2014  20:43:00     -112.028      187.687      -31.836       76.847       96.798       43.502     5905.394     9369.949     1892.405        3.298        0.858      218.579       49.002        0.050      341.822       16.799      860.022
09/30/2014  20:44:00      -91.396      235.550      -25.938       93.625       80.913       48.265     8765.600     6546.962     2329.478        4.107        0.882      252.660       48.524        0.037      341.810       16.777      860.054
09/30/2014  20:45:00     -117.246      261.129      -30.554       87.386      108.104       49.513     7636.347    11686.373     2451.509        5.232        1.089      286.243       56.822        0.039      341.830       16.812      860.077
09/30/2014  20:46:00      -69.484      248.276      -31.311       54.355       57.356       38.554     2954.483     3289.669     1486.379        3.759        0.387      257.816       31.971        0.015      341.776       16.719      860.085
09/30/2014  20:47:00      -53.086      284.650      -36.639       36.981       80.690       33.390     1367.581     6510.936     1114.878        4.709        0.450      289.558       33.569        0.013      341.759       16.690      860.110
09/30/2014  20:48:00      -27.970      161.229      -15.039       44.555       98.988       33.831     1985.108     9798.638     1144.513        1.996        0.646      163.637       43.042        0.069      341.737       16.657      860.120
09/30/2014  20:49:00      -59.936      307.644      -41.076       67.286       84.936       39.877     4527.368     7214.063     1590.163        5.663        0.667      313.428       35.413        0.013      341.653       16.510      860.127
09/30/2014  20:50:00      -77.112      170.664      -23.058       63.960       97.605       37.079     4090.884     9526.689     1374.817        2.530        0.750      187.276       40.588        0.047      341.661       16.526      860.128
09/30/2014  20:51:00      -97.940      244.444      -39.411       60.803       83.401       44.361     3697.051     6955.775     1967.908        4.176        0.631      263.335       32.905        0.016      341.668       16.537      860.109
09/30/2014  20:52:00      -17.400      200.725      -31.971       44.465       51.881       34.054     1977.158     2691.631     1159.679        2.372        0.291      201.478       25.331        0.016      341.612       16.443      860.105
09/30/2014  20:53:00      -55.056      256.245      -41.792       77.277       98.999       31.120     5971.685     9800.741      968.472        4.359        0.837      262.093       26.059        0.010      341.632       16.477      860.116
09/30/2014  20:54:00     -158.312      133.108      -27.147       70.498       84.218       40.449     4969.931     7092.625     1636.082        2.861        0.685      206.834       34.274        0.027      341.668       16.538      860.142
09/30/2014  20:55:00     -148.091      141.321      -43.937       80.038       89.752       48.031     6406.106     8055.355     2306.951        3.030        0.838      204.701       48.830        0.057      341.660       16.526      860.157
09/30/2014  20:56:00     -112.671      159.311      -18.803       62.694       89.583       45.927     3930.500     8025.061     2109.254        2.624        0.703      195.128       38.223        0.038      341.623       16.463      860.190
09/30/2014  20:57:00      -23.583      129.364       -6.613       48.554       66.628       38.795     2357.510     4439.244     1505.060        1.282        0.415      131.496       38.341        0.085      341.585       16.400      860.218
09/30/2014  20:58:00       30.237      131.518       -3.498       57.921       92.488       48.043     3354.829     8553.978     2308.091        1.622        0.711      134.949       48.841        0.131      341.507       16.265      860.258
09/30/2014  20:59:00       47.630      144.713      -13.346       47.102       96.497       48.801     2218.645     9311.603     2381.576        1.865        0.696      152.350       53.967        0.125      341.473       16.208      860.287
09/30/2014  21:00:00       32.815      178.584      -17.137       56.472       90.228       39.429     3189.085     8141.179     1554.614        2.307        0.644      181.573       40.643        0.050      341.479       16.217      860.326
09/30/2014  21:01:00       32.576      204.147      -33.846       54.774       72.600       30.675     3000.234     5270.758      940.941        2.655        0.461      206.730       27.635        0.018      341.449       16.166      860.343
09/30/2014  21:02:00      -14.352      221.256      -23.144       59.672       62.922       38.907     3560.805     3959.223     1513.773        2.936        0.452      221.721       24.285        0.012      341.456       16.179      860.348
09/30/2014  21:03:00      -39.693      202.890      -23.421       58.973       70.256       35.374     3477.859     4935.967     1251.301        2.648        0.483      206.736       32.535        0.025      341.547       16.333      860.341
09/30/2014  21:04:00      -94.132      244.361      -33.911       67.283       82.822       43.791     4527.019     6859.496     1917.666        4.151        0.665      261.865       49.760        0.036      341.491       16.237      860.342
09/30/2014  21:05:00       23.031      307.495      -40.866       52.257       93.092       43.551     2730.751     8666.199     1896.688        5.502        0.665      308.357       49.901        0.026      341.461       16.185      860.324
09/30/2014  21:06:00       -4.845      187.761      -20.720       75.455       66.678       36.898     5693.407     4446.002     1361.459        2.360        0.575      187.824       31.236        0.028      341.399       16.081      860.309
09/30/2014  21:07:00      -46.880      197.208      -23.564       53.928       55.933       30.592     2908.225     3128.455      935.886        2.431        0.349      202.703       23.162        0.013      341.402       16.087      860.314
09/30/2014  21:08:00     -101.329      157.755      -24.576       56.398       89.145       48.032     3180.741     7946.839     2307.114        2.459        0.672      187.495       48.896        0.068      341.374       16.040      860.336
09/30/2014  21:09:00      -74.286      144.579      -15.875       66.111       83.240       43.292     4370.618     6928.928     1874.214        1.992        0.659      162.547       43.502        0.072      341.392       16.071      860.365
09/30/2014  21:10:00     -149.737      256.104      -51.509       75.949       96.731       40.227     5768.235     9356.955     1618.216        5.370        0.837      296.665       40.540        0.019      341.410       16.098      860.400
09/30/2014  21:11:00     -181.261      258.046      -42.268      103.643       94.748       42.983    10741.862     8977.214     1847.535        6.139        1.078      315.346       49.303        0.024      341.424       16.122      860.422
09/30/2014  21:12:00     -215.056      211.207      -55.679       75.646      102.425       45.406     5722.311    10490.920     2061.740        5.611        0.914      301.426       56.198        0.035      341.413       16.106      860.429
09/30/2014  21:13:00     -122.933      181.231      -34.006       79.203       74.945       45.289     6273.068     5616.736     2051.048        3.152        0.697      218.992       47.184        0.046      341.399       16.082      860.430
09/30/2014  21:14:00      -90.508      266.007      -30.798       71.133       99.973       38.587     5059.889     9994.530     1488.953        4.822        0.827      280.983       39.471        0.020      341.376       16.043      860.428
09/30/2014  21:15:00      -75.808      177.043       -6.571       81.571       85.044       52.156     6653.829     7232.501     2720.196        2.687        0.830      192.590       43.614        0.051      341.369       16.032      860.416
09/30/2014  21:16:00     -106.362      229.510      -31.175       94.224      105.574       57.831     8878.168    11145.797     3344.417        4.416        1.168      252.958       70.805        0.078      341.389       16.065      860.416
09/30/2014  21:17:00     -110.478      117.868      -14.509       75.119       93.866       38.441     5642.884     8810.825     1477.673        2.112        0.797      161.550       39.463        0.060      341.382       16.055      860.412
09/30/2014  21:18:00     -134.158      220.302      -33.073       74.829       89.251       52.185     5599.403     7965.796     2723.265        4.195        0.814      257.936       50.317        0.038      341.372       16.036      860.419
09/30/2014  21:19:00     -161.362      213.895      -40.394       95.635       98.351       47.096     9146.125     9672.897     2218.023        4.723        1.052      267.935       46.937        0.031      341.382       16.051      860.433
09/30/2014  21:20:00      -95.893      121.150      -20.972       60.989       63.997       40.463     3719.676     4095.648     1637.278        1.688        0.473      154.508       41.271        0.071      341.376       16.046      860.438
09/30/2014  21:21:00     -110.365      176.433      -15.446       72.950       96.706       43.264     5321.658     9352.095     1871.731        3.004        0.827      208.108       42.339        0.041      341.315       15.940      860.476
09/30/2014  21:22:00     -124.324      199.787      -31.438       72.459       97.569       52.688     5250.316     9519.662     2775.974        3.695        0.877      235.311       52.244        0.049      341.329       15.962      860.484
09/30/2014  21:23:00      -76.346      211.221      -29.851       42.002       89.473       34.381     1764.190     8005.497     1182.085        3.114        0.548      224.596       40.440        0.032      341.306       15.925      860.517
09/30/2014  21:24:00      -26.635      288.402      -32.434       52.634       52.903       30.115     2770.304     2798.744      906.935        4.571        0.324      289.629       19.378        0.004      341.287       15.890      860.547
09/30/2014  21:25:00      -50.966      221.700      -19.758       43.615       85.801       31.250     1902.260     7361.801      976.572        3.119        0.512      227.483       33.364        0.022      341.266       15.856      860.551
09/30/2014  21:26:00      -73.431      160.142      -15.824       68.253       71.906       41.421     4658.526     5170.428     1715.702        2.141        0.577      176.175       49.061        0.078      341.240       15.813      860.574
09/30/2014  21:27:00      -83.954      259.597      -35.779       65.641       79.047       45.895     4308.701     6248.463     2106.317        4.419        0.633      272.835       33.008        0.015      341.232       15.797      860.587
09/30/2014  21:28:00      -98.262      238.873      -26.225       69.385       93.323       35.553     4814.335     8709.251     1263.984        4.109        0.739      258.294       34.739        0.018      341.194       15.735      860.596
09/30/2014  21:29:00      -70.811      286.431      -37.581       48.661       70.202       29.147     2367.911     4928.328      849.562        4.831        0.407      295.054       33.282        0.013      341.178       15.706      860.604
09/30/2014  21:30:00      -50.163      206.632      -29.470       51.720       42.676       28.397     2674.914     1821.263      806.366        2.569        0.265      212.633       18.072        0.007      341.135       15.636      860.610
09/30/2014  21:31:00      -77.498      274.075      -25.037       65.505      106.198       40.288     4290.887    11278.077     1623.126        4.947        0.860      284.821       44.108        0.024      341.120       15.608      860.628
09/30/2014  21:32:00      -70.945      260.971      -21.666       63.056       90.494       40.160     3976.047     8189.156     1612.846        4.369        0.689      270.442       45.190        0.028      341.110       15.591      860.630
09/30/2014  21:33:00      -72.109      229.432      -22.587       55.616       85.395       54.194     3093.179     7292.303     2937.018        3.583        0.666      240.497       43.586        0.033      341.138       15.639      860.649
09/30/2014  21:34:00      -62.374      320.415      -32.911       69.228      107.376       41.829     4792.449    11529.604     1749.707        6.285        0.904      326.429       47.676        0.021      341.144       15.650      860.670
09/30/2014  21:35:00      -58.993      217.736      -20.921       85.121       91.308       47.750     7245.603     8337.149     2280.058        3.459        0.893      225.586       49.567        0.048      341.108       15.590      860.674
09/30/2014  21:36:00      -63.164      303.940      -36.475       65.167       80.136       36.565     4246.747     6421.765     1337.004        5.485        0.600      310.434       40.910        0.017      341.119       15.606      860.704
09/30/2014  21:37:00      -82.326      204.338      -29.015       65.747       93.780       50.908     4322.635     8794.623     2591.578        3.254        0.785      220.299       50.238        0.052      341.134       15.634      860.709
09/30/2014  21:38:00      -24.478      289.427      -32.966       56.660       71.419       34.242     3210.380     5100.729     1172.546        4.747        0.474      290.460       30.509        0.011      341.092       15.562      860.708
09/30/2014  21:39:00      -54.289      205.458      -23.162       55.069       70.592       33.967     3032.626     4983.171     1153.745        2.743        0.458      212.510       29.351        0.019      341.075       15.533      860.729
09/30/2014  21:40:00      -56.077      228.155      -13.591       63.808      116.114       39.999     4071.499    13482.415     1599.906        3.727        0.958      234.946       46.982        0.040      341.062       15.513      860.738
09/30/2014  21:41:00      -43.930      222.445      -21.872       55.957       90.997       39.539     3131.164     8280.415     1563.299        3.243        0.649      226.741       40.208        0.031      341.064       15.515      860.744
09/30/2014  21:42:00     -120.093      211.587      -38.167       62.519      118.653       43.221     3908.669    14078.581     1868.077        4.025        0.993      243.293       51.907        0.046      341.091       15.560      860.763
09/30/2014  21:43:00      -76.434      397.472      -43.388       87.320      111.079       49.800     7624.779    12338.623     2480.073        9.407        1.122      404.754       44.771        0.012      341.042       15.477      860.770
09/30/2014  21:44:00      -50.452      226.808      -17.872       72.442       99.940       50.987     5247.791     9988.053     2599.660        3.607        0.892      232.352       46.390        0.040      341.004       15.414      860.772
09/30/2014  21:45:00      -57.303      207.873      -22.868       64.045      107.639       36.294     4101.726    11586.110     1317.286        3.201        0.850      215.626       36.214        0.028      341.034       15.464      860.792
09/30/2014  21:46:00      -59.866      230.119      -29.663       55.061      119.548       40.949     3031.684    14291.659     1676.783        3.821        0.950      237.778       47.010        0.039      340.995       15.398      860.817
09/30/2014  21:47:00      -87.840      218.679      -29.920       72.705       82.415       49.776     5285.974     6792.202     2477.699        3.549        0.728      235.661       45.855        0.038      340.993       15.394      860.811
09/30/2014  21:48:00      -63.684      406.902      -51.010       70.151       99.773       53.045     4921.206     9954.628     2813.769        9.496        0.884      411.856       54.121        0.017      341.003       15.410      860.838
09/30/2014  21:49:00      -49.558      253.171      -24.977       54.879       86.403       34.670     3011.677     7465.480     1201.999        3.943        0.584      257.976       37.242        0.021      340.957       15.332      860.851
09/30/2014  21:50:00      -36.532      302.079      -34.974       75.788      118.731       46.492     5743.750    14097.094     2161.521        5.790        1.100      304.280       56.699        0.035      340.959       15.337      860.863
09/30/2014  21:51:00        1.165      206.211      -24.747       65.048       91.164       41.379     4231.256     8310.819     1712.246        2.869        0.713      206.214       42.127        0.042      340.927       15.283      860.894
09/30/2014  21:52:00       24.830      226.938      -19.845       89.766      115.019       61.756     8057.918    13229.362     3813.837        3.880        1.255      228.293       63.562        0.078      340.874       15.193      860.909
09/30/2014  21:53:00       21.303      296.784      -33.691       72.399      147.723       64.961     5241.648    21822.055     4219.951        6.047        1.564      297.548       77.929        0.069      340.874       15.193      860.923
09/30/2014  21:54:00       16.092      256.460      -13.246       76.665      156.760       75.567     5877.513    24573.759     5710.337        5.118        1.808      256.964       84.612        0.108      340.856       15.163      860.949
09/30/2014  21:55:00       87.466      105.622        4.748       95.108       86.142       61.169     9045.525     7420.503     3741.610        1.951        1.010      137.136       45.034        0.108      340.838       15.132      860.956
09/30/2014  21:56:00      100.086      103.513        8.398      115.761       83.418       63.187    13400.716     6958.516     3992.622        2.257        1.218      143.987       55.123        0.147      340.806       15.081      860.966
09/30/2014  21:57:00      119.645      168.406        3.934       98.461       98.595       69.832     9694.632     9720.942     4876.466        3.349        1.215      206.580       59.269        0.082      340.819       15.101      860.981
09/30/2014  21:58:00       77.618      128.842      -10.884       75.937       63.667       41.974     5766.476     4053.491     1761.779        1.716        0.579      150.416       34.901        0.054      340.754       14.991      860.982
09/30/2014  21:59:00       70.879      221.387      -25.201       86.973      104.719       65.653     7564.240    10966.172     4310.260        3.875        1.142      232.457       59.625        0.066      340.813       15.089      860.990
09/30/2014  22:00:00       64.295      255.040      -28.738       86.664      150.509       78.734     7510.579    22652.954     6199.099        5.318        1.818      263.020       89.116        0.115      340.831       15.120      861.003
09/30/2014  22:01:00        8.010      249.791      -27.701       37.726       63.457       38.654     1423.218     4026.800     1494.151        3.508        0.347      249.919       31.088        0.015      340.776       15.026      861.022
09/30/2014  22:02:00      -21.450      243.366      -30.497       70.258       56.579       31.215     4936.234     3201.175      974.362        3.486        0.456      244.310       22.139        0.008      340.771       15.017      861.019
09/30/2014  22:03:00       11.072      236.375      -35.220       42.501       69.155       30.265     1806.310     4782.465      915.950        3.237        0.375      236.634       29.854        0.016      340.746       14.976      861.032
09/30/2014  22:04:00      -70.309      270.728      -26.626       74.199       81.750       48.735     5505.461     6683.107     2375.085        4.675        0.728      279.708       43.831        0.025      340.755       14.991      861.039
09/30/2014  22:05:00      -40.183      315.336      -34.185       75.286       97.544       48.768     5668.002     9514.801     2378.325        5.989        0.878      317.886       48.487        0.023      340.809       15.081      861.027
09/30/2014  22:06:00      -65.518      307.038      -29.727       67.084       77.565       46.733     4500.290     6016.379     2183.940        5.607        0.635      313.950       45.980        0.021      340.735       14.956      861.028
09/30/2014  22:07:00      -76.450      267.869      -33.855       66.734      110.704       40.367     4453.436    12255.323     1629.511        4.854        0.917      278.565       41.833        0.023      340.714       14.921      861.045
09/30/2014  22:08:00      -73.296      232.474      -29.294       76.985      109.570       41.295     5926.679    12005.576     1705.273        3.995        0.982      243.755       46.406        0.036      340.725       14.941      861.056
09/30/2014  22:09:00      -59.311      235.914      -27.652       74.989       89.519       39.697     5623.292     8013.699     1575.816        3.757        0.761      243.256       34.967        0.021      340.704       14.904      861.059
09/30/2014  22:10:00     -106.595      233.845      -30.360       63.126      102.352       42.574     3984.936    10475.985     1812.541        4.162        0.814      256.994       47.401        0.034      340.709       14.913      861.053
09/30/2014  22:11:00     -123.494      194.903      -32.253       46.345       57.545       40.573     2147.898     3311.400     1646.182        3.069        0.355      230.734       16.100        0.005      340.666       14.841      861.062
09/30/2014  22:12:00     -105.240      162.169      -14.455       71.301       68.399       40.538     5083.887     4678.417     1643.304        2.449        0.570      193.324       34.864        0.033      340.610       14.746      861.059
09/30/2014  22:13:00     -105.542      148.380      -20.828       53.176       70.605       39.465     2827.675     4985.053     1557.477        2.148        0.469      182.087       38.205        0.044      340.614       14.756      861.073
09/30/2014  22:14:00     -168.443      179.990      -42.517       54.215       77.231       43.215     2939.274     5964.694     1867.500        3.667        0.539      246.514       45.550        0.034      340.577       14.689      861.089
09/30/2014  22:15:00     -143.187      159.529      -35.535       46.919       76.723       39.190     2201.414     5886.468     1535.861        2.842        0.481      214.364       37.996        0.031      340.507       14.572      861.120
09/30/2014  22:16:00     -120.350      137.256      -32.183       50.165       64.084       36.103     2516.571     4106.788     1303.462        2.114        0.396      182.547       36.545        0.040      340.438       14.457      861.147
09/30/2014  22:17:00     -149.631      157.342      -36.794       73.142       55.780       40.403     5349.721     3111.377     1632.377        2.929        0.505      217.131       39.056        0.032      340.375       14.350      861.168
09/30/2014  22:18:00      -97.751      178.173      -22.668       69.393       90.829       44.737     4815.440     8249.995     2001.396        2.844        0.753      203.226       50.202        0.061      340.325       14.265      861.198
09/30/2014  22:19:00      -85.410      163.088      -31.729       70.465       46.314       30.052     4965.255     2144.991      903.134        2.145        0.401      184.099       26.039        0.020      340.333       14.279      861.211
09/30/2014  22:20:00      -52.037      210.333      -27.199       65.830       48.352       36.272     4333.640     2337.939     1315.647        2.784        0.399      216.675       24.351        0.013      340.332       14.277      861.227
09/30/2014  22:21:00      -39.282      196.123      -28.108       47.227       65.345       26.947     2230.371     4269.979      726.155        2.401        0.361      200.018       24.245        0.015      340.347       14.303      861.260
09/30/2014  22:22:00      -25.096      139.158       -3.183       57.769       56.686       38.995     3337.295     3213.343     1520.584        1.404        0.404      141.402       28.759        0.041      340.276       14.183      861.259
09/30/2014  22:23:00      -31.118       71.904        2.530       37.347       59.574       29.026     1394.772     3549.089      842.510        0.596        0.289       78.349       27.242        0.121      340.208       14.069      861.279
09/30/2014  22:24:00      -16.563       60.134      -14.926       49.188       61.746       31.395     2419.497     3812.628      985.627        0.566        0.361       62.373       33.138        0.282      340.279       14.188      861.317
09/30/2014  22:25:00      -35.581      184.463      -17.252       66.288       76.539       43.066     4394.165     5858.196     1854.704        2.385        0.605      187.864       43.577        0.054      340.269       14.171      861.329
09/30/2014  22:26:00      -76.971      157.937      -30.342       56.840       47.674       28.863     3230.809     2272.845      833.088        1.906        0.317      175.695       14.463        0.007      340.229       14.104      861.344
09/30/2014  22:27:00      -82.492      148.482      -25.405       55.228       59.900       36.919     3050.144     3588.004     1363.032        1.875        0.400      169.859       30.274        0.032      340.230       14.105      861.365
09/30/2014  22:28:00      -41.787      190.344      -23.477       41.761       55.162       34.905     1744.010     3042.900     1218.365        2.227        0.300      194.876       23.405        0.014      340.207       14.066      861.380
09/30/2014  22:29:00       -4.789      154.359      -10.229       51.899       75.893       31.175     2693.477     5759.739      971.908        1.669        0.471      154.433       28.753        0.035      340.174       14.011      861.400
09/30/2014  22:30:00      -61.316      182.962      -22.184       30.457       61.118       27.999      927.634     3735.371      783.969        2.159        0.272      192.963       28.163        0.021      340.197       14.048      861.431
09/30/2014  22:31:00      -28.326      228.426      -25.784       37.569       65.399       22.930     1411.433     4277.022      525.779        2.993        0.311      230.176       23.157        0.010      340.171       14.004      861.452
09/30/2014  22:32:00      -47.761      192.151      -23.189       49.023       55.415       27.994     2403.257     3070.780      783.679        2.300        0.313      197.998       21.741        0.012      340.143       13.958      861.464
09/30/2014  22:33:00      -48.602      135.473      -17.709       31.709       74.049       32.146     1005.450     5483.210     1033.340        1.427        0.376      143.927       39.821        0.077      340.185       14.029      861.490
09/30/2014  22:34:00      -40.309      141.325      -19.798       52.963       57.876       27.494     2805.074     3349.611      755.938        1.445        0.346      146.961       27.974        0.036      340.140       13.955      861.509
09/30/2014  22:35:00      -66.641      204.866      -29.303       39.283       50.104       26.857     1543.148     2510.431      721.284        2.602        0.239      215.433       18.684        0.008      340.111       13.904      861.524
09/30/2014  22:36:00      -79.235      166.882      -24.621       40.158       55.159       28.997     1612.700     3042.501      840.798        2.011        0.275      184.737       25.003        0.018      340.132       13.940      861.542
09/30/2014  22:37:00      -70.727      167.560      -27.028       57.010       58.162       29.453     3250.176     3382.785      867.476        2.065        0.375      181.875       18.726        0.011      340.102       13.890      861.564
09/30/2014  22:38:00      -67.014      186.319      -31.147       58.601       38.870       29.315     3434.127     1510.894      859.377        2.299        0.290      198.004       23.243        0.014      340.088       13.866      861.571
09/30/2014  22:39:00      -50.191      224.432      -26.450       34.925       55.193       32.368     1219.785     3046.315     1047.676        2.945        0.266      229.976       32.283        0.020      340.030       13.764      861.573
09/30/2014  22:40:00      -57.665      161.459      -18.111       58.788       49.277       25.417     3455.985     2428.215      646.032        1.813        0.327      171.447       25.105        0.021      340.057       13.815      861.583
09/30/2014  22:41:00      -69.382      215.326      -30.010       50.307       66.111       27.892     2530.805     4370.627      777.963        2.988        0.384      226.228       15.993        0.005      340.044       13.790      861.588
09/30/2014  22:42:00      -44.909      177.718      -19.912       33.458       43.618       25.204     1119.431     1902.526      635.243        1.883        0.183      183.304       20.434        0.012      340.058       13.817      861.587
09/30/2014  22:43:00      -31.079      150.379      -14.352       30.505       43.012       18.977      930.540     1850.044      360.125        1.346        0.157      153.557       12.156        0.006      340.042       13.789      861.579
09/30/2014  22:44:00      -67.451      197.812      -22.740       36.540       50.051       27.086     1335.198     2505.118      733.661        2.438        0.229      208.996       17.360        0.007      340.011       13.736      861.587
09/30/2014  22:45:00      -42.597      132.904       -7.817       44.323       45.522       27.627     1964.487     2072.236      763.262        1.217        0.240      139.564       25.305        0.033      339.984       13.691      861.587
09/30/2014  22:46:00      -14.933      164.517      -14.420       51.417       84.382       34.404     2643.735     7120.398     1183.641        1.922        0.547      165.193       40.375        0.060      339.979       13.681      861.569
09/30/2014  22:47:00      -37.098      216.601      -20.840       37.648       40.796       25.011     1417.355     1664.293      625.530        2.622        0.185      219.756       19.538        0.008      339.941       13.617      861.558
09/30/2014  22:48:00      -16.551      140.632       -7.957       25.785       41.697       26.147      664.863     1738.667      683.675        1.160        0.154      141.602       25.710        0.033      339.928       13.598      861.552
09/30/2014  22:49:00      -31.199       96.111       -7.799       40.517       39.560       26.919     1641.659     1564.954      724.633        0.710        0.197      101.048       27.157        0.072      339.933       13.606      861.543
09/30/2014  22:50:00       -9.904      165.042      -13.022       53.251       42.712       31.343     2835.717     1824.289      982.370        1.657        0.282      165.339       23.299        0.020      339.958       13.649      861.544
09/30/2014  22:51:00      -13.518      106.766      -14.252       33.662       44.889       23.725     1133.116     2014.991      562.894        0.775        0.186      107.618       24.166        0.050      339.938       13.614      861.574
09/30/2014  22:52:00       10.331      141.622      -16.659       37.474       37.884       19.228     1404.313     1435.164      369.727        1.182        0.160      141.999       21.298        0.022      339.896       13.544      861.597
09/30/2014  22:53:00      -11.200      102.873      -14.639       33.149       39.406       17.000     1098.853     1552.804      288.990        0.693        0.147      103.481       14.374        0.019      339.886       13.528      861.605
09/30/2014  22:54:00      -22.348      158.749      -18.305       38.028       40.550       21.609     1446.135     1644.283      466.957        1.480        0.178      160.314       21.669        0.018      339.905       13.558      861.623
09/30/2014  22:55:00      -75.010      134.427      -25.368       33.958       52.887       26.158     1153.129     2797.053      684.247        1.449        0.232      153.938       26.875        0.030      339.905       13.557      861.644
09/30/2014  22:56:00      -62.375      123.735      -20.930       28.845       55.757       24.407      832.041     3108.896      595.715        1.209        0.227      138.568       16.949        0.015      339.865       13.491      861.654
09/30/2014  22:57:00      -50.309      121.970       -9.107       39.625       70.379       31.917     1570.144     4953.228     1018.720        1.252        0.377      131.938       28.900        0.048      339.895       13.542      861.669
09/30/2014  22:58:00      -58.807       76.531      -14.194       40.410       35.694       18.127     1632.936     1274.077      328.572        0.638        0.162       96.516       15.269        0.025      339.863       13.488      861.682
09/30/2014  22:59:00      -82.572      108.681      -20.593       46.757       57.387       30.758     2186.204     3293.296      946.063        1.274        0.321      136.490       33.961        0.062      339.825       13.422      861.681
09/30/2014  23:00:00      -95.268      160.094      -26.875       49.333       56.818       28.802     2433.782     3228.258      829.531        2.096        0.325      186.295       21.008        0.013      339.862       13.485      861.670
09/30/2014  23:01:00      -57.530      139.429      -15.422       38.079       64.879       27.575     1450.003     4209.348      760.358        1.470        0.321      150.832       29.191        0.037      339.835       13.439      861.659
09/30/2014  23:02:00      -78.289      186.277      -26.538       31.962       46.140       26.617     1021.568     2128.876      708.475        2.270        0.193      202.060       26.063        0.017      339.873       13.503      861.653
09/30/2014  23:03:00     -102.361      135.234      -25.238       35.135       35.328       24.537     1234.449     1248.079      602.045        1.624        0.154      169.605       19.295        0.013      339.814       13.406      861.648
09/30/2014  23:04:00      -87.068       92.681      -23.058       32.257       43.699       24.417     1040.531     1909.569      596.191        1.012        0.177      127.163       20.963        0.027      339.828       13.428      861.640
09/30/2014  23:05:00      -81.016      155.417      -28.083       48.499       56.246       29.867     2352.120     3163.569      892.030        1.896        0.320      175.266       28.752        0.027      339.820       13.416      861.635
09/30/2014  23:06:00      -60.966      193.171      -17.794       54.111       66.020       31.701     2928.036     4358.621     1004.977        2.482        0.415      202.563       31.501        0.024      339.829       13.427      861.643
09/30/2014  23:07:00      -49.711      241.780      -25.394       46.275       66.156       27.753     2141.420     4376.664      770.244        3.443        0.364      246.838       15.624        0.004      339.838       13.442      861.635
09/30/2014  23:08:00      -56.974      193.068      -23.875       38.181       60.439       27.363     1457.790     3652.837      748.749        2.347        0.293      201.299       25.190        0.016      339.764       13.318      861.630
09/30/2014  23:09:00      -52.670      170.259      -18.835       38.829       66.831       27.596     1507.684     4466.343      761.542        1.943        0.337      178.220       29.430        0.027      339.791       13.364      861.612
09/30/2014  23:10:00      -91.775      165.676      -26.397       57.699       73.951       40.220     3329.195     5468.776     1617.658        2.349        0.521      189.397       38.007        0.040      339.771       13.330      861.610
09/30/2014  23:11:00      -63.399      231.213      -23.809       54.567       64.284       35.780     2977.592     4132.442     1280.210        3.322        0.420      239.747       30.559        0.016      339.756       13.304      861.608
09/30/2014  23:12:00      -51.160      199.207      -27.244       52.046       40.166       30.462     2708.824     1613.337      927.907        2.415        0.263      205.671       18.376        0.008      339.698       13.206      861.596
09/30/2014  23:13:00      -36.501      124.487      -16.513       39.936       81.927       27.825     1594.884     6712.083      774.211        1.309        0.454      129.728       27.587        0.045      339.705       13.220      861.606
09/30/2014  23:14:00      -60.765       99.860      -13.796       49.244       46.766       32.622     2424.933     2187.094     1064.204        0.976        0.284      116.895       30.212        0.067      339.726       13.257      861.614
09/30/2014  23:15:00      -69.685      156.879      -24.076       53.086       77.999       35.499     2818.167     6083.803     1260.191        2.010        0.508      171.660       37.944        0.049      339.690       13.193      861.622
09/30/2014  23:16:00      -71.881      160.696      -26.688       39.848       66.613       31.794     1587.868     4437.250     1010.884        1.937        0.352      176.040       27.990        0.025      339.708       13.225      861.636
09/30/2014  23:17:00      -36.466       71.742       -2.797       45.293       60.394       30.885     2051.432     3647.486      953.861        0.657        0.333       80.478       21.707        0.073      339.690       13.195      861.658
09/30/2014  23:18:00      -42.903       62.716      -15.786       31.759       45.820       20.575     1008.619     2099.459      423.322        0.478        0.177       75.987       16.852        0.049      339.696       13.206      861.665
09/30/2014  23:19:00      -32.704       91.435      -14.296       24.264       65.490       23.369      588.760     4288.900      546.120        0.753        0.271       97.108       15.511        0.026      339.696       13.206      861.674
09/30/2014  23:20:00      -36.242       85.031       -5.528       28.081       59.584       28.075      788.525     3550.280      788.216        0.685        0.256       92.432       29.158        0.100      339.674       13.168      861.699
09/30/2014  23:21:00      -40.825      140.485       -9.768       37.850       52.775       26.275     1432.641     2785.192      690.398        1.320        0.245      146.296       29.143        0.040      339.660       13.145      861.719
09/30/2014  23:22:00      -53.477      151.078      -18.377       61.702       81.236       35.287     3807.092     6599.325     1245.190        1.883        0.583      160.263       34.904        0.047      339.641       13.111      861.727
09/30/2014  23:23:00      -97.908      135.403      -13.313       59.241       69.033       38.725     3509.440     4765.550     1499.623        1.893        0.489      167.093       34.268        0.042      339.657       13.139      861.731
09/30/2014  23:24:00      -68.249      141.845      -23.084       52.855       69.804       34.445     2793.703     4872.641     1186.484        1.708        0.443      157.410       33.568        0.045      339.651       13.129      861.750
09/30/2014  23:25:00      -70.252      191.369      -21.258       57.212       55.912       42.610     3273.203     3126.127     1815.585        2.511        0.411      203.856       35.562        0.030      339.551       12.960      861.767
09/30/2014  23:26:00      -94.871      159.007      -21.733       77.253       74.621       39.826     5968.054     5568.236     1586.085        2.394        0.656      185.159       42.493        0.053      339.491       12.858      861.763
09/30/2014  23:27:00      -83.741      167.602      -22.069       56.911       53.037       35.814     3238.825     2812.965     1282.657        2.146        0.367      187.358       29.881        0.025      339.526       12.918      861.759
09/30/2014  23:28:00      -82.391      224.988      -24.070       66.697      100.814       37.095     4448.548    10163.465     1376.032        3.699        0.799      239.600       36.148        0.023      339.513       12.894      861.762
09/30/2014  23:29:00     -108.970      205.394      -29.135       54.883       68.423       41.163     3012.115     4681.755     1694.400        3.215        0.469      232.510       39.785        0.029      339.513       12.894      861.769
09/30/2014  23:30:00      -95.424      167.346      -22.078       50.902       49.405       38.539     2591.021     2440.818     1485.284        2.206        0.326      192.640       36.484        0.036      339.472       12.827      861.766
09/30/2014  23:31:00     -117.443      197.783      -34.590       68.093       68.016       41.895     4636.683     4626.235     1755.165        3.256        0.551      230.024       38.877        0.029      339.419       12.736      861.764
09/30/2014  23:32:00     -137.043      140.885      -27.658       75.600       75.682       38.015     5715.390     5727.722     1445.143        2.614        0.644      196.544       45.401        0.053      339.443       12.777      861.782
09/30/2014  23:33:00     -149.092      128.763      -25.629       75.571       65.462       40.805     5711.017     4285.297     1665.024        2.556        0.583      196.999       38.596        0.038      339.448       12.787      861.785
09/30/2014  23:34:00      -71.889      159.929      -16.036       52.354       60.692       45.148     2740.900     3683.491     2038.386        1.973        0.423      175.343       33.960        0.038      339.410       12.722      861.798
09/30/2014  23:35:00      -54.201      109.718       -4.004       44.463       74.608       37.761     1976.945     5566.392     1425.901        1.198        0.448      122.376       33.641        0.076      339.379       12.671      861.818
09/30/2014  23:36:00      -69.305      193.854      -25.885       58.451       59.407       40.653     3416.504     3529.236     1652.645        2.582        0.430      205.870       34.593        0.028      339.435       12.764      861.826
09/30/2014  23:37:00     -119.003      181.320      -25.357       61.636       64.349       44.109     3799.043     4140.775     1945.592        2.878        0.494      216.884       43.876        0.041      339.426       12.747      861.841
09/30/2014  23:38:00      -51.128      161.147      -13.052       36.836       53.049       21.922     1356.880     2814.221      480.570        1.670        0.233      169.064       22.637        0.018      339.417       12.736      861.862
09/30/2014  23:39:00      -69.177      116.174      -20.349       32.163       42.576       29.849     1034.461     1812.748      890.975        1.122        0.187      135.211       26.613        0.039      339.463       12.812      861.887
09/30/2014  23:40:00      -46.998      123.156       -9.663       46.401       53.620       31.353     2153.021     2875.064      983.034        1.174        0.301      131.819       32.050        0.059      339.454       12.798      861.904
09/30/2014  23:41:00      -72.766      138.718      -15.909       49.534       60.603       32.386     2453.640     3672.728     1048.846        1.598        0.359      156.644       31.328        0.040      339.431       12.759      861.919
09/30/2014  23:42:00      -45.479      114.610      -15.994       46.944       53.553       37.823     2203.750     2867.878     1430.611        1.098        0.325      123.303       33.024        0.072      339.420       12.741      861.937
09/30/2014  23:43:00      -48.141      153.236      -26.338       30.713       55.076       21.221      943.274     3033.413      450.314        1.546        0.221      160.620       18.996        0.014      339.418       12.737      861.946
09/30/2014  23:44:00      -48.137      122.099      -15.814       46.617       50.757       26.810     2173.118     2576.311      718.780        1.147        0.273      131.245       27.254        0.043      339.370       12.657      861.942
09/30/2014  23:45:00     -101.650      190.426      -33.594       62.289       72.895       37.100     3879.959     5313.630     1376.375        2.914        0.528      215.858       35.583        0.027      339.375       12.662      861.947
09/30/2014  23:46:00     -124.759      155.096      -37.576       48.268       52.711       32.886     2329.773     2778.485     1081.485        2.361        0.309      199.047       33.329        0.028      339.372       12.659      861.947
09/30/2014  23:47:00      -84.229      110.741      -23.404       40.516       48.659       29.979     1641.537     2367.704      898.767        1.241        0.245      139.133       19.780        0.020      339.399       12.707      861.933
09/30/2014  23:48:00      -81.090      148.361      -22.500       45.864       77.874       31.519     2103.475     6064.391      993.434        1.913        0.458      169.075       21.108        0.016      339.400       12.705      861.924
09/30/2014  23:49:00      -76.915      116.460      -14.325       44.372       59.223       27.254     1968.884     3507.395      742.793        1.295        0.311      139.567       26.257        0.035      339.440       12.775      861.927
09/30/2014  23:50:00     -100.466      169.524      -30.921       45.997       54.200       27.071     2115.690     2937.628      732.827        2.279        0.289      197.058       24.640        0.016      339.401       12.707      861.915
09/30/2014  23:51:00      -69.183       79.637      -16.481       45.861       47.606       27.539     2103.212     2266.346      758.381        0.826        0.256      105.491       28.036        0.071      339.391       12.692      861.894
09/30/2014  23:52:00     -113.210      178.614      -33.832       52.999       50.805       29.221     2808.944     2581.187      853.875        2.605        0.312      211.470       23.514        0.012      339.362       12.639      861.889
09/30/2014  23:53:00      -88.207       98.040      -13.046       44.171       77.351       31.144     1951.064     5983.246      969.967        1.323        0.445      131.880       15.654        0.014      339.277       12.499      861.874
09/30/2014  23:54:00     -137.285      155.870      -32.348       47.383       53.811       35.695     2245.165     2895.621     1274.147        2.530        0.321      207.708       29.760        0.021      339.311       12.554      861.858
09/30/2014  23:55:00     -112.542      154.209      -26.918       50.295       58.748       38.423     2529.582     3451.313     1476.360        2.231        0.373      190.909       33.838        0.031      339.278       12.501      861.855
09/30/2014  23:56:00     -113.828      170.165      -31.345       56.774       54.529       36.021     3223.343     2973.427     1297.533        2.519        0.375      204.727       33.872        0.027      339.345       12.612      861.859
09/30/2014  23:57:00     -158.363      138.558      -31.676       71.091       72.138       41.710     5053.940     5203.898     1739.740        2.864        0.600      210.421       44.619        0.045      339.405       12.714      861.866
09/30/2014  23:58:00      -93.750      148.896      -21.628       46.240       64.546       33.678     2138.175     4166.182     1134.238        1.943        0.372      175.952       31.399        0.032      339.363       12.644      861.871
09/30/2014  23:59:00     -115.355      129.145      -37.582       44.758       54.781       33.135     2003.293     3000.931     1097.909        1.875        0.305      173.162       34.093        0.039      339.392       12.692      861.886
